[[{"header":{"parameterUnit":"m.s-1","parameterCategory":1,"la1":31.0,"la2":29.5877,"lo1":-88.7671,"lo2":-86.6584,"dy":0.0162,"dx":0.0185,"nx":115,"ny":88,"refTime":"2025-01-25T06:00:00:Z","depth":0,"parameterNumber":2,"parameterNumberName":"U-component_of_WINDS"},"data":[0.0,0.0,0.0,0.0,0.0,0.0,0.0,0.0,0.0,0.0,0.0,0.0,0.0,0.0,0.0,0.0,0.0,0.0,0.0,0.0,0.0,0.0,0.0,0.0,0.0,0.0,0.0,0.0,0.0,0.0,0.0,0.0,0.0,0.0,0.0,0.0,0.0,0.0,0.0,0.0,0.0,0.0,0.0,0.0,0.0,0.0,0.0,0.0,0.0,0.0,0.0,0.0,0.0,0.0,0.0,0.0,0.0,0.0,0.0,0.0,0.0,0.0,0.0,0.0,0.0,0.0,0.0,0.0,0.0,0.0,0.0,0.0,0.0,0.0,0.0,0.0,0.0,0.0,0.0,0.0,0.0,0.0,0.0,0.0,0.0,0.0,0.0,0.0,0.0,0.0,0.0,0.0,0.0,0.0,0.0,0.0,0.0,0.0,0.0,0.0,0.0,0.0,0.0,0.0,0.0,0.0,0.0,0.0,0.0,0.0,0.0,0.0,0.0,0.0,0.0,0.0,0.0,0.0,0.0,0.0,0.0,0.0,0.0,0.0,0.0,0.0,0.0,0.0,0.0,0.0,0.0,0.0,0.0,0.0,0.0,0.0,0.0,0.0,0.0,0.0,0.0,0.0,0.0,0.0,0.0,0.0,0.0,0.0,0.0,0.0,0.0,0.0,0.0,0.0,0.0,0.0,0.0,0.0,0.0,0.0,0.0,0.0,0.0,0.0,0.0,0.0,0.0,0.0,0.0,0.0,0.0,0.0,0.0,0.0,0.0,0.0,0.0,0.0,0.0,0.0,0.0,0.0,0.0,0.0,0.0,0.0,0.0,0.0,0.0,0.0,0.0,0.0,0.0,0.0,0.0,0.0,0.0,0.0,0.0,0.0,0.0,0.0,0.0,0.0,0.0,0.0,0.0,0.0,0.0,0.0,0.0,0.0,0.0,0.0,0.0,0.0,0.0,0.0,0.0,0.0,0.0,0.0,0.0,0.0,0.0,0.0,0.0,0.0,0.0,0.0,0.0,0.0,0.0,0.0,0.0,0.0,0.0,0.0,0.0,0.0,0.0,0.0,0.0,0.0,0.0,0.0,0.0,0.0,0.0,0.0,0.0,0.0,0.0,0.0,0.0,0.0,0.0,0.0,0.0,0.0,0.0,0.0,0.0,0.0,0.0,0.0,0.0,0.0,0.0,0.0,0.0,0.0,0.0,0.0,0.0,0.0,0.0,0.0,0.0,0.0,0.0,0.0,0.0,0.0,0.0,0.0,0.0,0.0,0.0,0.0,0.0,0.0,0.0,0.0,0.0,0.0,0.0,0.0,0.0,0.0,0.0,0.0,0.0,0.0,0.0,0.0,0.0,0.0,0.0,0.0,0.0,0.0,0.0,0.0,0.0,0.0,0.0,0.0,0.0,0.0,0.0,0.0,0.0,0.0,0.0,0.0,0.0,0.0,0.0,0.0,0.0,0.0,0.0,0.0,0.0,0.0,0.0,0.0,0.0,0.0,0.0,0.0,0.0,0.0,0.0,0.0,0.0,0.0,0.0,0.0,0.0,0.0,0.0,0.0,0.0,0.0,0.0,0.0,0.0,0.0,0.0,0.0,0.0,0.0,0.0,0.0,0.0,0.0,0.0,0.0,0.0,0.0,0.0,0.0,0.0,0.0,0.0,0.0,0.0,0.0,0.0,0.0,0.0,0.0,0.0,0.0,0.0,0.0,0.0,0.0,0.0,0.0,0.0,0.0,0.0,0.0,0.0,0.0,0.0,0.0,0.0,0.0,0.0,0.0,0.0,0.0,0.0,0.0,0.0,0.0,0.0,0.0,0.0,0.0,0.0,0.0,0.0,0.0,0.0,0.0,0.0,0.0,0.0,0.0,0.0,0.0,0.0,0.0,0.0,0.0,0.0,0.0,0.0,0.0,0.0,0.0,0.0,0.0,0.0,0.0,0.0,0.0,0.0,0.0,0.0,0.0,0.0,0.0,0.0,0.0,0.0,0.0,0.0,0.0,0.0,0.0,0.0,0.0,0.0,0.0,0.0,0.0,0.0,0.0,0.0,0.0,0.0,0.0,0.0,0.0,0.0,0.0,0.0,0.0,0.0,0.0,0.0,0.0,0.0,0.0,0.0,0.0,0.0,0.0,0.0,0.0,0.0,0.0,0.0,0.0,0.0,0.0,0.0,0.0,0.0,0.0,0.0,0.0,0.0,0.0,0.0,0.0,0.0,0.0,0.0,0.0,0.0,0.0,0.0,0.0,0.0,0.0,0.0,0.0,0.0,0.0,0.0,0.0,0.0,0.0,0.0,0.0,0.0,0.0,0.0,0.0,0.0,0.0,0.0,0.0,0.0,0.0,0.0,0.0,0.0,0.0,0.0,0.0,0.0,0.0,0.0,0.0,0.0,0.0,0.0,0.0,0.0,0.0,0.0,0.0,0.0,0.0,0.0,0.0,0.0,0.0,0.0,0.0,0.0,0.0,0.0,0.0,0.0,0.0,0.0,0.0,0.0,0.0,0.0,0.0,0.0,0.0,0.0,0.0,0.0,0.0,0.0,0.0,0.0,0.0,0.0,0.0,0.0,0.0,0.0,0.0,0.0,0.0,0.0,0.0,0.0,0.0,0.0,0.0,0.0,0.0,0.0,0.0,0.0,0.0,0.0,0.0,0.0,0.0,0.0,0.0,0.0,0.0,0.0,0.0,0.0,0.0,0.0,0.0,0.0,0.0,0.0,0.0,0.0,0.0,0.0,0.0,0.0,0.0,0.0,0.0,0.0,0.0,0.0,0.0,0.0,0.0,0.0,0.0,0.0,0.0,0.0,0.0,0.0,0.0,0.0,0.0,0.0,0.0,0.0,0.0,0.0,0.0,0.0,0.0,0.0,0.0,0.0,0.0,0.0,0.0,0.0,0.0,0.0,0.0,0.0,0.0,0.0,0.0,0.0,0.0,0.0,0.0,0.0,0.0,0.0,0.0,0.0,0.0,0.0,0.0,0.0,0.0,0.0,0.0,0.0,0.0,0.0,0.0,0.0,0.0,0.0,0.0,0.0,0.0,0.0,0.0,0.0,0.0,0.0,0.0,0.0,0.0,0.0,0.0,0.0,0.0,0.0,0.0,0.0,0.0,0.0,0.0,0.0,0.0,0.0,0.0,0.0,0.0,0.0,0.0,0.0,0.0,0.0,0.0,0.0,0.0,0.0,0.0,0.0,0.0,0.0,0.0,0.0,0.0,0.0,0.0,0.0,0.0,0.0,0.0,0.0,0.0,0.0,0.0,0.0,0.0,0.0,0.0,0.0,0.0,0.0,0.0,0.0,0.0,0.0,0.0,0.0,0.0,0.0,0.0,0.0,0.0,0.0,0.0,0.0,0.0,0.0,0.0,0.0,0.0,0.0,0.0,0.0,0.0,0.0,0.0,0.0,0.0,0.0,0.0,0.0,0.0,0.0,0.0,0.0,0.0,0.0,0.0,0.0,0.0,0.0,0.0,0.0,0.0,0.0,0.0,0.0,0.0,0.0,0.0,0.0,0.0,0.0,0.0,0.0,0.0,0.0,0.0,0.0,0.0,0.0,0.0,0.0,0.0,0.0,0.0,0.0,0.0,0.0,0.0,0.0,0.0,0.0,0.0,0.0,0.0,0.0,0.0,0.0,0.0,0.0,0.0,0.0,0.0,0.0,0.0,0.0,0.0,0.0,0.0,0.0,0.0,0.0,0.0,0.0,0.0,0.0,0.0,0.0,0.0,0.0,0.0,0.0,0.0,0.0,0.0,0.0,0.0,0.0,0.0,0.0,0.0,0.0,0.0,0.0,0.0,0.0,0.0,0.0,0.0,0.0,0.0,0.0,0.0,0.0,0.0,0.0,0.0,0.0,0.0,0.0,0.0,0.0,0.0,0.0,0.0,0.0,0.0,0.0,0.0,0.0,0.0,0.0,0.0,0.0,0.0,0.0,0.0,0.0,0.0,0.0,0.0,0.0,0.0,0.0,0.0,0.0,0.0,0.0,0.0,0.0,0.0,0.0,0.0,0.0,0.0,0.0,0.0,0.0,0.0,0.0,0.0,0.0,0.0,0.0,0.0,0.0,0.0,0.0,0.0,0.0,0.0,0.0,0.0,0.0,0.0,0.0,0.0,0.0,0.0,0.0,0.0,0.0,0.0,0.0,0.0,0.0,0.0,0.0,0.0,0.0,0.0,0.0,0.0,0.0,0.0,0.0,0.0,0.0,0.0,0.0,0.0,0.0,0.0,0.0,0.0,0.0,0.0,0.0,0.0,0.5782,0.0,0.0,0.0,0.0,0.0,0.0,0.0,0.0,0.0,0.0,0.0,0.0,0.0,0.0,0.0,0.0,0.0,0.0,0.0,0.0,0.0,0.0,0.0,0.0,0.0,0.0,0.0,0.0,0.0,0.0,0.0,0.0,0.0,0.0,0.0,0.0,0.0,0.0,0.0,0.0,0.0,0.0,0.0,0.0,0.0,0.0,0.0,0.0,0.0,0.0,0.0,0.0,0.0,0.0,0.0,0.0,0.0,0.0,0.0,0.0,0.0,0.0,0.0,0.0,0.0,0.0,0.0,0.0,0.0,0.0,0.0,0.0,0.0,0.0,0.0,0.0,0.0,0.0,0.0,0.0,0.0,0.0,0.0,0.0,0.0,0.0,0.0,0.0,0.0,0.0,0.0,0.0,0.0,0.0,0.0,0.0,0.0,0.0,0.0,0.0,0.0,0.0,0.0,0.0,0.0,0.0,0.0,0.0,0.0,0.0,0.8606,0.8152,0.7196,0.6301,0.5502,0.0,0.0,0.0,0.0,0.0,0.0,0.0,0.0,0.0,0.0,0.0,0.0,0.0,0.0,0.0,0.0,0.0,0.0,0.0,0.0,0.0,0.0,0.0,0.0,0.0,0.0,0.0,0.0,0.0,0.0,0.0,0.0,0.0,0.0,0.0,0.0,0.0,0.0,0.0,0.0,0.0,0.0,0.0,0.0,0.0,0.0,0.0,0.0,0.0,0.0,0.0,0.0,0.0,0.0,0.0,0.0,0.0,0.0,0.0,0.0,0.0,0.0,0.0,0.0,0.0,0.0,0.0,0.0,0.0,0.0,0.0,0.0,0.0,0.0,0.0,0.0,0.0,0.0,0.0,0.0,0.0,0.0,0.0,0.0,0.0,0.0,0.0,0.0,0.0,0.0,0.0,0.0,0.0,0.0,0.0,0.0,0.0,0.0,0.0,0.0,0.0,0.0,0.0,0.0,0.0,0.0,0.0,0.0,0.0,0.0,0.0,0.0,0.7054,0.6007,0.4964,0.0,0.0,0.0,0.0,0.0,0.0,0.0,0.0,0.0,0.0,0.0,0.0,0.0,0.0,0.0,0.0,0.0,0.0,0.0,0.0,0.0,0.0,0.0,0.0,0.0,0.0,0.0,0.0,0.0,0.0,0.0,0.0,0.0,0.0,0.0,0.0,0.0,0.0,0.0,0.0,0.0,0.0,0.0,0.0,0.0,0.0,0.0,0.0,0.0,0.0,0.0,0.0,0.0,0.0,0.0,0.0,0.0,0.0,0.0,0.0,0.0,0.0,0.0,0.0,0.0,0.0,0.0,0.0,0.0,0.0,0.0,0.0,0.0,0.0,0.0,0.0,0.0,0.0,0.0,0.0,0.0,0.0,0.0,0.0,0.0,0.0,0.0,0.0,0.0,0.0,0.0,0.0,0.0,0.0,0.0,0.0,0.0,0.0,0.0,0.0,0.0,0.0,0.0,0.0,0.0,0.0,0.0,0.0,0.0,0.0,0.8502,0.9036,0.7451,0.0,0.4038,0.0,0.0,0.0,0.0,0.0,0.0,0.0,0.0,0.0,0.0,0.0,0.0,0.0,0.0,0.0,0.0,0.0,0.0,0.0,0.0,0.0,0.0,0.0,0.0,0.0,0.0,0.0,0.0,0.0,0.0,0.0,0.0,0.0,0.0,0.0,0.0,0.0,0.0,0.0,0.0,0.0,0.0,0.0,0.0,0.0,0.0,0.0,0.0,0.0,0.0,0.0,0.0,0.0,0.0,0.0,0.0,0.0,0.0,0.0,0.0,0.0,0.0,0.0,0.0,0.0,0.0,0.0,0.0,0.0,0.0,0.0,0.0,0.0,0.0,0.0,0.0,0.0,0.0,0.0,0.0,0.0,0.0,0.0,0.0,0.0,0.0,0.0,0.0,0.0,0.0,0.0,0.0,0.0,0.0,0.0,0.0,0.0,0.0,0.0,0.0,0.0,0.0,0.0,0.0,0.0,0.0,0.0,0.0,0.0,0.0,0.0,0.9141,0.7152,0.5366,0.0,0.0,0.0,0.0,0.0,0.0,0.0,0.0,0.0,0.0,0.0,0.0,0.0,0.0,0.0,0.0,0.0,0.0,0.0,0.0,0.0,0.0,0.0,0.0,0.0,0.0,0.0,0.0,0.0,0.0,0.0,0.0,0.0,0.0,0.0,0.0,0.0,0.0,0.0,0.0,0.0,0.0,0.0,0.0,0.0,0.0,0.0,0.0,0.0,0.0,0.0,0.0,0.0,0.0,0.0,0.0,0.0,0.0,0.0,0.0,0.0,0.0,0.0,0.0,0.0,0.0,0.0,0.0,0.0,0.0,0.0,0.0,0.0,0.0,0.0,0.0,0.0,0.0,0.0,0.0,0.0,0.0,0.0,0.0,0.0,0.0,0.0,0.0,0.0,0.0,0.0,0.0,0.0,0.0,0.0,0.0,0.0,0.0,0.0,0.0,0.0,0.0,0.0,0.0,0.0,0.0,0.0,0.0,0.0,0.0,0.9567,0.0,0.8345,0.6411,0.4856,0.3789,0.0,0.0,0.0,0.0,0.0,0.0,0.0,0.0,0.0,0.0,0.0,0.0,0.0,0.0,0.0,0.0,0.0,0.0,0.0,0.0,0.0,0.0,0.0,0.0,0.0,0.0,0.0,0.0,0.0,0.0,0.0,0.0,0.0,0.0,0.0,0.0,0.0,0.0,0.0,0.0,0.0,0.0,0.0,0.0,0.0,0.0,0.0,0.0,0.0,0.0,0.0,0.0,0.0,0.0,0.0,0.0,0.0,0.0,0.0,0.0,0.0,0.0,0.0,0.0,0.0,0.0,0.0,0.0,0.0,0.0,0.0,0.0,0.0,0.0,0.0,0.0,0.0,0.0,0.0,0.0,0.0,0.0,0.0,0.0,0.0,0.0,0.0,0.0,0.0,0.0,0.0,0.0,0.0,0.0,0.0,0.0,0.0,0.0,0.0,0.0,0.0,0.0,0.0,0.0,0.0,0.0,0.0,0.0,0.0,0.9252,0.784,0.6779,0.5233,0.4225,0.0,0.0,0.0,0.0,0.0,0.0,0.0,0.0,0.0,0.0,0.0,0.0,0.0,0.0,0.0,0.0,0.0,0.0,0.0,0.0,0.0,0.0,0.0,0.0,0.0,0.0,0.0,0.0,0.0,0.0,0.0,0.0,0.0,0.0,0.0,0.0,0.0,0.0,0.0,0.0,0.0,0.0,0.0,0.0,0.0,0.0,0.0,0.0,0.0,0.0,0.0,0.0,0.0,0.0,0.0,0.0,0.0,0.0,0.0,0.0,0.0,0.0,0.0,0.0,0.0,0.0,0.0,0.0,0.0,0.0,0.0,0.0,0.0,0.0,0.0,0.0,0.0,0.0,0.0,0.0,0.0,0.0,0.0,0.0,0.0,0.0,0.0,0.0,0.0,0.0,0.0,0.0,0.0,0.0,0.0,0.0,0.0,0.0,0.0,0.0,0.0,0.0,0.0,0.0,0.0,0.0,0.0,0.0,0.0,0.984,0.9127,0.8231,0.7125,0.5571,0.4411,0.0,0.0,0.0,0.0,0.0,0.0,0.0,0.0,0.0,0.0,0.0,0.0,0.0,0.0,0.0,0.0,0.0,0.0,0.0,0.0,0.0,0.0,0.0,0.0,0.0,0.0,0.0,0.0,0.0,0.0,0.0,0.0,0.0,0.0,0.0,0.0,0.0,0.0,0.0,0.0,0.0,0.0,0.0,0.0,0.0,0.0,0.0,0.0,0.0,0.0,0.0,0.0,0.0,0.0,0.0,0.0,0.0,0.0,0.0,0.0,0.0,0.0,0.0,0.0,0.0,0.0,0.0,0.0,0.0,0.0,0.0,0.0,0.0,0.0,0.0,0.0,0.0,0.0,0.0,0.0,0.0,0.0,0.0,0.0,0.0,0.0,0.0,0.0,0.0,0.0,0.0,0.0,0.0,0.0,0.0,0.0,0.0,0.0,0.0,0.0,0.0,0.0,0.0,0.0,0.0,0.0,0.0,0.0,0.0,0.8727,0.0,0.8211,0.0,0.5514,0.4328,0.0,0.0,0.0,0.0,0.0,0.0,0.0,0.0,0.0,0.0,0.0,0.0,0.0,0.0,0.0,0.0,0.0,0.0,0.0,0.0,0.0,0.0,0.0,0.0,0.0,0.0,0.0,0.0,0.0,0.0,0.0,0.0,0.0,0.0,0.0,0.0,0.0,0.0,0.0,0.0,0.0,0.0,0.0,0.0,0.0,0.0,0.0,0.0,0.0,0.0,0.0,0.0,0.0,0.0,0.0,0.0,0.0,0.0,0.0,0.0,0.0,0.0,0.0,0.0,0.0,0.0,0.0,0.0,0.0,0.0,0.0,0.0,0.0,0.0,0.0,0.0,0.0,0.0,0.0,0.0,0.0,0.0,0.0,0.0,0.0,0.0,0.0,0.0,0.0,0.0,0.0,0.0,0.0,0.0,0.0,0.0,0.0,0.0,0.0,0.0,0.0,0.0,0.0,0.0,0.0,0.0,0.0,0.0,0.0,0.77,0.8088,0.7619,0.6065,0.495,0.3823,0.0,0.0,0.0,0.0,0.0,0.0,0.0,0.0,0.0,0.0,0.0,0.0,0.0,0.0,0.0,0.0,0.0,0.0,0.0,0.0,0.0,0.0,0.0,0.0,0.0,0.0,0.0,0.0,0.0,0.0,0.0,0.0,0.0,0.0,0.0,0.0,0.0,0.0,0.0,0.0,0.0,0.0,0.0,0.0,0.0,0.0,0.0,0.0,0.0,0.0,0.0,0.0,0.0,0.0,0.0,0.0,0.0,0.0,0.0,0.0,0.0,0.0,0.0,0.0,0.0,0.0,0.0,0.0,0.0,0.0,0.0,0.0,0.0,0.0,0.0,0.0,0.0,0.0,0.0,0.0,0.0,0.0,0.0,0.0,0.0,0.0,0.0,0.0,0.0,0.0,0.0,0.0,0.0,0.0,0.0,0.0,0.0,0.0,0.0,0.0,0.0,0.0,0.0,0.0,0.0,0.0,0.0,0.0,0.0,0.7116,0.7408,0.7091,0.6057,0.4576,0.3489,0.0,0.0,0.0,0.0,0.0,0.0,0.0,0.0,0.0,0.0,0.0,0.0,0.0,0.0,0.0,0.0,0.0,0.0,0.0,0.0,0.0,0.0,0.0,0.0,0.0,0.0,0.0,0.0,0.0,0.0,0.0,0.0,0.0,0.0,0.0,0.0,0.0,0.0,0.0,0.0,0.0,0.0,0.0,0.0,0.0,0.0,0.0,0.0,0.0,0.0,0.0,0.0,0.0,0.0,0.0,0.0,0.0,0.0,0.0,0.0,0.0,0.0,0.0,0.0,0.0,0.0,0.0,0.0,0.0,0.0,0.0,0.0,0.0,0.0,0.0,0.0,0.0,0.0,0.0,0.0,0.0,0.0,0.0,0.0,0.0,0.0,0.0,0.0,0.0,0.0,0.0,0.0,0.0,0.0,0.0,0.0,0.0,0.0,0.0,0.0,0.0,0.0,0.0,0.0,0.0,0.0,0.0,0.0,0.0,0.6721,0.6855,0.6502,0.5659,0.4295,0.3239,0.2441,0.0,0.0,0.0,0.0,0.0,0.0,0.0,0.0,0.0,0.0,0.0,0.0,0.0,0.0,0.0,0.0,0.0,0.0,0.0,0.0,0.0,0.0,0.0,0.0,0.0,0.0,0.0,0.0,0.0,0.0,0.0,0.0,0.0,0.0,0.0,0.0,0.0,0.0,0.0,0.0,0.0,0.0,0.0,0.0,0.0,0.0,0.0,0.0,0.0,0.0,0.0,0.0,0.0,0.0,0.0,0.0,0.0,0.0,0.0,0.0,0.0,0.0,0.0,0.0,0.0,0.0,0.0,0.0,0.0,0.0,0.0,0.0,0.0,0.0,0.0,0.0,0.0,0.0,0.0,0.0,0.0,0.0,0.0,0.0,0.0,0.0,0.0,0.0,0.0,0.0,0.0,0.0,0.0,0.0,0.0,0.0,0.0,0.0,0.0,0.0,0.0,0.0,0.0,0.0,0.0,0.0,0.0,0.0,0.6499,0.6375,0.5865,0.4967,0.4061,0.3034,0.0,0.0,0.0,0.0,0.0,0.0,0.0,0.0,0.0,0.0,0.0,0.0,0.0,0.0,0.0,0.0,0.0,0.0,0.0,0.0,0.0,0.0,0.0,0.0,0.0,0.0,0.0,0.0,0.0,0.0,0.0,0.0,0.0,0.0,0.0,0.0,0.0,0.0,0.0,0.0,0.0,0.0,0.0,0.0,0.0,0.0,0.0,0.0,0.0,0.0,0.0,0.0,0.0,0.0,0.0,0.0,0.0,0.0,0.0,0.0,0.0,0.0,0.0,0.0,0.0,0.0,0.0,0.0,0.0,0.0,0.0,0.0,0.0,0.0,0.0,0.0,0.0,0.0,0.0,0.0,0.0,0.0,0.0,0.0,0.0,0.0,0.0,0.0,0.0,0.0,0.0,0.0,0.0,0.0,0.0,0.0,0.0,0.0,0.0,0.0,0.0,0.0,0.0,0.0,0.0,0.0,0.0,0.0,0.0,0.6302,0.5682,0.5262,0.515,0.3451,0.2307,0.0,0.0,0.0,0.0,0.0,0.0,0.0,0.0,0.0,0.0,0.0,0.0,0.0,0.0,0.0,0.0,0.0,0.0,0.0,0.0,0.0,0.0,0.0,0.0,0.0,0.0,0.0,0.0,0.0,0.0,0.0,0.0,0.0,0.0,0.0,0.0,0.0,0.0,0.0,0.0,0.0,0.0,0.0,0.0,0.0,0.0,0.0,0.0,0.0,0.0,0.0,0.0,0.0,0.0,0.0,0.0,0.0,0.0,0.0,0.0,0.0,0.0,0.0,0.0,0.0,0.0,0.0,0.0,0.0,0.0,0.0,0.0,0.0,0.0,0.0,0.0,0.0,0.0,0.0,0.0,0.0,0.0,0.0,0.0,0.0,0.0,0.0,0.0,0.0,0.0,0.0,0.0,0.0,0.0,0.0,0.0,0.0,0.0,0.0,0.0,0.0,0.0,0.0,0.0,0.0,0.0,0.0,0.0,0.5974,0.6287,0.5174,0.4671,0.4869,0.3203,0.2145,0.0,0.0,0.0,0.0,0.0,0.0,0.0,0.0,0.0,0.0,0.0,0.0,0.0,0.0,0.0,0.0,0.0,0.0,0.0,0.0,0.0,0.0,0.0,0.0,0.0,0.0,0.0,0.0,0.0,0.0,0.0,0.0,0.0,0.0,0.0,0.0,0.0,0.0,0.0,0.0,0.0,0.0,0.0,0.0,0.0,0.0,0.0,0.0,0.0,0.0,0.0,0.0,0.0,0.0,0.0,0.0,0.0,0.0,0.0,0.0,0.0,0.0,0.0,0.0,0.0,0.0,0.0,0.0,0.0,0.0,0.0,0.0,0.0,0.0,0.0,0.0,0.0,0.0,0.0,0.0,0.0,0.0,0.0,0.0,0.0,0.0,0.0,0.0,0.0,0.0,0.0,0.0,0.0,0.0,0.0,0.0,0.0,0.0,0.0,0.0,0.0,0.0,0.0,0.0,0.0,0.0,0.0,0.0,0.6113,0.6316,0.489,0.4176,0.4253,0.3119,0.22,0.0,0.0,0.0,0.0,0.0,0.0,0.0,0.0,0.0,0.0,0.0,0.0,0.0,0.0,0.0,0.0,0.0,0.0,0.0,0.0,0.0,0.0,0.0,0.0,0.0,0.0,0.0,0.0,0.0,0.0,0.0,0.0,0.0,0.0,0.0,0.0,0.0,0.0,0.0,0.0,0.0,0.0,0.0,0.0,0.0,0.0,0.0,0.0,0.0,0.0,0.0,0.0,0.0,0.0,0.0,0.0,0.0,0.0,0.0,0.0,0.0,0.0,0.0,0.0,0.0,0.0,0.0,0.0,0.0,0.0,0.0,0.0,0.0,0.0,0.0,0.0,0.0,0.0,0.0,0.0,0.0,0.0,0.0,0.0,0.0,0.0,0.0,0.0,0.0,0.0,0.0,0.0,0.0,0.0,0.0,0.0,0.0,0.0,0.0,0.0,0.0,0.0,0.0,0.0,0.0,0.0,0.0,0.0,0.617,0.6485,0.5106,0.4325,0.43,0.2749,0.1831,0.0,0.0,0.0,0.0,0.0,0.0,0.0,0.0,0.0,0.0,0.0,0.0,0.0,0.0,0.0,0.0,0.0,0.0,0.0,0.0,0.0,0.0,0.0,0.0,0.0,0.0,0.0,0.0,0.0,0.0,0.0,0.0,0.0,0.0,0.0,0.0,0.0,0.0,0.0,0.0,0.0,0.0,0.0,0.0,0.0,0.0,0.0,0.0,0.1439,0.0,0.0,0.0,0.0,0.0,0.0,0.0,0.0,0.0,0.0,0.0,0.0,0.0,0.0,0.0,0.0,0.0,0.0,0.0,0.0,0.0,0.0,0.0,0.0,0.0,0.0,0.0,0.0,0.0,0.0,0.0,0.0,0.0,0.0,0.0,0.0,0.0,0.0,0.0,0.0,0.0,0.0,0.0,0.0,0.0,0.0,0.0,0.0,0.0,0.0,0.0,0.0,0.0,0.0,0.0,0.0,0.0,0.0,0.0,0.619,0.6284,0.506,0.4395,0.4292,0.282,0.1948,0.0,0.0,0.0,0.0,0.0,0.0,0.0,0.0,0.0,0.0,0.0,0.0,0.0,0.0,0.0,0.0,0.0,0.0,0.0,0.0,0.0,0.0,0.0,0.0,0.0,0.0,0.0,0.0,0.0,0.0,0.0,0.0,0.0,0.0,0.0,0.0,0.0,0.0,0.0,0.0,0.0,0.0,0.0,0.0,0.0,0.0,0.0,0.0,0.0,0.0,0.0,0.0,0.0,0.0,0.0,0.0,0.0,0.0,0.0,0.0,0.0,0.0,0.0,0.0,0.0,0.0,0.0,0.0,0.0,0.0,0.0,0.0,0.0,0.0,0.0,0.0,0.0,0.0,0.0,0.0,0.0,0.0,0.0,0.0,0.0,0.0,0.0,0.0,0.0,0.0,0.0,0.0,0.0,0.0,0.0,0.0,0.0,0.0,0.0,0.0,0.0,0.0,0.0,0.0,0.0,0.0,0.0,0.5937,0.6167,0.6023,0.5013,0.444,0.4382,0.303,0.2252,0.0,0.0,0.0,0.0,0.0,0.0,0.0,0.0,0.0,0.0,0.0,0.0,0.0,0.0,0.0,0.0,0.0,0.0,0.0,0.0,0.0,0.0,0.0,0.0,0.0,0.0,0.0,0.0,0.0,0.0,0.0,0.0,0.0,0.0,0.0,0.0,0.0,0.0,0.0,0.1774,0.0943,0.0,0.0,0.0,0.0,0.0,0.0,0.0,0.0,0.0796,0.0,0.0,0.0,0.0,0.0,0.0,0.0,0.0,0.0,0.0,0.0,0.0,0.0,0.0,0.0,0.0,0.0,0.0,0.0,0.0,0.0,0.0,0.0,0.0,0.0,0.0,0.0,0.0,0.0,0.0,0.0,0.0,0.0,0.0,0.0,0.0,0.0,0.0,0.0,0.0,0.0,0.0,0.0,0.0,0.0,0.0,0.0,0.0,0.0,0.0,0.0,0.0,0.0,0.0,0.0,0.0,0.5542,0.5892,0.6139,0.622,0.5136,0.4517,0.4382,0.303,0.2289,0.23,0.0,0.0,0.0,0.0,0.0,0.0,0.0,0.0,0.0,0.0,0.0,0.0,0.0,0.0,0.0,0.0,0.0,0.0,0.0,0.0,0.0,0.0,0.0,0.0,0.0,0.0,0.0,0.0,0.0,0.0,0.0,0.0,0.0,0.0,0.0,0.0,0.0,0.0,0.0,0.0339,0.014,0.0,0.0,0.0,0.0,0.0,0.0,0.0,0.0,0.0897,0.0,0.0,0.0,0.0,0.0,0.0,0.0,0.0,0.0,0.0,0.0,0.0,0.0,0.0,0.0,0.0,0.0,0.0,0.0,0.0,0.0,0.0,0.0,0.0,0.0,0.0,0.0,0.0,0.0,0.0,0.0,0.0,0.0,0.0,0.0,0.0,0.0,0.0,0.0,0.0,0.0,0.0,0.0,0.0,0.0,0.0,0.0,0.0,0.0,0.0,0.0,0.0,0.0,0.0,0.0,0.5583,0.5959,0.6066,0.5814,0.5042,0.4397,0.3947,0.2712,0.2115,0.0,0.0,0.0,0.0,0.0,0.0,0.0,0.0,0.0,0.0,0.0,0.0,0.0,0.0,0.0,0.0,0.0,0.0,0.0,0.0,0.0,0.0,0.0,0.0,0.0,0.0,0.0,0.0,0.0,0.0,0.0,0.0,0.0,0.0,0.0,0.0,0.0,0.0,0.0,0.0,0.0103,0.007,0.0207,0.0,0.0,0.0,0.0,0.0,0.0,0.1218,0.0969,0.0,0.0,0.0,0.0,0.0,0.0,0.0,0.0,0.0,0.0,0.0,0.0,0.0,0.0,0.0,0.0,0.0,0.0,0.0,0.0,0.0,0.0,0.0,0.0,0.0,0.0,0.0,0.0,0.0,0.0,0.0,0.0,0.0,0.0,0.0,0.0,0.0,0.0,0.0,0.0,0.0,0.0,0.0,0.0,0.0,0.0,0.0,0.0,0.0,0.0,0.0,0.0,0.0,0.0,0.0,0.5454,0.6023,0.6002,0.5264,0.4763,0.4115,0.3243,0.2237,0.1819,0.0,0.0,0.0,0.0,0.0,0.0,0.0,0.0,0.0,0.0,0.0,0.0,0.0,0.0,0.0,0.0,0.0,0.0,0.0,0.0,0.0,0.0,0.0,0.0,0.0,0.0,0.0,0.0,0.0,0.0,0.0,0.0,0.0,0.0,0.0,0.0,0.0,0.0,0.0,0.0,0.0,0.014,0.0105,0.0694,0.0,0.0,0.0,0.0,0.1224,0.1191,0.0,0.0,0.0,0.0,0.0,0.0,0.0,0.0,0.0,0.0,0.0,0.0,0.0,0.0,0.0,0.0,0.0,0.0,0.0,0.0,0.0,0.0,0.0,0.0,0.0,0.0,0.0,0.0,0.0,0.0,0.0,0.0,0.0,0.0,0.0,0.0,0.0,0.0,0.0,0.0,0.0,0.0,0.0,0.0,0.0,0.0,0.0,0.0,0.0,0.0,0.0,0.0,0.0,0.0,0.0,0.0,0.4899,0.5924,0.5934,0.4862,0.4456,0.3635,0.239,0.1666,0.1298,0.0,0.0,0.0,0.0,0.0,0.0,0.0,0.0,0.0,0.0,0.0,0.0,0.0,0.0,0.0,0.0,0.0,0.0,0.0,0.0,0.0,0.0,0.0,0.0,0.0,0.0,0.0,0.0,0.0,0.0,0.0,0.0,0.0,0.0,0.0,0.0,0.0,0.0,0.0,0.0,0.0,0.0566,0.0459,0.1164,0.1707,0.0,0.0,0.0,0.1307,0.1236,0.0,0.0,0.0,0.0,0.0,0.0,0.0,0.0,0.0,0.0,0.0,0.0,0.0,0.0,0.0,0.0,0.0,0.0,0.0,0.0,0.0,0.0,0.0,0.0,0.0,0.0,0.0,0.0,0.0,0.0,0.0,0.0,0.0,0.0,0.0,0.0,0.0,0.0,0.0,0.0,0.0,0.0,0.0,0.0,0.0,0.0,0.0,0.0,0.0,0.0,0.0,0.0,0.0,0.0,0.0,0.0,0.4458,0.4875,0.4625,0.3761,0.3378,0.2695,0.1704,0.1136,0.0972,0.0,0.0,0.0,0.0,0.0,0.0,0.0,0.0,0.0,0.0,0.0,0.0,0.0,0.0,0.0,0.0,0.0,0.0,0.0,0.0,0.0,0.0,0.0,0.0,0.0,0.0,0.0,0.0,0.0,0.0,0.0,0.0,0.0,0.0,0.0,0.0,0.0,0.0,0.0,0.0,0.0,0.0,0.0229,0.0646,0.0,0.0,0.0,0.1454,0.0906,0.0,0.0,0.0,0.0,0.0,0.0,0.0,0.0,0.0,0.0,0.0,0.0,0.0,0.0,0.0,0.0,0.0,0.0,0.0,0.0,0.0,0.0,0.0,0.0,0.0,0.0,0.0,0.0,0.0,0.0,0.0,0.0,0.0,0.0,0.0,0.0,0.0,0.0,0.0,0.0,0.0,0.0,0.0,0.0,0.0,0.0,0.0,0.0,0.0,0.0,0.0,0.0,0.0,0.0,0.0,0.0,0.0,0.4,0.4008,0.3606,0.2853,0.2433,0.1826,0.1015,0.0644,0.0,0.0,0.0,0.0,0.0,0.0,0.0,0.0,0.0,0.0,0.0,0.0,0.0,0.0,0.0,0.0,0.0,0.0,0.0,0.0,0.0,0.0,0.0,0.0,0.0,0.0,0.0,0.0,0.0,0.0,0.0,0.0,0.0,0.0,0.0,0.0,0.0,0.0,0.0,0.0,0.0,0.0,-0.0228,-0.0525,-0.008,0.0281,0.0,0.0,0.099,0.06,0.0593,0.0447,0.0,0.0,0.0,0.0,0.0,0.0,0.0,0.0,0.0,0.0,0.0,0.0,0.0,0.0,0.0,0.0,0.0,0.0,0.0,0.0,0.0,0.0,0.0,0.0,0.0,0.0,0.0,0.0,0.0,0.0,0.0,0.0,0.0,0.0,0.0,0.0,0.0,0.0,0.0,0.0,0.0,0.0,0.0,0.0,0.0,0.0,0.0,0.0,0.0,0.0,0.0,0.0,0.0,0.0,0.0,0.3434,0.3808,0.3437,0.239,0.2012,0.1287,0.0163,0.0,0.0,0.0,0.0,0.0,0.0,0.0,0.0,0.0,0.0,0.0,0.0,0.0,0.0,0.0,0.0,0.0,0.0,0.0,0.0,0.0,0.0,0.0,0.0,0.0,0.0,0.0,0.0,0.0,0.0,0.0,0.0,0.0,0.0,0.0,0.0,0.0,0.0,0.0,0.0,0.0,0.0,0.0,-0.0866,-0.1984,-0.0882,-0.0087,0.0,0.0,0.1121,0.0733,0.071,0.046,-0.0506,0.0,0.0,0.0,0.0,0.0,0.0,0.0,0.0,0.0,0.0,0.0,0.0,0.0,0.0,0.0,0.0,0.0,0.0,0.0,0.0,0.0,0.0,0.0,0.0,0.0,0.0,0.0,0.0,0.0,0.0,0.0,0.0,0.0,0.0,0.0,0.0,0.0,0.0,0.0,0.0,0.0,0.0,0.0,0.0,0.0,0.0,0.0,0.0,0.0,0.0,0.0,0.0,0.0,0.2655,0.2818,0.2532,0.2141,0.1721,0.105,0.0455,0.0,0.0,0.0,0.0,0.0,0.0,0.0,0.0,0.0,0.0,0.0,0.0,0.0,0.0,0.0,0.0,0.0,0.0,0.0,0.0,0.0,0.0,0.0,0.0,0.0,0.0,0.0,0.0,0.0,0.0,0.0,0.2449,0.2031,0.1685,0.0,0.0,0.0,0.0,0.0,0.0,0.0,0.0,0.0,0.0,-0.1784,-0.2234,-0.1815,0.0,0.0,-0.0936,-0.0703,0.0143,-0.0559,-0.1109,-0.086,-0.1139,0.0,0.0,0.0,0.0,0.0,0.0,0.0,0.0,0.0,0.0,0.0,0.0,0.0,0.0,0.0,0.0,0.0,0.0,0.0,0.0,0.0,0.0,0.0,0.0,0.0,0.0,0.0,0.0,0.0,0.0,0.0,0.0,0.0,0.0,0.0,0.0,0.0,0.0,0.0,0.0,0.0,0.0,0.0,0.0,0.0,0.0,0.0,0.0,0.0,0.0,0.0,0.0,0.2097,0.2272,0.1643,0.1265,0.1188,0.0422,0.0,0.0,0.0,0.0,0.0,0.0,0.0,0.0,0.0,0.0,0.0,0.0,0.0,0.0,0.0,0.0,0.0,0.0,0.0,0.0,0.0,0.0,0.0,0.0,0.0,0.0,0.0,0.0,0.0,0.0,0.0,0.0,0.202,0.1229,0.0182,0.0,0.0,0.0,0.0,0.0,0.0,0.0,0.0,0.0,0.0,-0.3188,-0.3368,-0.3263,-0.2949,-0.2375,-0.2497,-0.2301,-0.1144,-0.2012,-0.2565,-0.1742,0.0,0.0,0.0,0.0,0.0,0.0,0.0,0.0,0.0,0.0,0.0,0.0,0.0,0.0,0.0,0.0,0.0,0.0,0.0,0.0,0.0,0.0,0.0,0.0,0.0,0.0,0.0,0.0,0.0,0.0,0.0,0.0,0.0,0.0,0.0,0.0,0.0,0.0,0.0,0.0,0.0,0.0,0.0,0.0,0.0,0.0,0.0,0.0,0.0,0.0,0.0,0.0,0.0,0.0,0.1801,0.1437,0.1104,0.0736,0.0213,0.0,0.0,0.0,0.0,0.0,0.0,0.0,0.0,0.0,0.0,0.0,0.0,0.0,0.0,0.0,0.0,0.0,0.0,0.0,0.0,0.0,0.0,0.0,0.0,0.0,0.0,0.0,0.0,0.0,0.0,0.0,0.2157,0.1145,-0.0218,0.0,0.0,0.0,0.0,0.0,0.0,0.0,0.0,0.0,0.0,-0.5257,-0.5146,-0.5684,-0.5342,-0.4843,-0.4707,-0.3913,-0.3275,-0.3192,-0.3409,-0.3512,0.0,0.0,0.0,0.0,0.0,0.0,0.0,0.0,0.0,0.0,0.0,0.0,0.0,0.0,0.0,0.0,0.0,0.0,0.0,0.0,0.0,0.0,0.0,0.0,0.0,0.0,0.0,0.0,0.1451,0.0,0.0,0.0,0.0,0.0,0.0,0.0,0.0,0.0,0.0,0.0,-0.071,-0.0222,0.0,0.0,0.0,0.0,0.0,0.0,0.0,0.0,0.0,0.0,0.0,0.0,0.1359,0.1452,0.1042,0.056,0.0,-0.0474,-0.0981,-0.143,-0.1458,-0.1142,-0.0485,0.0,0.0,0.0,0.0,0.0,0.0,0.0,0.0,0.0,0.0,0.0,0.0,0.0,0.0,0.0,0.0,0.0,0.0,0.0,0.0,0.0,0.0,0.0,0.0,0.0,0.1353,0.0,0.0,0.0,0.0,0.0,0.0,0.0,0.0,0.0,0.0,0.0,-0.473,-0.5607,-0.5673,-0.5705,-0.6002,-0.5886,-0.562,0.0,0.0,0.0,0.0,0.0,0.0,0.0,0.0,0.0,0.0,0.0,0.0,0.0,0.0,0.0,-0.0232,-0.0111,-0.0037,-0.0221,0.0,0.0,0.0,0.0,0.0,0.0,0.0,0.0,0.0,0.0,0.0,0.0,0.0,0.0,0.0,0.0,-0.0641,0.0,0.0,0.0,0.0,0.0,0.0,0.0,0.0,-0.2756,-0.2387,-0.1945,-0.1467,-0.1171,0.0,-0.1154,-0.106,0.0,0.0,0.0,0.0,0.0,0.0,0.0,0.0,0.0795,0.0358,0.0255,-0.0219,-0.1009,-0.136,-0.1744,-0.2193,-0.2155,-0.1827,-0.1125,-0.1421,-0.1191,0.0,0.0,0.0,0.0,0.0,0.0,0.0,0.0,0.0,0.0,0.0,0.0,0.0,0.0,0.0,0.0,0.0,0.0,0.0,0.0,0.0,0.0,0.0,0.0403,0.0,0.0,0.0,0.0,0.0,0.0,0.0,0.0,0.0,-0.498,-0.5255,-0.5714,-0.6231,-0.6568,-0.6731,-0.6635,0.0,0.0,0.0,0.0,0.0,0.0,0.0,-0.6198,-0.5192,-0.5395,-0.5431,-0.4608,-0.3967,-0.3574,-0.3655,0.0,0.0,-0.1608,-0.1258,-0.1003,-0.0885,-0.0173,0.0308,0.0044,0.0453,0.0651,0.0,0.0,0.0,0.0,0.0,0.0,0.0,0.0,-0.1138,-0.1892,0.0,-0.2985,0.0,0.0,0.0,0.0,0.0,0.0,0.0,0.0,-0.4408,-0.428,-0.3635,-0.359,-0.3341,-0.2931,-0.2237,-0.2023,-0.2228,-0.2388,0.0,0.0,0.0,0.0,0.0,0.0,-0.0194,-0.1504,-0.0999,-0.1211,-0.224,-0.2374,-0.2374,-0.2367,-0.2189,-0.207,-0.1971,-0.1985,-0.1872,-0.168,-0.1654,0.0,0.0,0.0,0.0,0.0,0.0,0.0,0.0,0.0,0.0,0.0,0.0,0.0,0.0,0.0,0.0,0.0,0.0,0.0,0.0,-0.0137,0.0,0.0,0.0,0.0,0.0,0.0,0.0,0.0,0.0,0.0,-0.5921,-0.6168,-0.6672,-0.7462,0.0,0.0,0.0,0.0,-0.8355,-0.7725,-0.7499,-0.7465,-0.756,-0.7675,-0.7611,-0.714,0.0,0.0,-0.4934,-0.4914,-0.5163,-0.5473,-0.5233,-0.4434,-0.2484,-0.2069,-0.1864,-0.1497,-0.1024,-0.053,-0.0147,0.0249,0.0506,-0.375,0.0,0.0,0.0,0.0,-0.321,-0.3169,-0.2807,-0.2807,-0.3124,-0.366,-0.3917,0.0,0.0,0.0,0.0,0.0,0.0,-0.5428,-0.5664,-0.5024,-0.4739,-0.4634,-0.4138,-0.3792,-0.3691,-0.3811,-0.3702,-0.3421,-0.3769,-0.3141,-0.1627,0.0,0.0,0.0,0.0,-0.2181,-0.2951,-0.2922,-0.329,-0.4116,-0.4162,-0.4314,-0.4694,-0.418,-0.373,-0.3259,-0.315,-0.2694,-0.1754,-0.2332,0.0,0.0,0.0,0.0,0.0,0.0,0.0,0.0,0.0,0.0,0.0,0.0,0.0,0.0,0.0,0.0,0.0,0.0,0.0,-0.0963,-0.1028,-0.169,0.0,0.0,0.0,0.0,0.0,0.0,0.0,0.0,0.0,-0.8569,-0.8548,-0.9024,0.0,0.0,-0.9347,-0.8881,-0.8957,-0.8822,-0.8211,0.0,0.0,0.0,-0.7929,-0.7687,-0.7444,-0.7131,-0.681,-0.6478,-0.6555,-0.6591,-0.6698,-0.6662,-0.6248,-0.5213,-0.407,-0.3278,-0.3031,-0.2235,-0.1368,-0.1007,-0.0484,-0.0054,-0.7302,-0.57,-0.5661,-0.5257,-0.4761,-0.5772,-0.562,-0.4713,-0.4993,-0.5317,-0.5631,-0.5457,-0.5574,-0.5924,-0.5925,0.0,0.0,0.0,-0.6447,-0.678,-0.6204,-0.5985,-0.6023,-0.5648,-0.5331,-0.5174,-0.5156,-0.5018,-0.4812,-0.4751,-0.435,-0.3496,0.0,0.0,-0.3075,-0.3079,-0.3483,-0.4335,-0.4261,-0.4562,-0.5303,-0.5303,-0.5413,-0.5613,-0.5212,-0.4773,-0.4378,-0.4066,-0.3548,-0.2791,-0.3027,-0.3025,0.0,0.0,0.0,0.0,0.0,0.0,0.0,0.0,0.0,0.0,0.0,-0.1375,0.0,0.0,0.0,0.0,-0.1629,-0.1791,-0.1926,-0.2469,0.0,0.0,0.0,0.0,0.0,0.0,0.0,-0.8499,-0.9779,-1.0934,-1.1894,-1.2071,-1.1916,-1.1462,-1.1005,-1.0599,-1.0214,0.0,-0.9452,-0.8988,-0.8612,-0.8377,-0.8435,-0.8292,-0.8044,-0.7753,-0.7537,-0.7339,-0.7193,-0.721,-0.7265,-0.7432,-0.7379,-0.7099,-0.671,-0.5615,-0.4543,-0.4011,-0.326,-0.2424,-0.149,-0.1002,-0.0616,-1.0858,-1.0271,-0.8732,-0.765,-0.7027,-0.8572,-0.8363,-0.7048,-0.7616,-0.8165,-0.8579,-0.7503,-0.7633,-0.8619,-0.7511,0.0,0.0,-0.7265,-0.7455,-0.7657,-0.771,-0.7729,-0.7725,-0.7732,-0.7493,-0.6966,-0.6283,-0.6089,-0.6233,-0.5547,-0.5398,-0.5877,-0.4649,-0.4057,-0.4123,-0.4008,-0.4605,-0.5881,-0.5393,-0.545,-0.6087,-0.6084,-0.6017,-0.5918,-0.5689,-0.5561,-0.5402,-0.4836,-0.4524,-0.4485,-0.3893,-0.363,-0.3774,0.0,0.0,0.0,0.0,0.0,0.0,0.0,0.0,0.0,0.0,0.0,0.0,0.0,0.0,0.0,-0.2481,0.0,-0.2846,-0.4267,0.0,0.0,0.0,-0.7398,-0.7798,-0.8631,-0.9407,-1.0182,0.0,0.0,0.0,0.0,-1.5233,-1.1947,-1.1926,-1.2072,-1.1811,-1.1222,-1.0525,-1.0115,-0.9294,-0.8726,-0.8904,-0.8753,-0.8622,-0.831,-0.81,-0.7928,-0.7654,-0.7432,-0.7601,-0.7989,-0.7657,-0.7265,-0.721,-0.6692,-0.5926,-0.4411,-0.4081,-0.358,-0.2071,-0.1625,-0.1401,-1.1423,-1.1298,-1.1544,-1.0997,-1.0051,-1.0455,-1.0382,-1.0053,-1.0226,-1.0179,-0.9989,-0.9713,-0.9599,-0.9653,-0.974,-0.9603,-0.9427,-0.9222,-0.9341,-0.9623,-0.9081,-0.8807,-0.8807,-0.8803,-0.8468,-0.773,-0.7472,-0.718,-0.6885,-0.657,-0.6354,-0.618,-0.6742,-0.6986,-0.6847,-0.6848,-0.7474,-0.8641,-0.8123,-0.7845,-0.778,-0.7822,-0.799,-0.8344,-0.7701,-0.736,-0.7319,-0.6176,-0.5743,-0.6084,-0.5364,-0.5082,-0.5491,-0.5199,0.0,0.0,0.0,0.0,0.0,0.0,0.0,0.0,0.0,-0.3149,-0.2288,0.0,-0.4125,0.0,-0.3791,-0.4397,-0.5198,-0.5578,0.0,0.0,-0.7971,-0.8423,-1.06,-1.0472,-1.1084,-1.3371,-1.4521,-1.5619,-1.6899,-1.7849,-1.8008,-1.6957,-1.5997,-1.5081,-1.4322,-1.3952,-1.3295,-1.1921,-1.1033,-1.0345,-0.9898,-0.9267,-0.9054,-0.9588,-0.9154,-0.8881,-0.9372,-0.893,-0.8546,-0.866,-0.8605,-0.8159,-0.7379,-0.7099,-0.6543,-0.5377,-0.51,-0.4761,-0.3583,-0.3304,-0.308,-1.3516,-1.3565,-1.4062,-1.3848,-1.3184,-1.2973,-1.224,-1.1389,-1.2183,-1.2267,-1.1834,-1.1988,-1.1766,-1.1259,-1.154,-1.1512,-1.1368,-1.1077,-1.1056,-1.1262,-1.0677,-1.0288,-1.0096,-1.0096,-0.976,-0.9072,-0.8637,-0.8492,-0.8533,-0.8356,-0.8305,-0.8446,-0.9351,-0.9909,-1.0113,-0.9496,-0.9474,-1.0072,-0.9993,-0.9723,-0.9313,-0.9218,-0.9265,-0.9323,-0.8846,-0.8486,-0.8281,-0.7257,-0.6734,-0.6718,-0.6054,-0.5856,-0.625,-0.6002,-0.5787,0.0,0.0,0.0,0.0,0.0,0.0,0.0,0.0,0.0,0.0,0.0,-0.4775,0.0,0.0,0.0,-0.6548,-0.7343,-0.8611,-1.0433,-1.0243,-1.0815,-1.2846,-1.3246,-1.4021,-1.5772,-1.7306,-1.8601,-1.9526,-2.0671,-2.1329,-2.0989,-2.0444,-1.9285,-1.7373,-1.6364,-1.548,-1.4757,-1.3522,-1.2389,-1.1705,-1.095,-1.0625,-1.0954,-1.0194,-0.9651,-1.0084,-0.9485,-0.8937,-0.8937,-0.8937,-0.8605,-0.7768,-0.7376,-0.6877,-0.61,-0.5547,-0.5043,-0.4199,-0.3974,-0.3751,-1.5885,-1.5885,-1.5885,-1.5885,-1.5891,-1.5405,-1.4062,-1.2259,-1.3874,-1.424,-1.3677,-1.4008,-1.3789,-1.3125,-1.3171,-1.3176,-1.3104,-1.2864,-1.2725,-1.2715,-1.2369,-1.1982,-1.1545,-1.1545,-1.1241,-1.0641,-0.9941,-0.9933,-1.0556,-1.0346,-1.0583,-1.1317,-1.1804,-1.2387,-1.3006,-1.1853,-1.1179,-1.0964,-1.1303,-1.1172,-1.0602,-1.0508,-1.026,-0.9887,-0.9676,-0.9359,-0.8899,-0.8259,-0.7706,-0.7231,-0.6682,-0.6483,-0.6825,-0.6557,-0.6435,0.0,-0.6225,0.0,0.0,0.0,0.0,0.0,0.0,0.0,0.0,-0.5199,-0.5349,-0.5311,-0.659,-0.7492,-0.768,-0.9349,-1.0909,-1.2078,-1.2825,-1.3728,-1.4869,-1.6332,-1.7479,-1.8082,-2.0432,-2.2144,-2.2514,-2.3844,-2.449,-2.4116,-2.4224,-2.3442,-2.1173,-1.914,-1.8016,-1.8255,-1.6354,-1.466,-1.3826,-1.3097,-1.262,-1.2571,-1.1332,-1.0414,-1.0414,-0.9592,-0.8937,-0.8937,-0.8937,-0.8716,-0.81,-0.7543,-0.6988,-0.6376,-0.5822,-0.5156,-0.448,-0.4255,-0.3918,-1.5885,-1.5885,-1.5885,-1.5885,-1.5945,-1.6258,-1.5879,-1.5125,-1.5453,-1.5423,-1.5105,-1.4999,-1.488,-1.4779,-1.5133,-1.5083,-1.4722,-1.4449,-1.4482,-1.4651,-1.3931,-1.3556,-1.3454,-1.3454,-1.2949,-1.2079,-1.187,-1.1732,-1.1609,-1.156,-1.1609,-1.1799,-1.2533,-1.2926,0.0,0.0,0.0,0.0,-1.2354,-1.2089,-1.1771,-1.176,-1.1755,-1.1732,-1.1324,0.0,-1.0536,-0.949,-0.9093,-0.9424,-0.8655,0.0,0.0,0.0,0.0,0.0,0.0,0.0,0.0,0.0,0.0,0.0,-0.7381,-0.7078,-0.648,-0.7302,-0.7909,-0.7957,-0.8572,-0.9434,-1.0504,-1.1178,-1.2226,-1.3838,-1.4697,-1.5757,-1.7246,-1.8786,-2.0316,-2.2024,-2.3543,-2.4609,-2.5008,-2.5683,-2.6077,-2.5994,-2.6047,-2.5994,-2.5699,-2.3657,-2.2028,-2.0753,-1.8695,-1.6964,-1.6026,-1.5005,-1.4399,-1.4169,-1.2457,-1.1223,-1.1126,-0.9923,-0.8937,-0.8937,-0.8937,-0.8716,-0.8156,-0.7543,-0.7043,-0.6432,-0.5824,-0.5382,-0.5156,-0.5156,-0.51,-1.6736,0.0,-1.7147,-1.7094,0.0,-1.747,-1.7364,-1.6736,-1.673,-1.666,-1.652,-1.6426,-1.6362,-1.6413,-1.6626,-1.662,-1.6355,-1.61,-1.6043,-1.6151,-1.5594,-1.5172,-1.4931,-1.4931,-1.4556,-1.3763,-1.3236,-1.3122,-1.3242,-1.3023,-1.3065,-1.3511,-1.4136,-1.443,-1.4478,-1.5112,-1.5089,-1.4317,-1.4053,-1.3698,-1.3213,-1.3031,-1.285,-1.2661,0.0,0.0,0.0,0.0,0.0,0.0,0.0,0.0,0.0,0.0,0.0,-0.905,-0.8856,-0.8662,-0.8483,-0.822,-0.8157,-0.8436,-0.9138,-0.8998,-0.7841,-0.8315,-0.8918,-0.9496,-1.0289,-1.1389,-1.287,-1.3601,-1.475,-1.6587,-1.7351,-1.8381,-2.0111,-2.1527,-2.2936,-2.4441,-2.5856,-2.6867,-2.7337,-2.7905,-2.8112,-2.7964,-2.7827,-2.7783,-2.763,-2.6206,-2.447,-2.2989,-2.1659,-2.0333,-1.933,-1.8214,-1.7081,-1.6386,-1.4534,-1.2783,-1.1728,-1.0468,-0.9434,-0.9047,-0.8937,-0.8771,-0.8491,-0.7992,-0.7432,-0.6874,-0.6265,-0.5712,-0.5493,-0.5382,-0.5382,-1.8048,-1.8108,-1.8774,-1.867,-1.8101,-1.8617,-1.8408,-1.7786,0.0,0.0,0.0,-1.7589,-1.7589,-1.7589,-1.7589,-1.7589,-1.7569,-1.7387,-1.728,-1.7266,-1.6974,-1.6608,-1.6202,-1.6208,-1.5973,-1.5498,-1.4572,-1.443,-1.4924,-1.4503,-1.4567,-1.5213,-1.5594,-1.5825,-1.5825,-1.5825,-1.5825,-1.5818,-1.5598,-1.5147,-1.454,-1.4212,-1.3795,-1.3198,-1.2862,-1.2485,-1.2002,-1.1683,-1.1278,-1.0739,-1.029,-1.004,-1.0006,-0.9843,-0.9707,-0.9712,-0.9884,-0.9812,-0.9504,-0.9504,-0.9614,-0.988,-1.0982,-1.1015,-0.9564,-0.9564,-1.0124,-1.1208,-1.2264,-1.3626,-1.53,-1.6348,-1.7705,-1.9709,-2.0365,-2.1377,-2.3146,-2.445,-2.5573,-2.6683,-2.8022,-2.8952,-2.9332,-2.9756,-2.9961,-2.9549,-2.9223,-2.9064,-2.8558,-2.7368,-2.6097,-2.5063,-2.4161,-2.3551,-2.2742,-2.1421,-2.0281,-1.8803,-1.686,-1.4857,-1.3043,-1.1651,-1.0731,-1.0343,-0.975,-0.9537,-0.9316,-0.8761,-0.8097,-0.7432,-0.6877,-0.6318,-0.588,-0.5714,-0.5659,-1.9717,-1.9761,-1.9872,-1.9872,-1.9717,-1.9079,-1.8722,-1.8565,-1.7891,-1.7582,-1.7589,-1.7589,-1.7589,-1.7589,-1.7589,-1.7589,-1.7635,-1.7594,-1.7574,0.0,-1.7475,-1.7455,-1.7357,-1.735,-1.7224,-1.6921,-1.6485,-1.6216,-1.6064,-1.5678,-1.5588,-1.5689,-1.5784,-1.5825,-1.5825,-1.5825,-1.5825,-1.5825,-1.5738,-1.5578,-1.5245,-1.5199,-1.4781,-1.3977,-1.3617,-1.322,-1.2667,-1.2304,-1.2031,-1.1923,-1.1415,-1.1009,-1.0829,-1.0434,-1.0191,-1.0196,-1.0229,-1.0449,-1.0964,-1.1016,-1.1546,-1.2879,-1.3724,-1.3654,-1.2472,-1.2668,-1.3432,-1.4633,-1.5324,-1.6427,-1.8248,-1.9348,-2.0609,-2.2307,-2.3534,-2.4681,-2.5907,-2.7325,-2.8556,-2.9588,-3.0643,-3.0855,-3.0457,-3.0443,-3.0317,-2.987,-2.9689,-2.9507,-2.8928,-2.804,-2.7359,-2.7042,-2.6127,-2.5426,-2.4844,-2.3495,-2.2083,-2.1228,-1.9155,-1.7438,-1.6361,-1.5016,-1.4008,-1.3708,-1.2753,-1.1805,-1.1051,-0.9908,-0.9082,-0.826,-0.754,-0.7099,-0.6877,-0.6879,-0.6601,-2.0138,-2.0189,-2.0542,-2.0498,-2.0078,-1.9665,-1.9242,-1.8826,-1.893,-1.8938,-1.8885,-1.8468,-1.8513,-1.8885,-1.8468,-1.8258,-1.8251,-1.7793,-1.7589,-1.7589,-1.7589,-1.7589,-1.7589,-1.7589,-1.7771,-1.7984,-1.7292,-1.7321,-1.7945,-1.7154,-1.6683,-1.6669,-1.6096,-1.5825,-1.5825,-1.5825,-1.5825,-1.5825,-1.5825,-1.5685,-1.5404,-1.5398,-1.5124,-1.4576,-1.4275,-1.3915,-1.3527,-1.316,-1.2883,-1.2726,-1.2251,-1.1951,-1.1869,-1.1598,-1.1497,-1.1629,-1.1641,-1.1892,-1.249,-1.29,-1.3648,-1.476,-1.5938,-1.664,-1.6664,-1.5725,-1.5795,-1.7289,-1.811,-1.9484,-2.1689,-2.2811,-2.3974,-2.5468,-2.6574,-2.7575,-2.8515,-2.9124,-2.994,-3.0855,-3.1046,-3.1095,-3.1084,-3.0796,-3.0532,-3.0228,-2.9985,-2.9585,-2.8907,-2.8546,-2.8216,-2.7809,-2.7084,-2.653,-2.6236,-2.4974,-2.3787,-2.3169,-2.1627,-2.0255,-1.9379,-1.8334,-1.7729,-1.6808,-1.5891,-1.4817,-1.3682,-1.2483,-1.1193,-0.9512,-0.8751,-0.8257,-0.754,-0.7537,-0.7313,-2.0637,-2.0747,-2.1463,-2.131,-2.0585,-2.0637,-2.0174,-1.945,-2.0218,-2.0637,-2.0688,-1.9598,-1.945,-1.9975,-1.919,-1.8826,-1.867,-1.7943,-1.7589,-1.7589,-1.7589,-1.7589,-1.7589,-1.7589,-1.8048,-1.8634,-1.7901,-1.8215,-1.9305,-1.8378,-1.777,-1.7642,-1.6696,-1.6137,-1.6069,-1.5879,-1.5879,-1.6062,-1.5872,-1.5718,-1.5504,-1.5491,-1.5351,-1.5115,-1.4836,-1.4583,-1.4295,-1.4062,-1.3834,-1.3627,-1.324,-1.2981,-1.2994,-1.2762,-1.279,-1.3027,-1.2959,-1.3274,-1.4155,-1.5194,-1.6147,-1.7047,-1.8485,-1.9765,-2.0553,-1.9484,-1.8971,-2.0086,-2.1159,-2.2625,-2.4513,-2.5826,-2.695,-2.8019,-2.8797,-2.9457,-3.0286,-3.0292,-3.0494,-3.1281,-3.1095,-3.0996,-3.1145,-3.0908,-3.0532,-3.033,-3.0062,-2.9507,-2.8855,-2.8934,-2.8776,-2.8191,-2.7719,-2.7462,-2.7147,-2.6194,-2.5384,-2.4977,-2.4013,-2.3027,-2.2316,-2.2042,-2.1487,-2.0299,-1.9438,-1.8334,-1.6847,-1.5411,-1.3784,-1.1864,-1.0702,-0.9849,-0.9288,-0.9658,-0.9219,-2.2342,-2.2443,-2.2828,-2.266,-2.1937,-2.2224,-2.1878,-2.1157,-2.17,-2.235,-2.2719,-2.0885,-2.0071,-1.9975,-1.9287,-1.8923,-1.8826,-1.7996,-1.7687,-1.7687,-1.7589,-1.7641,-1.7687,-1.7687,-1.8048,-1.879,-1.8518,-1.889,-1.9783,-1.9315,-1.888,-1.8447,-1.7717,-1.7196,-1.6859,-1.6218,-1.6211,-1.685,-1.6157,-1.5771,-1.5744,-1.5744,-1.5651,-1.5364,-1.5331,-1.5223,-1.4921,-1.4901,-1.4867,-1.4803,-1.4358,-1.4148,-1.4104,-1.3727,-1.3586,-1.3909,-1.3731,-1.4206,-1.5814,-1.7801,-1.9428,-2.0589,-2.1936,-2.3132,-2.3917,-2.4467,-2.4352,-2.3843,-2.4669,-2.57,-2.6531,-2.7857,-2.873,-2.901,-2.9514,-2.9972,-3.047,-3.0558,-3.0796,-3.1405,-3.1281,-3.1244,-3.0771,-3.057,-3.0355,-2.9985,-2.9895,-2.9636,-2.9131,-2.9104,-2.9025,-2.859,-2.8391,-2.8363,-2.8125,-2.7353,-2.6692,-2.6779,-2.6169,-2.5502,-2.5287,-2.5112,-2.4617,-2.3881,-2.3368,-2.2028,-2.0323,-1.8627,-1.6677,-1.4711,-1.3316,-1.2295,-1.2871,-1.3337,-1.2724,-2.3188,-2.3438,-2.3038,-2.2568,-2.2249,-2.307,-2.3029,-2.235,-2.3011,-2.347,-2.3678,-2.2811,-2.2467,-2.2409,-2.1574,-2.1065,-2.0716,-1.9901,-1.9398,-1.9094,-1.9094,-1.9094,-1.9094,-1.9443,-1.9952,-2.0656,-2.0448,-2.0992,-2.1861,-2.1213,-2.0459,-1.9998,-1.901,-1.8409,-1.829,-1.7993,-1.7849,-1.7943,-1.7842,-1.7705,-1.7413,-1.6855,-1.6472,-1.636,-1.6339,-1.5975,-1.5349,-1.5217,-1.5137,-1.4983,-1.4829,-1.4732,-1.4739,-1.4546,-1.4754,-1.5469,-1.6608,-1.7762,-1.8988,-2.0711,-2.2339,-2.3831,-2.511,-2.6193,-2.7114,-2.8123,-2.8447,-2.8061,-2.7828,-2.8155,-2.9098,-2.9974,-3.0493,-3.0545,-3.0671,-3.0859,-3.1108,-3.0796,-3.072,-3.0908,-3.0684,-3.0432,-3.0203,-3.0126,-3.0024,-2.9818,-2.9779,-2.9636,-2.9221,-2.9339,-2.93,-2.9013,-2.9064,-2.8867,-2.8311,-2.7418,-2.7205,-2.7408,-2.7084,-2.6721,-2.7451,-2.7885,-2.7561,-2.6767,-2.6239,-2.5274,-2.3634,-2.2068,-2.0249,-1.7933,-1.5676,-1.4511,-1.4902,-1.5524,-1.5659,-2.3529,-2.3737,-2.3238,-2.2929,-2.2953,-2.3719,-2.3768,-2.3352,-2.4026,-2.4332,-2.4332,-2.448,-2.4529,-2.4372,-2.3393,-2.2685,-2.2232,-2.1481,-2.0928,-2.0577,-2.0526,-2.0518,-2.0577,-2.0928,-2.1532,-2.219,-2.2114,-2.2726,-2.384,-2.2996,-2.2155,-2.1641,-2.0662,-2.0037,-1.9909,-1.9747,-1.9516,-1.9319,-1.9394,-1.9386,-1.9224,-1.8413,-1.7687,-1.7181,-1.7127,-1.6601,-1.5578,-1.5518,-1.5418,-1.5211,-1.5204,-1.534,-1.5516,-1.5561,-1.6091,-1.7424,-1.9389,-2.1042,-2.2057,-2.3607,-2.5175,-2.6802,-2.7941,-2.8904,-2.9851,-3.0621,-3.121,-3.161,-3.082,-3.0559,-3.1137,-3.1279,-3.131,-3.1479,-3.1277,-3.1046,-3.0959,-3.0633,-3.0381,-3.033,-3.0101,-2.9779,-2.9779,-2.9818,-2.9818,-2.9779,-2.9779,-2.9714,-2.9456,-2.9677,-2.9908,-2.9574,-2.9831,-2.9482,-2.8471,-2.7955,-2.7772,-2.7801,-2.7705,-2.7748,-2.8531,-2.9013,-2.9312,-2.8007,-2.8402,-2.8093,-2.6415,-2.4986,-2.2804,-2.039,-1.8195,-1.6931,-1.7527,-1.7991,-1.9236,-2.3338,-2.3429,-2.3836,-2.4282,-2.4735,-2.4332,-2.4134,-2.4125,-2.4627,-2.4833,-2.4932,-2.5342,-2.5586,-2.544,-2.385,-2.2935,-2.2785,-2.2114,-2.176,-2.1702,-2.1651,-2.1651,-2.1659,-2.1651,-2.2114,-2.2935,-2.3044,-2.3402,-2.4134,-2.3998,-2.3846,-2.3414,-2.2651,-2.2127,-2.1739,-2.1151,-2.0843,-2.0948,-2.0475,-2.0442,-2.1052,-2.0546,-1.9308,-1.7893,-1.7553,-1.7067,-1.596,-1.5818,-1.5805,-1.5744,-1.5839,-1.6123,-1.6814,-1.6947,-1.7902,-1.9645,-2.1563,-2.3252,-2.4725,-2.6419,-2.8046,-2.9432,-3.0264,-3.1116,-3.2015,-3.1863,-3.2296,-3.3883,-3.3261,-3.2751,-3.2437,-3.1639,-3.1222,-3.1511,-3.0625,-3.0087,-2.9934,-3.0061,-2.9869,-2.9856,-2.9818,-2.9779,-2.9779,-2.9779,-2.9779,-2.9779,-2.9779,-2.9753,-2.9779,-3.0152,-3.0431,-3.0469,-3.0431,-3.0203,-2.9263,-2.8712,-2.8635,-2.8532,-2.8315,-2.8359,-2.8595,-2.8769,-2.8967,-2.9175,-2.9294,-2.9093,-2.8571,-2.6859,-2.4147,-2.1954,-2.0389,-1.9598,-1.9987,-2.1194,-2.2173,-2.3777,-2.3877,-2.4784,-2.5039,-2.4941,-2.5039,-2.5137,-2.5128,-2.5342,-2.544,-2.544,-2.5645,-2.5684,-2.5635,-2.502,-2.451,-2.4165,-2.3859,-2.3552,-2.3253,-2.3253,-2.3253,-2.3253,-2.3552,-2.3859,-2.4165,-2.451,-2.4824,-2.503,-2.4784,-2.4562,-2.4342,-2.3815,-2.3421,-2.3264,-2.3041,-2.2877,-2.2672,-2.2615,-2.2691,-2.272,-2.2437,-2.1583,-2.0232,-1.9627,-1.8398,-1.6442,-1.6932,-1.6974,-1.6435,-1.6869,-1.7316,-1.7787,-1.9629,-2.136,-2.2793,-2.5037,-2.6987,-2.8472,-2.9629,-3.095,-3.2431,-3.2819,-3.3244,-3.3828,-3.3839,-3.4042,-3.45,-3.4232,-3.402,-3.4311,-3.3277,-3.2281,-3.201,-3.1072,-3.0177,-2.9971,-3.0093,-3.0206,-2.9892,-2.9779,-2.9779,-2.9792,-2.9779,-2.9779,-2.9779,-2.9779,-2.9779,-2.9895,-3.0279,-3.0645,-3.0683,-3.0908,-3.0833,-2.9845,-2.9302,-2.8968,-2.8671,-2.8429,-2.8,-2.7949,-2.8433,-2.8669,-2.876,-2.9148,-2.9521,-2.8932,-2.7859,-2.5257,-2.3619,-2.2106,-2.2005,-2.2324,-2.3035,-2.38,-2.448,-2.4726,-2.5382,-2.5479,-2.5226,-2.5547,-2.5684,-2.5684,-2.5684,-2.5684,-2.5684,-2.5684,-2.5684,-2.5684,-2.5684,-2.5538,-2.5196,-2.5128,-2.4932,-2.4637,-2.4637,-2.4627,-2.4677,-2.499,-2.5137,-2.5186,-2.5538,-2.5684,-2.5684,-2.5333,-2.5186,-2.5128,-2.4775,-2.4637,-2.4637,-2.4587,-2.4419,-2.4163,-2.4242,-2.4135,-2.3785,-2.3633,-2.2997,-2.1984,-2.1443,-2.0059,-1.7662,-1.7853,-1.7896,-1.7598,-1.7846,-1.8466,-1.9692,-2.2404,-2.4645,-2.6059,-2.8182,-3.0085,-3.143,-3.2211,-3.3088,-3.4299,-3.4459,-3.4727,-3.5251,-3.5114,-3.5196,-3.5386,-3.513,-3.5249,-3.5713,-3.4808,-3.3683,-3.2978,-3.1746,-3.0726,-3.0398,-3.0633,-3.0583,-3.0218,-3.0093,-3.0005,-2.9829,-2.9792,-2.9779,-2.9779,-2.9779,-2.9779,-2.9856,-3.0432,-3.0796,-3.0707,-3.1318,-3.123,-3.0519,-2.9845,-2.9157,-2.8733,-2.8411,-2.7893,-2.7603,-2.805,-2.8379,-2.8436,-2.8783,-2.9302,-2.9093,-2.825,-2.6859,-2.5178,-2.4592,-2.4377,-2.4503,-2.4531,-2.5138,-2.5186,-2.5586,-2.5684,-2.5684,-2.5635,-2.5684,-2.5684,-2.5684,-2.5684,-2.5684,-2.5684,-2.5684,-2.5684,-2.5684,-2.5684,-2.5684,-2.5635,-2.5586,-2.5586,-2.5528,-2.5586,-2.5586,-2.5586,-2.5577,-2.5635,-2.5635,-2.5684,-2.5684,-2.5684,-2.5635,-2.5635,-2.5635,-2.5586,-2.5489,-2.5635,-2.5538,-2.5382,-2.5001,-2.4922,-2.4677,-2.4174,-2.4125,-2.3552,-2.2508,-2.2841,-2.1975,-1.945,-1.8647,-1.8528,-1.8958,-1.8597,-1.9659,-2.2624,-2.5254,-2.7392,-2.9133,-3.0836,-3.228,-3.3432,-3.3953,-3.4406,-3.5022,-3.5061,-3.5413,-3.579,-3.5521,-3.5642,-3.6441,-3.6308,-3.6256,-3.6568,-3.5717,-3.4653,-3.41,-3.2484,-3.144,-3.1314,-3.1348,-3.121,-3.0783,-3.058,-3.033,-2.998,-2.988,-2.9892,-2.9817,-2.9854,-2.9854,-2.9882,-3.0608,-3.1057,-3.102,-3.1355,-3.1539,-3.1007,-3.0355,-2.951,-2.8816,-2.8522,-2.8122,-2.7685,-2.7868,-2.8249,-2.839,-2.8987,-2.9462,-2.9261,-2.8484,-2.8006,-2.6798,-2.6693,-2.6358,-2.6272,-2.6196,-2.6302,-2.5235,-2.5684,-2.5684,-2.5684,-2.5684,-2.5684,-2.5684,-2.5684,-2.5684,-2.5684,-2.5684,-2.5684,-2.5684,-2.5684,-2.5684,-2.5684,-2.5684,-2.5684,-2.5684,-2.5684,-2.5684,-2.5684,-2.5684,-2.5684,-2.5684,-2.5684,-2.5684,-2.5684,-2.5684,-2.5684,-2.5684,-2.5684,-2.5684,-2.5684,-2.5684,-2.5684,-2.5586,-2.5489,-2.543,-2.5333,-2.5186,-2.4833,-2.4421,-2.4066,-2.3926,-2.3385,-2.2571,-2.112,-2.0179,-1.9902,-2.0451,-2.2287,-2.5374,-2.8284,-3.0275,-3.1332,-3.2989,-3.4284,-3.509,-3.5371,-3.5665,-3.6215,-3.6375,-3.6455,-3.6626,-3.6455,-3.6494,-3.6978,-3.6783,-3.6822,-3.6741,-3.5787,-3.4794,-3.4246,-3.2892,-3.1856,-3.1581,-3.1436,-3.1499,-3.1599,-3.1072,-3.0583,-3.0419,-3.0357,-3.0206,-2.993,-3.0105,-3.0231,-3.0035,-3.0419,-3.1057,-3.1206,-3.1626,-3.1589,-3.0782,-3.005,-2.9381,-2.8685,-2.8311,-2.8163,-2.7806,-2.7747,-2.8096,-2.8609,-2.9206,-2.9442,-2.9237,-2.8932,-2.8538,-2.8154,-2.7673,-2.7579,-2.7683,-2.7647,-2.7552,-2.5382,-2.5684,-2.5684,-2.5684,-2.5684,-2.5684,-2.5684,-2.5684,-2.5684,-2.5684,-2.5684,-2.5684,-2.5684,-2.5684,-2.5684,-2.5684,-2.5684,-2.5684,-2.5684,-2.5684,-2.5684,-2.5684,-2.5684,-2.5684,-2.5684,-2.5684,-2.5684,-2.5684,-2.5684,-2.5684,-2.5684,-2.5684,-2.5684,-2.5684,-2.5684,-2.5684,-2.5684,-2.5684,-2.5684,-2.5684,-2.5635,-2.5382,-2.5079,-2.4892,-2.4578,-2.4282,-2.4026,-2.3211,-2.2409,-2.1996,-2.3026,-2.5227,-2.8097,-3.0634,-3.2487,-3.3669,-3.4856,-3.591,-3.631,-3.6348,-3.6508,-3.69,-3.6978,-3.6978,-3.6978,-3.6978,-3.694,-3.6665,-3.6587,-3.6547,-3.6137,-3.5318,-3.4532,-3.4187,-3.3247,-3.2469,-3.2097,-3.2014,-3.2001,-3.2051,-3.1583,-3.1185,-3.0959,-3.0884,-3.067,-3.0306,-3.0382,-3.0407,-3.0072,-3.0266,-3.0696,-3.0996,-3.1108,-3.0833,-3.0342,-2.9768,-2.9174,-2.8581,-2.803,-2.7921,-2.7743,-2.7863,-2.8115,-2.8919,-2.9584,-2.9815,-2.9669,-2.9623,-2.9382,-2.9013,-2.8689,-2.891,-2.8956,-2.8549,-2.8362,-2.5703,-2.5723,-2.5732,-2.5791,-2.582,-2.583,-2.5859,-2.5801,-2.5752,-2.5762,-2.5752,-2.5703,-2.5684,-2.5684,-2.5684,-2.5684,-2.5684,-2.5684,-2.5684,-2.5684,-2.5684,-2.5684,-2.5684,-2.5684,-2.5684,-2.5684,-2.5684,-2.5684,-2.5684,-2.5684,-2.5684,-2.5684,-2.5684,-2.5684,-2.5684,-2.5684,-2.5684,-2.5684,-2.5684,-2.5684,-2.5684,-2.5684,-2.5479,-2.5039,-2.4932,-2.4775,-2.4667,-2.5158,-2.5168,-2.4648,-2.5953,-2.8004,-3.0468,-3.2401,-3.4059,-3.5548,-3.6547,-3.6822,-3.694,-3.6861,-3.69,-3.6978,-3.6978,-3.694,-3.6861,-3.69,-3.6665,-3.6071,-3.6031,-3.5817,-3.5209,-3.4564,-3.4176,-3.3979,-3.3361,-3.2978,-3.3074,-3.2993,-3.2754,-3.239,-3.2215,-3.2026,-3.1474,-3.1399,-3.1072,-3.0708,-3.057,-3.0344,-3.0045,-3.0101,-3.0203,-3.0406,-3.062,-3.0355,-2.9896,-2.916,-2.8621,-2.8315,-2.7841,-2.7702,-2.776,-2.7995,-2.8356,-2.916,-2.9791,-3.0021,-3.0125,-2.9988,-3.0,-2.976,-2.9795,-3.0125,-2.9943,-2.9393,-2.9117,-2.5928,-2.6211,-2.6221,-2.6396,-2.66,-2.667,-2.667,-2.6631,-2.6338,-2.6221,-2.6162,-2.582,-2.5732,-2.5693,-2.5713,-2.5684,-2.5732,-2.5723,-2.5684,-2.5684,-2.5684,-2.5684,-2.5684,-2.5684,-2.5684,-2.5684,-2.5684,-2.5684,-2.5684,-2.5684,-2.5684,-2.5684,-2.5684,-2.5684,-2.5684,-2.5684,-2.5684,-2.5684,-2.5684,-2.5684,-2.5684,-2.5684,-2.5645,-2.5538,-2.5479,-2.5761,-2.6254,-2.7693,-2.801,-2.7158,-2.8558,-3.0134,-3.1819,-3.3542,-3.4965,-3.5897,-3.6626,-3.6978,-3.6978,-3.6978,-3.6978,-3.6978,-3.694,-3.6783,-3.631,-3.6705,-3.6375,-3.5696,-3.5656,-3.5696,-3.5046,-3.4439,-3.3949,-3.3454,-3.321,-3.3124,-3.3124,-3.3124,-3.3048,-3.2842,-3.2478,-3.2202,-3.2014,-3.1687,-3.1298,-3.0859,-3.0645,-3.0482,-3.0159,-2.9895,-3.0024,-3.0114,-3.0177,-2.9896,-2.9433,-2.8633,-2.8139,-2.795,-2.7661,-2.7452,-2.7711,-2.81,-2.8666,-2.9378,-2.986,-3.0147,-3.017,-3.0125,-3.0216,-3.0216,-3.008,-3.0034,-3.0125,-2.9852,-2.976,-2.625,-2.665,-2.665,-2.6787,-2.7002,-2.7012,-2.7012,-2.6973,-2.6768,-2.666,-2.6592,-2.6347,-2.6269,-2.623,-2.623,-2.623,-2.622,-2.623,-2.623,-2.625,-2.6064,-2.5888,-2.5742,-2.5684,-2.5684,-2.5684,-2.5684,-2.5684,-2.5684,-2.5684,-2.5684,-2.5684,-2.5684,-2.5684,-2.5684,-2.5684,-2.5684,-2.5684,-2.5684,-2.5684,-2.5684,-2.5684,-2.5684,-2.5781,-2.6014,-2.6849,-2.8426,-2.9988,-3.0269,-2.9829,-3.0758,-3.2241,-3.3672,-3.4733,-3.5723,-3.635,-3.6783,-3.6978,-3.6978,-3.6978,-3.6978,-3.694,-3.6783,-3.6429,-3.6071,-3.6177,-3.5629,-3.484,-3.5005,-3.4799,-3.4343,-3.3852,-3.3539,-3.321,-3.3124,-3.3124,-3.3124,-3.3124,-3.3124,-3.3036,-3.2792,-3.2566,-3.2579,-3.2252,-3.1851,-3.1424,-3.1122,-3.0746,-3.0294,-3.0018,-2.9855,-3.0023,-2.9818,-2.9507,-2.9118,-2.8419,-2.7857,-2.7638,-2.7864,-2.7552,-2.7908,-2.8402,-2.9045,-2.9642,-2.9998,-3.0216,-3.0216,-3.0216,-3.0216,-3.017,-2.9988,-2.9806,-2.9806,-2.9703,-2.976,-2.666,-2.707,-2.707,-2.7109,-2.7178,-2.7158,-2.7236,-2.7168,-2.7119,-2.709,-2.706,-2.7031,-2.6986,-2.7123,-2.7149,-2.7166,-2.7319,-2.7371,-2.732,-2.7251,-2.7043,-2.6735,-2.6261,-2.584,-2.5742,-2.5684,-2.5684,-2.5684,-2.5684,-2.5684,-2.5684,-2.5684,-2.5684,-2.5684,-2.5684,-2.5684,-2.5684,-2.5684,-2.5684,-2.5684,-2.5732,-2.5878,-2.5965,-2.611,-2.704,-2.8437,-3.0315,-3.1724,-3.2167,-3.1815,-3.286,-3.4173,-3.5654,-3.5976,-3.6336,-3.6783,-3.694,-3.6978,-3.694,-3.69,-3.6822,-3.6758,-3.6217,-3.5871,-3.5656,-3.5359,-3.4868,-3.4021,-3.4063,-3.3907,-3.3454,-3.3197,-3.324,-3.321,-3.3167,-3.3253,-3.321,-3.3167,-3.3124,-3.3124,-3.3099,-3.3124,-3.3111,-3.3023,-3.2729,-3.1813,-3.1461,-3.0922,-3.057,-3.0357,-3.0156,-3.0069,-2.9681,-2.9162,-2.8718,-2.8243,-2.7748,-2.744,-2.7976,-2.8103,-2.8413,-2.8896,-2.9504,-2.9986,-3.0147,-3.0216,-3.0216,-3.0216,-3.017,-3.0034,-2.9806,-2.9439,-2.9174,-2.9024,-2.8978,-2.6836,-2.7529,-2.7581,-2.7715,-2.7988,-2.8018,-2.8061,-2.8012,-2.7708,-2.7685,-2.7513,-2.7239,-2.7459,-2.7996,-2.8097,-2.8307,-2.883,-2.888,-2.8946,-2.8925,-2.8932,-2.8431,-2.755,-2.6556,-2.5781,-2.5791,-2.5703,-2.5703,-2.5713,-2.5732,-2.5684,-2.5693,-2.5684,-2.5684,-2.5684,-2.5684,-2.5684,-2.5684,-2.5732,-2.5732,-2.5878,-2.6342,-2.6668,-2.686,-2.8283,-2.9806,-3.1328,-3.2948,-3.4059,-3.4612,-3.4899,-3.5386,-3.6108,-3.6334,-3.648,-3.673,-3.694,-3.694,-3.69,-3.6508,-3.623,-3.6151,-3.5615,-3.4991,-3.4564,-3.484,-3.4384,-3.3725,-3.3751,-3.3709,-3.3253,-3.3581,-3.3496,-3.3295,-3.3496,-3.3793,-3.3793,-3.3411,-3.321,-3.3167,-3.321,-3.3124,-3.3099,-3.2777,-3.247,-3.2127,-3.1675,-3.1085,-3.0859,-3.0733,-3.0495,-3.0319,-3.0019,-2.9551,-2.8861,-2.8406,-2.7959,-2.7722,-2.818,-2.8563,-2.8873,-2.9228,-2.9768,-3.0044,-3.0181,-3.0216,-3.0216,-3.008,-3.0034,-2.9852,-2.9531,-2.9024,-2.8606,-2.842,-2.8279,-2.7187,-2.7939,-2.7959,-2.8341,-2.8784,-2.8857,-2.9112,-2.9398,-2.9257,-2.8936,-2.8635,-2.8663,-2.8829,-2.8881,-2.929,-2.9758,-3.0,-3.0091,-2.9973,-2.9796,-2.976,-2.9455,-2.8914,-2.7937,-2.7149,-2.6527,-2.6298,-2.621,-2.6094,-2.6006,-2.5898,-2.5703,-2.5684,-2.5684,-2.5684,-2.5684,-2.5684,-2.583,-2.6062,-2.611,-2.5927,-2.6812,-2.7788,-2.8366,-2.9806,-3.1264,-3.2819,-3.3917,-3.5061,-3.5709,-3.5775,-3.5735,-3.5989,-3.5963,-3.595,-3.6044,-3.6429,-3.6296,-3.6057,-3.6017,-3.5871,-3.5535,-3.4922,-3.4522,-3.4118,-3.4189,-3.381,-3.3368,-3.3368,-3.3454,-3.3167,-3.3326,-3.3368,-3.3283,-3.3411,-3.3751,-3.3949,-3.3781,-3.3569,-3.3611,-3.3894,-3.3611,-3.3301,-3.3035,-3.2866,-3.2803,-3.2206,-3.1653,-3.1524,-3.1336,-3.0859,-3.0618,-3.0436,-2.9957,-2.9193,-2.8623,-2.8193,-2.821,-2.8582,-2.8907,-2.9206,-2.9561,-2.994,-3.0101,-3.0216,-3.0216,-3.017,-3.0034,-2.976,-2.9347,-2.8978,-2.842,-2.7998,-2.7668,-2.7573,-2.7863,-2.8654,-2.8654,-2.9069,-2.9628,-2.9733,-3.0057,-3.0681,-3.0785,-3.0214,-2.989,-3.0515,-3.0234,-3.0162,-3.0607,-3.0981,-3.1216,-3.1235,-3.1179,-3.0939,-3.0895,-3.0532,-3.0063,-2.9707,-2.9095,-2.7699,-2.7521,-2.7232,-2.6774,-2.6546,-2.6281,-2.5849,-2.5684,-2.5684,-2.5684,-2.5732,-2.583,-2.6072,-2.6486,-2.6726,-2.6534,-2.761,-2.8841,-3.0226,-3.1175,-3.2605,-3.3988,-3.491,-3.5521,-3.6269,-3.5803,-3.5467,-3.5183,-3.5278,-3.5032,-3.5073,-3.5615,-3.5615,-3.5359,-3.5372,-3.5345,-3.4881,-3.4259,-3.3992,-3.3781,-3.3526,-3.3283,-3.321,-3.321,-3.321,-3.3124,-3.3368,-3.3368,-3.3326,-3.3326,-3.3696,-3.4189,-3.4356,-3.4397,-3.4272,-3.4426,-3.4259,-3.4063,-3.3808,-3.3645,-3.3377,-3.2752,-3.2323,-3.221,-3.2041,-3.1683,-3.157,-3.156,-3.0577,-2.9733,-2.9032,-2.8592,-2.8568,-2.8933,-2.9194,-2.9493,-2.9791,-3.0055,-3.0135,-3.0216,-3.0216,-3.0125,-2.9988,-2.9577,-2.8978,-2.842,-2.7987,-2.7431,-2.686,-2.6907,-2.952,-3.037,-3.037,-3.0463,-3.0578,-3.0578,-3.0671,-3.0785,-3.094,-3.0733,-3.063,-3.0795,-3.1197,-3.1443,-3.1648,-3.2179,-3.2555,-3.2594,-3.26,-3.2537,-3.2464,-3.214,-3.1561,-3.1394,-3.0954,-3.0215,-2.9488,-2.8692,-2.7727,-2.7327,-2.6842,-2.5986,-2.5684,-2.5684,-2.5684,-2.5732,-2.6014,-2.6486,-2.6907,-2.7098,-2.7694,-2.8841,-3.0283,-3.1784,-3.263,-3.3694,-3.4802,-3.5494,-3.5696,-3.5318,-3.5155,-3.4538,-3.4163,-3.4759,-3.5047,-3.495,-3.5046,-3.5046,-3.4827,-3.4605,-3.4439,-3.4118,-3.3709,-3.3326,-3.3295,-3.321,-3.3124,-3.3124,-3.3124,-3.3124,-3.3111,-3.3454,-3.3823,-3.3992,-3.423,-3.4758,-3.5291,-3.5453,-3.5332,-3.5127,-3.5073,-3.495,-3.4662,-3.4413,-3.4259,-3.3914,-3.3312,-3.311,-3.3077,-3.2995,-3.2832,-3.2842,-3.296,-3.1617,-3.0279,-2.9595,-2.9082,-2.893,-2.9144,-2.9401,-2.9699,-2.9963,-3.0147,-3.0193,-3.0216,-3.0216,-3.0125,-2.9943,-2.9577,-2.9071,-2.8362,-2.761,-2.7136,-2.6764,-2.6678,-2.9413,-2.999,-3.0011,-3.0453,-3.1012,-3.1034,-3.149,-3.2066,-3.2077,-3.1823,-3.1669,-3.1874,-3.2026,-3.2179,-3.2544,-3.2919,-3.3181,-3.3281,-3.3281,-3.3281,-3.3281,-3.3119,-3.2656,-3.2656,-3.2443,-3.2067,-3.1567,-3.0448,-2.8977,-2.8241,-2.7547,-2.6781,-2.6103,-2.5684,-2.5684,-2.5732,-2.6149,-2.6774,-2.7289,-2.7741,-2.8516,-2.9852,-3.1484,-3.2728,-3.3846,-3.4774,-3.5372,-3.5426,-3.5318,-3.495,-3.4384,-3.3738,-3.3569,-3.3725,-3.4233,-3.4134,-3.4343,-3.4343,-3.4176,-3.3949,-3.4004,-3.3581,-3.3253,-3.3124,-3.3124,-3.3124,-3.3124,-3.3124,-3.3124,-3.3124,-3.3124,-3.3496,-3.3539,-3.3696,-3.4189,-3.4881,-3.5372,-3.579,-3.5897,-3.5884,-3.6044,-3.5763,-3.5073,-3.4909,-3.484,-3.4474,-3.3903,-3.3756,-3.3768,-3.3752,-3.3626,-3.3503,-3.3433,-3.2395,-3.1151,-3.0551,-2.9978,-2.9785,-2.9718,-2.9971,-3.0027,-3.0348,-3.0306,-3.0216,-3.0216,-3.0216,-3.0034,-2.9806,-2.9485,-2.9174,-2.8513,-2.7799,-2.7136,-2.6716,-2.6716,-2.9343,-2.9785,-2.9785,-3.0395,-3.1305,-3.1388,-3.2025,-3.3002,-3.3048,-3.2744,-3.2443,-3.2857,-3.2857,-3.2606,-3.2919,-3.3281,-3.3281,-3.3281,-3.3281,-3.3281,-3.3281,-3.3281,-3.3281,-3.3281,-3.3181,-3.3008,-3.3001,-3.2297,-3.046,-2.955,-2.8562,-2.7515,-2.6466,-2.5888,-2.581,-2.5684,-2.6255,-2.7051,-2.7668,-2.8351,-2.967,-3.1151,-3.2605,-3.372,-3.491,-3.5669,-3.6097,-3.5897,-3.5399,-3.4909,-3.4217,-3.3454,-3.3167,-3.3124,-3.3124,-3.321,-3.3611,-3.3496,-3.3454,-3.3526,-3.3624,-3.3253,-3.3167,-3.3124,-3.3124,-3.3124,-3.3124,-3.3124,-3.3295,-3.3368,-3.3411,-3.3484,-3.3654,-3.3937,-3.4384,-3.4758,-3.5521,-3.6057,-3.6468,-3.6665,-3.694,-3.6573,-3.5763,-3.5372,-3.5332,-3.4716,-3.4145,-3.3879,-3.3907,-3.4259,-3.4225,-3.398,-3.3618,-3.2929,-3.2111,-3.1627,-3.1183,-3.0936,-3.091,-3.1073,-3.0906,-3.0789,-3.0734,-3.0644,-3.0216,-3.017,-2.9943,-2.976,-2.9588,-2.922,-2.8606,-2.8092,-2.7526,-2.7278,-2.7278,-3.1012,-3.1456,-3.1445,-3.1609,-3.1691,-3.1702,-3.2025,-3.2558,-3.2604,-3.2856,-3.2962,-3.3231,-3.3231,-3.3131,-3.3181,-3.3281,-3.3281,-3.3281,-3.3281,-3.3281,-3.3281,-3.3281,-3.3281,-3.3281,-3.3281,-3.3281,-3.3281,-3.2524,-3.149,-3.1003,-2.9771,-2.8191,-2.7551,-2.6899,-2.6171,-2.6082,-2.6486,-2.761,-2.8034,-2.9418,-3.1716,-3.3216,-3.443,-3.5251,-3.5817,-3.6137,-3.6547,-3.6336,-3.5924,-3.495,-3.4799,-3.4176,-3.3368,-3.3124,-3.3124,-3.3124,-3.3154,-3.3197,-3.3167,-3.324,-3.3326,-3.3124,-3.3124,-3.3124,-3.3124,-3.3124,-3.3111,-3.3124,-3.3581,-3.3949,-3.4021,-3.4426,-3.4964,-3.5209,-3.5332,-3.5857,-3.6415,-3.6336,-3.6744,-3.6626,-3.6705,-3.6744,-3.6375,-3.6071,-3.571,-3.5046,-3.4468,-3.4147,-3.4021,-3.4384,-3.4778,-3.4538,-3.4514,-3.3883,-3.3246,-3.2747,-3.2434,-3.2143,-3.2068,-3.2059,-3.1765,-3.1545,-3.1488,-3.1323,-3.0779,-3.0261,-3.008,-2.9897,-2.968,-2.9451,-2.9117,-2.8606,-2.8045,-2.7893,-2.7846,-3.0686,-3.0893,-3.0893,-3.1065,-3.1329,-3.1341,-3.1616,-3.2112,-3.2374,-3.2604,-3.2868,-3.3166,-3.3281,-3.3281,-3.3281,-3.3281,-3.3281,-3.3281,-3.3281,-3.3281,-3.3281,-3.3281,-3.3281,-3.3281,-3.3281,-3.3281,-3.3281,-3.3174,-3.2406,-3.1667,-3.0614,-2.9833,-2.876,-2.8063,-2.7204,-2.7116,-2.7689,-2.8713,-2.992,-3.1364,-3.2986,-3.4402,-3.5507,-3.5991,-3.6363,-3.6508,-3.6389,-3.6017,-3.5453,-3.4551,-3.423,-3.3725,-3.324,-3.3124,-3.3124,-3.3124,-3.3124,-3.3124,-3.3124,-3.3124,-3.3124,-3.3124,-3.3124,-3.3124,-3.3124,-3.3124,-3.3326,-3.3654,-3.392,-3.4243,-3.4551,-3.484,-3.5073,-3.544,-3.5951,-3.6151,-3.6547,-3.6822,-3.6861,-3.6665,-3.6429,-3.635,-3.627,-3.5951,-3.5386,-3.4688,-3.4189,-3.3937,-3.4021,-3.4384,-3.4807,-3.5157,-3.5223,-3.5131,-3.4551,-3.3993,-3.3668,-3.3395,-3.3089,-3.2955,-3.2525,-3.2308,-3.2221,-3.1677,-3.0925,-3.0532,-3.0306,-3.0125,-2.9954,-2.9863,-2.9772,-2.9163,-2.8606,-2.856,-2.8362,-3.0397,-3.0352,-3.0273,-3.0457,-3.0813,-3.0824,-3.1111,-3.1605,-3.1938,-3.2236,-3.2592,-3.304,-3.3281,-3.3281,-3.3281,-3.3281,-3.3281,-3.3281,-3.3281,-3.3281,-3.3281,-3.3281,-3.3281,-3.3281,-3.3281,-3.3281,-3.3281,-3.3197,-3.2944,-3.2417,-3.1833,-3.1395,-3.0106,-2.9117,-2.8711,-2.8502,-2.8769,-2.9875,-3.1804,-3.3186,-3.421,-3.5561,-3.6282,-3.6626,-3.6744,-3.6665,-3.6137,-3.544,-3.4758,-3.4202,-3.3836,-3.3496,-3.3167,-3.3124,-3.3124,-3.3124,-3.3124,-3.3124,-3.3124,-3.3124,-3.3124,-3.3124,-3.3124,-3.3124,-3.3124,-3.3124,-3.3368,-3.3949,-3.4314,-3.4688,-3.5127,-3.5399,-3.5723,-3.5884,-3.6097,-3.6151,-3.6324,-3.6705,-3.6783,-3.6389,-3.6031,-3.5548,-3.5467,-3.5426,-3.4977,-3.4285,-3.3907,-3.3696,-3.3937,-3.4259,-3.4655,-3.5087,-3.5533,-3.5593,-3.5372,-3.494,-3.4767,-3.459,-3.4282,-3.3985,-3.3564,-3.3084,-3.2814,-3.2115,-3.1193,-3.0623,-3.0306,-3.0261,-3.017,-2.9988,-2.9806,-2.9531,-2.9209,-2.9071,-2.8549,-3.0859,-3.0814,-3.0397,-3.0296,-3.0353,-3.0273,-3.0583,-3.1194,-3.1181,-3.172,-3.25,-3.2982,-3.3224,-3.3281,-3.3281,-3.3281,-3.3281,-3.3281,-3.3281,-3.3281,-3.3281,-3.3281,-3.3281,-3.3281,-3.3331,-3.3381,-3.3431,-3.3381,-3.3369,-3.3388,-3.2472,-3.1467,-3.131,-3.0166,-2.967,-2.9817,-3.0434,-3.1576,-3.328,-3.4528,-3.548,-3.6649,-3.7457,-3.7582,-3.7106,-3.6584,-3.6506,-3.5467,-3.4592,-3.3992,-3.3836,-3.3581,-3.321,-3.3124,-3.3124,-3.3124,-3.3124,-3.3124,-3.3124,-3.3124,-3.3124,-3.3124,-3.3124,-3.3124,-3.3124,-3.3124,-3.3454,-3.4063,-3.4551,-3.5168,-3.5817,-3.6389,-3.6455,-3.6494,-3.6533,-3.6587,-3.6665,-3.6744,-3.6744,-3.6204,-3.571,-3.5182,-3.4564,-3.4481,-3.4439,-3.3823,-3.3624,-3.3411,-3.3738,-3.4105,-3.4439,-3.4899,-3.5534,-3.5761,-3.5868,-3.5628,-3.5359,-3.5386,-3.5251,-3.5006,-3.4718,-3.4207,-3.3551,-3.2494,-3.1613,-3.0958,-3.0306,-3.008,-2.9943,-2.9943,-2.976,-2.9347,-2.8839,-2.8409,-2.7893,-3.1395,-3.1383,-3.1217,-3.1116,-3.1128,-3.1128,-3.1246,-3.138,-3.1458,-3.1795,-3.2526,-3.2718,-3.2982,-3.3201,-3.3281,-3.3281,-3.3281,-3.3281,-3.3281,-3.3281,-3.3281,-3.3281,-3.3281,-3.3381,-3.3431,-3.3668,-3.3767,-3.3953,-3.4249,-3.42,-3.408,-3.3466,-3.298,-3.257,-3.2073,-3.1797,-3.2573,-3.3525,-3.4476,-3.5292,-3.5976,-3.695,-3.7701,-3.7725,-3.7092,-3.6373,-3.5883,-3.4978,-3.4217,-3.3696,-3.3539,-3.3368,-3.3167,-3.3124,-3.3124,-3.3124,-3.3124,-3.3124,-3.3124,-3.3124,-3.3124,-3.3124,-3.3124,-3.3124,-3.3124,-3.3124,-3.3696,-3.4314,-3.484,-3.5359,-3.6455,-3.6783,-3.69,-3.6978,-3.6978,-3.6978,-3.6978,-3.6978,-3.6587,-3.5991,-3.5386,-3.4799,-3.4147,-3.3539,-3.3539,-3.3398,-3.324,-3.321,-3.3539,-3.3781,-3.4105,-3.4439,-3.5005,-3.5332,-3.5413,-3.5588,-3.5831,-3.5897,-3.6017,-3.5561,-3.5114,-3.495,-3.422,-3.3066,-3.1965,-3.1193,-3.0487,-2.9852,-2.9623,-2.9577,-2.9347,-2.8989,-2.8466,-2.7752,-2.7289,-3.1893,-3.1937,-3.2057,-3.1925,-3.1705,-3.1705,-3.1705,-3.1733,-3.1675,-3.2019,-3.2512,-3.2632,-3.2902,-3.3212,-3.3281,-3.3281,-3.3281,-3.3281,-3.3281,-3.3281,-3.3281,-3.3381,-3.3469,-3.3618,-3.3817,-3.4139,-3.4286,-3.447,-3.509,-3.515,-3.533,-3.5339,-3.4988,-3.4744,-3.408,-3.427,-3.465,-3.5473,-3.5586,-3.591,-3.6508,-3.736,-3.784,-3.77,-3.7055,-3.6273,-3.5507,-3.4566,-3.3696,-3.3326,-3.3167,-3.3124,-3.3124,-3.3124,-3.3124,-3.3124,-3.3124,-3.3124,-3.3124,-3.3124,-3.3124,-3.3124,-3.3124,-3.3124,-3.3124,-3.3124,-3.3569,-3.4439,-3.4881,-3.5481,-3.6612,-3.6783,-3.694,-3.6978,-3.6978,-3.6978,-3.6978,-3.694,-3.6336,-3.5736,-3.5168,-3.4675,-3.4063,-3.3454,-3.3295,-3.3283,-3.3197,-3.3124,-3.324,-3.3454,-3.3666,-3.3949,-3.4314,-3.4551,-3.4758,-3.5291,-3.575,-3.5535,-3.5615,-3.5453,-3.5168,-3.5005,-3.433,-3.2932,-3.1957,-3.1339,-3.0623,-2.9897,-2.9439,-2.9174,-2.8699,-2.8092,-2.7384,-2.6716,-2.6678,-3.24,-3.2444,-3.2853,-3.2593,-3.1969,-3.1749,-3.1773,-3.1934,-3.191,-3.2182,-3.2724,-3.3085,-3.3277,-3.3369,-3.3431,-3.3381,-3.3331,-3.3331,-3.3381,-3.3431,-3.3568,-3.3668,-3.3892,-3.4127,-3.4519,-3.4714,-3.509,-3.5547,-3.6011,-3.6153,-3.6658,-3.725,-3.7154,-3.6777,-3.5345,-3.5247,-3.5827,-3.6634,-3.6319,-3.6617,-3.7307,-3.7969,-3.8054,-3.7784,-3.692,-3.6076,-3.5277,-3.4037,-3.3283,-3.3167,-3.3124,-3.3124,-3.3124,-3.3124,-3.3124,-3.3124,-3.3124,-3.3124,-3.3124,-3.3124,-3.3167,-3.321,-3.3253,-3.3124,-3.3124,-3.3167,-3.3411,-3.4285,-3.4634,-3.5237,-3.5977,-3.6547,-3.6744,-3.6978,-3.6978,-3.6978,-3.6978,-3.6978,-3.6415,-3.5777,-3.5291,-3.4758,-3.4105,-3.3569,-3.3253,-3.3124,-3.3124,-3.3124,-3.3111,-3.3197,-3.3368,-3.3496,-3.3823,-3.3894,-3.4272,-3.5223,-3.5629,-3.5372,-3.525,-3.5209,-3.4922,-3.4564,-3.3725,-3.2624,-3.1925,-3.135,-3.0578,-2.9863,-2.8978,-2.8045,-2.7478,-2.686,-2.6197,-2.5868,-2.6014,-3.3111,-3.3539,-3.3696,-3.381,-3.3742,-3.2957,-3.2822,-3.3106,-3.324,-3.3368,-3.3564,-3.379,-3.3819,-3.381,-3.3767,-3.3618,-3.3431,-3.3706,-3.3755,-3.3805,-3.4101,-3.4335,-3.4617,-3.5078,-3.5559,-3.6058,-3.6471,-3.6985,-3.7678,-3.7586,-3.7723,-3.827,-3.8707,-3.8658,-3.8038,-3.7583,-3.7426,-3.7866,-3.7388,-3.7029,-3.7709,-3.7887,-3.787,-3.7731,-3.6602,-3.5737,-3.506,-3.3755,-3.3154,-3.3124,-3.3124,-3.3124,-3.3124,-3.3124,-3.3124,-3.3124,-3.3124,-3.3124,-3.3124,-3.3167,-3.3338,-3.3454,-3.3326,-3.3124,-3.3124,-3.3124,-3.3509,-3.392,-3.4285,-3.4964,-3.5817,-3.6111,-3.6403,-3.69,-3.6978,-3.6978,-3.6978,-3.6978,-3.6665,-3.5977,-3.5413,-3.4468,-3.3696,-3.3454,-3.321,-3.3038,-3.3038,-3.3038,-3.3038,-3.3081,-3.321,-3.321,-3.3326,-3.3368,-3.3738,-3.4605,-3.4936,-3.4605,-3.4799,-3.5073,-3.4716,-3.416,-3.3586,-3.2729,-3.2033,-3.1294,-3.0114,-2.8874,-2.7704,-2.6764,-2.6486,-2.6294,-2.5965,-2.5781,-2.5781,-3.3823,-3.4397,-3.4397,-3.4634,-3.4827,-3.3894,-3.3655,-3.3928,-3.414,-3.4279,-3.4349,-3.4365,-3.4354,-3.4276,-3.4237,-3.42,-3.3866,-3.4101,-3.4286,-3.4372,-3.4896,-3.5235,-3.5655,-3.62,-3.6798,-3.7389,-3.7939,-3.8527,-3.9046,-3.9091,-3.9224,-3.9414,-3.9664,-3.9617,-3.9274,-3.8684,-3.8283,-3.8373,-3.7725,-3.7094,-3.749,-3.7639,-3.7611,-3.7151,-3.6387,-3.5492,-3.4714,-3.3882,-3.3124,-3.3124,-3.3124,-3.3124,-3.3124,-3.3124,-3.3124,-3.3124,-3.3124,-3.321,-3.3411,-3.3167,-3.3454,-3.3962,-3.3441,-3.3154,-3.3124,-3.3124,-3.3295,-3.3624,-3.392,-3.4647,-3.5413,-3.5669,-3.623,-3.6744,-3.6978,-3.6978,-3.6978,-3.6978,-3.69,-3.6217,-3.5413,-3.4384,-3.3398,-3.3283,-3.3124,-3.3038,-3.2952,-3.2952,-3.2909,-3.2995,-3.3038,-3.2995,-3.3081,-3.321,-3.3454,-3.3907,-3.4034,-3.3793,-3.4147,-3.4634,-3.423,-3.3624,-3.3245,-3.2834,-3.2064,-3.097,-2.9233,-2.7846,-2.7003,-2.6342,-2.5965,-2.583,-2.5684,-2.5684,-2.5684,-3.4439,-3.495,-3.5032,-3.5073,-3.5005,-3.4504,-3.4123,-3.3985,-3.4523,-3.477,-3.4772,-3.4763,-3.4752,-3.4788,-3.4799,-3.4738,-3.4775,-3.4872,-3.4957,-3.5235,-3.5881,-3.6295,-3.6892,-3.7573,-3.8121,-3.8617,-3.9152,-3.9855,-4.0287,-4.0215,-4.0358,-4.0361,-4.0234,-4.0026,-3.9494,-3.8962,-3.8639,-3.8299,-3.7667,-3.7217,-3.7383,-3.7552,-3.7389,-3.6978,-3.632,-3.5545,-3.4724,-3.3865,-3.3326,-3.3167,-3.3124,-3.3124,-3.3124,-3.3124,-3.3124,-3.3124,-3.3124,-3.3411,-3.3624,-3.3283,-3.3368,-3.3751,-3.3411,-3.321,-3.3124,-3.3124,-3.321,-3.3381,-3.3624,-3.4314,-3.4922,-3.5535,-3.6151,-3.6587,-3.694,-3.6978,-3.6978,-3.6978,-3.6978,-3.6455,-3.5561,-3.4579,-3.3484,-3.3124,-3.3124,-3.3038,-3.2952,-3.2736,-3.2736,-3.2822,-3.2822,-3.281,-3.2909,-3.3081,-3.3368,-3.3624,-3.3836,-3.3751,-3.3696,-3.3979,-3.3539,-3.3295,-3.3056,-3.2655,-3.1945,-3.0689,-2.8863,-2.7573,-2.6582,-2.6062,-2.5732,-2.5684,-2.5684,-2.5684,-2.5684,-3.4481,-3.5032,-3.5481,-3.5977,-3.6272,-3.5664,-3.483,-3.4042,-3.4495,-3.4749,-3.4715,-3.5124,-3.5102,-3.4818,-3.5197,-3.5078,-3.5295,-3.5655,-3.6071,-3.653,-3.7124,-3.7678,-3.827,-3.8944,-3.9533,-3.9986,-4.0546,-4.107,-4.1253,-4.1212,-4.0449,-4.014,-4.0055,-3.9676,-3.9155,-3.855,-3.8313,-3.799,-3.733,-3.7288,-3.7288,-3.74,-3.7174,-3.6833,-3.6346,-3.5533,-3.4546,-3.4076,-3.3581,-3.3154,-3.3124,-3.3124,-3.3124,-3.3124,-3.3124,-3.3124,-3.3124,-3.321,-3.3326,-3.3197,-3.321,-3.3411,-3.3197,-3.3167,-3.3124,-3.3124,-3.3124,-3.3253,-3.3368,-3.3894,-3.4551,-3.5168,-3.5817,-3.6296,-3.6665,-3.6822,-3.6822,-3.6954,-3.6915,-3.6336,-3.5481,-3.4509,-3.3411,-3.3124,-3.3124,-3.3081,-3.2952,-3.2692,-3.2605,-3.2736,-3.2692,-3.268,-3.2853,-3.3081,-3.3124,-3.3326,-3.3581,-3.3793,-3.3654,-3.3611,-3.3624,-3.3411,-3.3025,-3.2307,-3.1448,-3.0045,-2.8398,-2.7289,-2.639,-2.6014,-2.5684,-2.5684,-2.5684,-2.5684,-2.5684,-3.4439,-3.5046,-3.5413,-3.5736,-3.5791,-3.5639,-3.4793,-3.3884,-3.4387,-3.4813,-3.4994,-3.5119,-3.5269,-3.5471,-3.5548,-3.5695,-3.6096,-3.6602,-3.7057,-3.7678,-3.845,-3.8734,-3.9326,-3.9986,-4.0377,-4.0872,-4.1331,-4.1727,-4.1456,-4.0816,-4.0133,-3.9562,-3.9423,-3.903,-3.8579,-3.8131,-3.7807,-3.7526,-3.7259,-3.7274,-3.7245,-3.7203,-3.7039,-3.6803,-3.6341,-3.5467,-3.4564,-3.4314,-3.3738,-3.3197,-3.3124,-3.3124,-3.3124,-3.3124,-3.3124,-3.3124,-3.3124,-3.3124,-3.3167,-3.3167,-3.3124,-3.3124,-3.3124,-3.3124,-3.3124,-3.3124,-3.3124,-3.3167,-3.324,-3.3454,-3.4105,-3.4758,-3.5413,-3.6057,-3.6296,-3.6547,-3.6705,-3.6875,-3.6547,-3.6057,-3.5237,-3.4217,-3.3569,-3.3283,-3.3081,-3.3038,-3.2952,-3.2779,-3.2736,-3.2865,-3.2736,-3.2605,-3.2865,-3.3124,-3.3124,-3.3124,-3.3338,-3.3496,-3.3368,-3.3368,-3.3581,-3.3411,-3.2896,-3.1901,-3.0789,-2.9486,-2.8269,-2.7183,-2.6342,-2.5965,-2.5684,-2.5684,-2.5684,-2.5684,-2.5684,-3.4397,-3.4909,-3.495,-3.4758,-3.423,-3.4714,-3.4256,-3.3255,-3.4098,-3.4781,-3.5019,-3.4856,-3.5265,-3.5662,-3.5915,-3.6362,-3.6878,-3.7488,-3.7996,-3.8545,-3.9312,-3.9637,-3.9832,-4.0632,-4.0518,-4.0916,-4.1239,-4.1336,-4.0358,-3.9883,-3.955,-3.886,-3.8832,-3.8494,-3.7892,-3.7765,-3.7498,-3.7189,-3.7077,-3.7063,-3.7035,-3.6993,-3.6978,-3.6903,-3.6389,-3.5736,-3.5046,-3.4439,-3.3823,-3.3368,-3.3124,-3.3124,-3.325,-3.3262,-3.3262,-3.3174,-3.3199,-3.3124,-3.3124,-3.3124,-3.3124,-3.3124,-3.3124,-3.3124,-3.3124,-3.3124,-3.3124,-3.3124,-3.3167,-3.3496,-3.4063,-3.4356,-3.484,-3.5359,-3.5723,-3.5897,-3.5977,-3.6057,-3.5857,-3.5399,-3.4799,-3.3907,-3.3411,-3.3124,-3.3124,-3.3038,-3.2952,-3.2822,-3.2865,-3.2995,-3.2865,-3.2649,-3.2865,-3.3124,-3.3124,-3.3124,-3.3124,-3.3167,-3.3111,-3.3154,-3.3326,-3.3068,-3.268,-3.1637,-3.0498,-2.9486,-2.8398,-2.7326,-2.6438,-2.5917,-2.5684,-2.5684,-2.5684,-2.5684,-2.5684,-3.4202,-3.4356,-3.4799,-3.4634,-3.416,-3.423,-3.3907,-3.3136,-3.3319,-3.3683,-3.3784,-3.4387,-3.4851,-3.5314,-3.6363,-3.6929,-3.7066,-3.8198,-3.8735,-3.9158,-3.982,-3.9909,-3.9844,-4.0279,-4.024,-4.0101,-4.0253,-4.0437,-3.9747,-3.9393,-3.8982,-3.8267,-3.8116,-3.7821,-3.7344,-3.7316,-3.7259,-3.7105,-3.7203,-3.7203,-3.7189,-3.7049,-3.6978,-3.6968,-3.6693,-3.6017,-3.5399,-3.4881,-3.4063,-3.3368,-3.3167,-3.3294,-3.3658,-3.3671,-3.3684,-3.3633,-3.3294,-3.3174,-3.3124,-3.3124,-3.3124,-3.3124,-3.3124,-3.3124,-3.3124,-3.3124,-3.3124,-3.3124,-3.3253,-3.3581,-3.3823,-3.4034,-3.4202,-3.4675,-3.5114,-3.5155,-3.525,-3.5196,-3.5114,-3.4716,-3.4243,-3.3751,-3.3295,-3.3124,-3.3124,-3.3081,-3.3081,-3.2995,-3.2995,-3.3081,-3.2995,-3.2822,-3.2939,-3.3068,-3.3124,-3.3124,-3.3124,-3.3124,-3.3124,-3.3124,-3.3081,-3.268,-3.2288,-3.1339,-3.0329,-2.9371,-2.8445,-2.7468,-2.6668,-2.5965,-2.5684,-2.5684,-2.5684,-2.5684,-2.5684,-3.3836,-3.4202,-3.5087,-3.5087,-3.4605,-3.4812,-3.4564,-3.4021,-3.3924,-3.3937,-3.3904,-3.4318,-3.4679,-3.506,-3.6345,-3.739,-3.7497,-3.858,-3.9321,-3.9795,-3.9815,-3.9901,-3.997,-3.9879,-3.9515,-3.929,-3.9007,-3.896,-3.8996,-3.8445,-3.7907,-3.7622,-3.7512,-3.7414,-3.7102,-3.7203,-3.74,-3.7428,-3.7611,-3.7791,-3.7692,-3.74,-3.7245,-3.7231,-3.6979,-3.6287,-3.5481,-3.4949,-3.4399,-3.3761,-3.3521,-3.3568,-3.371,-3.3573,-3.3531,-3.3445,-3.3246,-3.3124,-3.3124,-3.3124,-3.3124,-3.3124,-3.3124,-3.3124,-3.3124,-3.3124,-3.3124,-3.3124,-3.3124,-3.3411,-3.3411,-3.3581,-3.3569,-3.3894,-3.4384,-3.4675,-3.4758,-3.4799,-3.4634,-3.4397,-3.3907,-3.3454,-3.3124,-3.3124,-3.3124,-3.3081,-3.3081,-3.3068,-3.3068,-3.3081,-3.2995,-3.2909,-3.2939,-3.3025,-3.3124,-3.3124,-3.3124,-3.3124,-3.3038,-3.2952,-3.2779,-3.2332,-3.1793,-3.0937,-3.0114,-2.9325,-2.8398,-2.7421,-2.663,-2.5927,-2.5732,-2.5684,-2.5684,-2.5684,-2.5684,-3.3654,-3.4356,-3.5386,-3.5535,-3.5114,-3.5575,-3.5494,-3.4991,-3.495,-3.5017,-3.504,-3.4706,-3.5096,-3.5626,-3.6283,-3.7434,-3.8339,-3.8968,-3.9658,-3.9858,-3.9901,-3.9592,-3.9407,-3.9412,-3.8939,-3.8467,-3.8108,-3.8147,-3.8279,-3.7972,-3.7786,-3.7271,-3.7175,-3.7245,-3.7386,-3.7667,-3.8032,-3.8171,-3.841,-3.8818,-3.848,-3.7932,-3.7807,-3.7695,-3.7342,-3.6464,-3.5642,-3.5033,-3.4717,-3.433,-3.4007,-3.3962,-3.381,-3.3646,-3.3342,-3.3222,-3.3196,-3.3101,-3.3124,-3.3124,-3.3124,-3.3124,-3.3124,-3.3124,-3.3124,-3.3038,-3.3038,-3.2995,-3.2995,-3.3038,-3.3081,-3.3111,-3.3154,-3.3142,-3.3683,-3.4105,-3.4189,-3.4272,-3.4118,-3.3962,-3.3624,-3.3167,-3.3023,-3.298,-3.298,-3.2993,-3.3006,-3.3031,-3.3043,-3.3025,-3.2952,-3.2822,-3.2736,-3.2865,-3.2865,-3.2952,-3.2865,-3.281,-3.2723,-3.2605,-3.2431,-3.1893,-3.1306,-3.0623,-2.9795,-2.9002,-2.8211,-2.7278,-2.6534,-2.583,-2.5732,-2.5684,-2.5684,-2.5684,-2.5684,-3.4272,-3.484,-3.5114,-3.5127,-3.5046,-3.5209,-3.5127,-3.5032,-3.5059,-3.5299,-3.584,-3.6264,-3.6543,-3.6684,-3.7777,-3.8548,-3.8762,-3.9254,-3.9145,-3.9198,-3.9704,-3.917,-3.8818,-3.9093,-3.8265,-3.7924,-3.7766,-3.7712,-3.8113,-3.8293,-3.8241,-3.7779,-3.8339,-3.8452,-3.8508,-3.8705,-3.8719,-3.8818,-3.8944,-3.9254,-3.9436,-3.9029,-3.8705,-3.8417,-3.802,-3.7274,-3.6556,-3.5882,-3.5249,-3.4778,-3.4569,-3.4376,-3.4109,-3.378,-3.3498,-3.319,-3.3109,-3.3101,-3.3124,-3.3124,-3.3124,-3.3124,-3.3081,-3.3081,-3.2952,-3.2692,-3.2692,-3.2605,-3.2605,-3.2692,-3.2723,-3.2896,-3.2939,-3.2853,-3.3099,-3.3326,-3.3496,-3.3539,-3.3454,-3.3368,-3.324,-3.2837,-3.2506,-3.2451,-3.2384,-3.2384,-3.2414,-3.2489,-3.2815,-3.2853,-3.2865,-3.2605,-3.2388,-3.2201,-3.2069,-3.2419,-3.2463,-3.2419,-3.2276,-3.1957,-3.1649,-3.135,-3.0769,-2.984,-2.9244,-2.8549,-2.7752,-2.6993,-2.6486,-2.5878,-2.5781,-2.5684,-2.5684,-2.5684,-2.5635]},{"header":{"parameterUnit":"m.s-1","parameterCategory":1,"la1":31.0,"la2":29.5877,"lo1":-88.7671,"lo2":-86.6584,"dy":0.0162,"dx":0.0185,"nx":115,"ny":88,"refTime":"2025-01-25T06:00:00:Z","depth":0,"parameterNumber":3,"parameterNumberName":"V-component_of_WINDS"},"data":[0.0,0.0,0.0,0.0,0.0,0.0,0.0,0.0,0.0,0.0,0.0,0.0,0.0,0.0,0.0,0.0,0.0,0.0,0.0,0.0,0.0,0.0,0.0,0.0,0.0,0.0,0.0,0.0,0.0,0.0,0.0,0.0,0.0,0.0,0.0,0.0,0.0,0.0,0.0,0.0,0.0,0.0,0.0,0.0,0.0,0.0,0.0,0.0,0.0,0.0,0.0,0.0,0.0,0.0,0.0,0.0,0.0,0.0,0.0,0.0,0.0,0.0,0.0,0.0,0.0,0.0,0.0,0.0,0.0,0.0,0.0,0.0,0.0,0.0,0.0,0.0,0.0,0.0,0.0,0.0,0.0,0.0,0.0,0.0,0.0,0.0,0.0,0.0,0.0,0.0,0.0,0.0,0.0,0.0,0.0,0.0,0.0,0.0,0.0,0.0,0.0,0.0,0.0,0.0,0.0,0.0,0.0,0.0,0.0,0.0,0.0,0.0,0.0,0.0,0.0,0.0,0.0,0.0,0.0,0.0,0.0,0.0,0.0,0.0,0.0,0.0,0.0,0.0,0.0,0.0,0.0,0.0,0.0,0.0,0.0,0.0,0.0,0.0,0.0,0.0,0.0,0.0,0.0,0.0,0.0,0.0,0.0,0.0,0.0,0.0,0.0,0.0,0.0,0.0,0.0,0.0,0.0,0.0,0.0,0.0,0.0,0.0,0.0,0.0,0.0,0.0,0.0,0.0,0.0,0.0,0.0,0.0,0.0,0.0,0.0,0.0,0.0,0.0,0.0,0.0,0.0,0.0,0.0,0.0,0.0,0.0,0.0,0.0,0.0,0.0,0.0,0.0,0.0,0.0,0.0,0.0,0.0,0.0,0.0,0.0,0.0,0.0,0.0,0.0,0.0,0.0,0.0,0.0,0.0,0.0,0.0,0.0,0.0,0.0,0.0,0.0,0.0,0.0,0.0,0.0,0.0,0.0,0.0,0.0,0.0,0.0,0.0,0.0,0.0,0.0,0.0,0.0,0.0,0.0,0.0,0.0,0.0,0.0,0.0,0.0,0.0,0.0,0.0,0.0,0.0,0.0,0.0,0.0,0.0,0.0,0.0,0.0,0.0,0.0,0.0,0.0,0.0,0.0,0.0,0.0,0.0,0.0,0.0,0.0,0.0,0.0,0.0,0.0,0.0,0.0,0.0,0.0,0.0,0.0,0.0,0.0,0.0,0.0,0.0,0.0,0.0,0.0,0.0,0.0,0.0,0.0,0.0,0.0,0.0,0.0,0.0,0.0,0.0,0.0,0.0,0.0,0.0,0.0,0.0,0.0,0.0,0.0,0.0,0.0,0.0,0.0,0.0,0.0,0.0,0.0,0.0,0.0,0.0,0.0,0.0,0.0,0.0,0.0,0.0,0.0,0.0,0.0,0.0,0.0,0.0,0.0,0.0,0.0,0.0,0.0,0.0,0.0,0.0,0.0,0.0,0.0,0.0,0.0,0.0,0.0,0.0,0.0,0.0,0.0,0.0,0.0,0.0,0.0,0.0,0.0,0.0,0.0,0.0,0.0,0.0,0.0,0.0,0.0,0.0,0.0,0.0,0.0,0.0,0.0,0.0,0.0,0.0,0.0,0.0,0.0,0.0,0.0,0.0,0.0,0.0,0.0,0.0,0.0,0.0,0.0,0.0,0.0,0.0,0.0,0.0,0.0,0.0,0.0,0.0,0.0,0.0,0.0,0.0,0.0,0.0,0.0,0.0,0.0,0.0,0.0,0.0,0.0,0.0,0.0,0.0,0.0,0.0,0.0,0.0,0.0,0.0,0.0,0.0,0.0,0.0,0.0,0.0,0.0,0.0,0.0,0.0,0.0,0.0,0.0,0.0,0.0,0.0,0.0,0.0,0.0,0.0,0.0,0.0,0.0,0.0,0.0,0.0,0.0,0.0,0.0,0.0,0.0,0.0,0.0,0.0,0.0,0.0,0.0,0.0,0.0,0.0,0.0,0.0,0.0,0.0,0.0,0.0,0.0,0.0,0.0,0.0,0.0,0.0,0.0,0.0,0.0,0.0,0.0,0.0,0.0,0.0,0.0,0.0,0.0,0.0,0.0,0.0,0.0,0.0,0.0,0.0,0.0,0.0,0.0,0.0,0.0,0.0,0.0,0.0,0.0,0.0,0.0,0.0,0.0,0.0,0.0,0.0,0.0,0.0,0.0,0.0,0.0,0.0,0.0,0.0,0.0,0.0,0.0,0.0,0.0,0.0,0.0,0.0,0.0,0.0,0.0,0.0,0.0,0.0,0.0,0.0,0.0,0.0,0.0,0.0,0.0,0.0,0.0,0.0,0.0,0.0,0.0,0.0,0.0,0.0,0.0,0.0,0.0,0.0,0.0,0.0,0.0,0.0,0.0,0.0,0.0,0.0,0.0,0.0,0.0,0.0,0.0,0.0,0.0,0.0,0.0,0.0,0.0,0.0,0.0,0.0,0.0,0.0,0.0,0.0,0.0,0.0,0.0,0.0,0.0,0.0,0.0,0.0,0.0,0.0,0.0,0.0,0.0,0.0,0.0,0.0,0.0,0.0,0.0,0.0,0.0,0.0,0.0,0.0,0.0,0.0,0.0,0.0,0.0,0.0,0.0,0.0,0.0,0.0,0.0,0.0,0.0,0.0,0.0,0.0,0.0,0.0,0.0,0.0,0.0,0.0,0.0,0.0,0.0,0.0,0.0,0.0,0.0,0.0,0.0,0.0,0.0,0.0,0.0,0.0,0.0,0.0,0.0,0.0,0.0,0.0,0.0,0.0,0.0,0.0,0.0,0.0,0.0,0.0,0.0,0.0,0.0,0.0,0.0,0.0,0.0,0.0,0.0,0.0,0.0,0.0,0.0,0.0,0.0,0.0,0.0,0.0,0.0,0.0,0.0,0.0,0.0,0.0,0.0,0.0,0.0,0.0,0.0,0.0,0.0,0.0,0.0,0.0,0.0,0.0,0.0,0.0,0.0,0.0,0.0,0.0,0.0,0.0,0.0,0.0,0.0,0.0,0.0,0.0,0.0,0.0,0.0,0.0,0.0,0.0,0.0,0.0,0.0,0.0,0.0,0.0,0.0,0.0,0.0,0.0,0.0,0.0,0.0,0.0,0.0,0.0,0.0,0.0,0.0,0.0,0.0,0.0,0.0,0.0,0.0,0.0,0.0,0.0,0.0,0.0,0.0,0.0,0.0,0.0,0.0,0.0,0.0,0.0,0.0,0.0,0.0,0.0,0.0,0.0,0.0,0.0,0.0,0.0,0.0,0.0,0.0,0.0,0.0,0.0,0.0,0.0,0.0,0.0,0.0,0.0,0.0,0.0,0.0,0.0,0.0,0.0,0.0,0.0,0.0,0.0,0.0,0.0,0.0,0.0,0.0,0.0,0.0,0.0,0.0,0.0,0.0,0.0,0.0,0.0,0.0,0.0,0.0,0.0,0.0,0.0,0.0,0.0,0.0,0.0,0.0,0.0,0.0,0.0,0.0,0.0,0.0,0.0,0.0,0.0,0.0,0.0,0.0,0.0,0.0,0.0,0.0,0.0,0.0,0.0,0.0,0.0,0.0,0.0,0.0,0.0,0.0,0.0,0.0,0.0,0.0,0.0,0.0,0.0,0.0,0.0,0.0,0.0,0.0,0.0,0.0,0.0,0.0,0.0,0.0,0.0,0.0,0.0,0.0,0.0,0.0,0.0,0.0,0.0,0.0,0.0,0.0,0.0,0.0,0.0,0.0,0.0,0.0,0.0,0.0,0.0,0.0,0.0,0.0,0.0,0.0,0.0,0.0,0.0,0.0,0.0,0.0,0.0,0.0,0.0,0.0,0.0,0.0,0.0,0.0,0.0,0.0,0.0,0.0,0.0,0.0,0.0,0.0,0.0,0.0,0.0,0.0,0.0,0.0,0.0,0.0,0.0,0.0,0.0,0.0,0.0,0.0,0.0,0.0,0.0,0.0,0.0,0.0,0.0,0.0,0.0,0.0,0.0,0.0,0.0,0.0,0.0,0.0,0.0,0.0,0.0,0.0,0.0,0.0,0.0,0.0,0.0,0.0,0.0,0.0,0.0,0.0,0.0,0.0,0.0,0.0,0.0,0.0,0.0,0.0,0.0,0.0,0.0,0.0,0.0,0.0,0.0,0.0,0.0,0.0,0.0,0.0,0.0,0.0,0.0,0.0,0.0,0.0,0.0,0.0,0.0,0.0,0.0,0.0,0.0,0.0,0.0,0.0,0.0,0.0,0.0,0.0,1.9676,0.0,0.0,0.0,0.0,0.0,0.0,0.0,0.0,0.0,0.0,0.0,0.0,0.0,0.0,0.0,0.0,0.0,0.0,0.0,0.0,0.0,0.0,0.0,0.0,0.0,0.0,0.0,0.0,0.0,0.0,0.0,0.0,0.0,0.0,0.0,0.0,0.0,0.0,0.0,0.0,0.0,0.0,0.0,0.0,0.0,0.0,0.0,0.0,0.0,0.0,0.0,0.0,0.0,0.0,0.0,0.0,0.0,0.0,0.0,0.0,0.0,0.0,0.0,0.0,0.0,0.0,0.0,0.0,0.0,0.0,0.0,0.0,0.0,0.0,0.0,0.0,0.0,0.0,0.0,0.0,0.0,0.0,0.0,0.0,0.0,0.0,0.0,0.0,0.0,0.0,0.0,0.0,0.0,0.0,0.0,0.0,0.0,0.0,0.0,0.0,0.0,0.0,0.0,0.0,0.0,0.0,0.0,0.0,0.0,0.0,1.8615,1.8861,1.9246,1.9536,1.9756,0.0,0.0,0.0,0.0,0.0,0.0,0.0,0.0,0.0,0.0,0.0,0.0,0.0,0.0,0.0,0.0,0.0,0.0,0.0,0.0,0.0,0.0,0.0,0.0,0.0,0.0,0.0,0.0,0.0,0.0,0.0,0.0,0.0,0.0,0.0,0.0,0.0,0.0,0.0,0.0,0.0,0.0,0.0,0.0,0.0,0.0,0.0,0.0,0.0,0.0,0.0,0.0,0.0,0.0,0.0,0.0,0.0,0.0,0.0,0.0,0.0,0.0,0.0,0.0,0.0,0.0,0.0,0.0,0.0,0.0,0.0,0.0,0.0,0.0,0.0,0.0,0.0,0.0,0.0,0.0,0.0,0.0,0.0,0.0,0.0,0.0,0.0,0.0,0.0,0.0,0.0,0.0,0.0,0.0,0.0,0.0,0.0,0.0,0.0,0.0,0.0,0.0,0.0,0.0,0.0,0.0,0.0,0.0,0.0,0.0,0.0,0.0,1.9921,2.02,2.0481,0.0,0.0,0.0,0.0,0.0,0.0,0.0,0.0,0.0,0.0,0.0,0.0,0.0,0.0,0.0,0.0,0.0,0.0,0.0,0.0,0.0,0.0,0.0,0.0,0.0,0.0,0.0,0.0,0.0,0.0,0.0,0.0,0.0,0.0,0.0,0.0,0.0,0.0,0.0,0.0,0.0,0.0,0.0,0.0,0.0,0.0,0.0,0.0,0.0,0.0,0.0,0.0,0.0,0.0,0.0,0.0,0.0,0.0,0.0,0.0,0.0,0.0,0.0,0.0,0.0,0.0,0.0,0.0,0.0,0.0,0.0,0.0,0.0,0.0,0.0,0.0,0.0,0.0,0.0,0.0,0.0,0.0,0.0,0.0,0.0,0.0,0.0,0.0,0.0,0.0,0.0,0.0,0.0,0.0,0.0,0.0,0.0,0.0,0.0,0.0,0.0,0.0,0.0,0.0,0.0,0.0,0.0,0.0,0.0,0.0,1.9496,2.0968,2.1561,0.0,2.2472,0.0,0.0,0.0,0.0,0.0,0.0,0.0,0.0,0.0,0.0,0.0,0.0,0.0,0.0,0.0,0.0,0.0,0.0,0.0,0.0,0.0,0.0,0.0,0.0,0.0,0.0,0.0,0.0,0.0,0.0,0.0,0.0,0.0,0.0,0.0,0.0,0.0,0.0,0.0,0.0,0.0,0.0,0.0,0.0,0.0,0.0,0.0,0.0,0.0,0.0,0.0,0.0,0.0,0.0,0.0,0.0,0.0,0.0,0.0,0.0,0.0,0.0,0.0,0.0,0.0,0.0,0.0,0.0,0.0,0.0,0.0,0.0,0.0,0.0,0.0,0.0,0.0,0.0,0.0,0.0,0.0,0.0,0.0,0.0,0.0,0.0,0.0,0.0,0.0,0.0,0.0,0.0,0.0,0.0,0.0,0.0,0.0,0.0,0.0,0.0,0.0,0.0,0.0,0.0,0.0,0.0,0.0,0.0,0.0,0.0,0.0,2.2068,2.2176,2.2353,0.0,0.0,0.0,0.0,0.0,0.0,0.0,0.0,0.0,0.0,0.0,0.0,0.0,0.0,0.0,0.0,0.0,0.0,0.0,0.0,0.0,0.0,0.0,0.0,0.0,0.0,0.0,0.0,0.0,0.0,0.0,0.0,0.0,0.0,0.0,0.0,0.0,0.0,0.0,0.0,0.0,0.0,0.0,0.0,0.0,0.0,0.0,0.0,0.0,0.0,0.0,0.0,0.0,0.0,0.0,0.0,0.0,0.0,0.0,0.0,0.0,0.0,0.0,0.0,0.0,0.0,0.0,0.0,0.0,0.0,0.0,0.0,0.0,0.0,0.0,0.0,0.0,0.0,0.0,0.0,0.0,0.0,0.0,0.0,0.0,0.0,0.0,0.0,0.0,0.0,0.0,0.0,0.0,0.0,0.0,0.0,0.0,0.0,0.0,0.0,0.0,0.0,0.0,0.0,0.0,0.0,0.0,0.0,0.0,0.0,2.2334,0.0,2.3566,2.3517,2.3348,2.3109,0.0,0.0,0.0,0.0,0.0,0.0,0.0,0.0,0.0,0.0,0.0,0.0,0.0,0.0,0.0,0.0,0.0,0.0,0.0,0.0,0.0,0.0,0.0,0.0,0.0,0.0,0.0,0.0,0.0,0.0,0.0,0.0,0.0,0.0,0.0,0.0,0.0,0.0,0.0,0.0,0.0,0.0,0.0,0.0,0.0,0.0,0.0,0.0,0.0,0.0,0.0,0.0,0.0,0.0,0.0,0.0,0.0,0.0,0.0,0.0,0.0,0.0,0.0,0.0,0.0,0.0,0.0,0.0,0.0,0.0,0.0,0.0,0.0,0.0,0.0,0.0,0.0,0.0,0.0,0.0,0.0,0.0,0.0,0.0,0.0,0.0,0.0,0.0,0.0,0.0,0.0,0.0,0.0,0.0,0.0,0.0,0.0,0.0,0.0,0.0,0.0,0.0,0.0,0.0,0.0,0.0,0.0,0.0,0.0,2.3414,2.3862,2.5864,2.6161,2.5591,0.0,0.0,0.0,0.0,0.0,0.0,0.0,0.0,0.0,0.0,0.0,0.0,0.0,0.0,0.0,0.0,0.0,0.0,0.0,0.0,0.0,0.0,0.0,0.0,0.0,0.0,0.0,0.0,0.0,0.0,0.0,0.0,0.0,0.0,0.0,0.0,0.0,0.0,0.0,0.0,0.0,0.0,0.0,0.0,0.0,0.0,0.0,0.0,0.0,0.0,0.0,0.0,0.0,0.0,0.0,0.0,0.0,0.0,0.0,0.0,0.0,0.0,0.0,0.0,0.0,0.0,0.0,0.0,0.0,0.0,0.0,0.0,0.0,0.0,0.0,0.0,0.0,0.0,0.0,0.0,0.0,0.0,0.0,0.0,0.0,0.0,0.0,0.0,0.0,0.0,0.0,0.0,0.0,0.0,0.0,0.0,0.0,0.0,0.0,0.0,0.0,0.0,0.0,0.0,0.0,0.0,0.0,0.0,0.0,2.3322,2.4091,2.5522,2.7551,2.5792,2.4548,0.0,0.0,0.0,0.0,0.0,0.0,0.0,0.0,0.0,0.0,0.0,0.0,0.0,0.0,0.0,0.0,0.0,0.0,0.0,0.0,0.0,0.0,0.0,0.0,0.0,0.0,0.0,0.0,0.0,0.0,0.0,0.0,0.0,0.0,0.0,0.0,0.0,0.0,0.0,0.0,0.0,0.0,0.0,0.0,0.0,0.0,0.0,0.0,0.0,0.0,0.0,0.0,0.0,0.0,0.0,0.0,0.0,0.0,0.0,0.0,0.0,0.0,0.0,0.0,0.0,0.0,0.0,0.0,0.0,0.0,0.0,0.0,0.0,0.0,0.0,0.0,0.0,0.0,0.0,0.0,0.0,0.0,0.0,0.0,0.0,0.0,0.0,0.0,0.0,0.0,0.0,0.0,0.0,0.0,0.0,0.0,0.0,0.0,0.0,0.0,0.0,0.0,0.0,0.0,0.0,0.0,0.0,0.0,0.0,2.3656,0.0,2.6961,0.0,2.6223,2.4543,0.0,0.0,0.0,0.0,0.0,0.0,0.0,0.0,0.0,0.0,0.0,0.0,0.0,0.0,0.0,0.0,0.0,0.0,0.0,0.0,0.0,0.0,0.0,0.0,0.0,0.0,0.0,0.0,0.0,0.0,0.0,0.0,0.0,0.0,0.0,0.0,0.0,0.0,0.0,0.0,0.0,0.0,0.0,0.0,0.0,0.0,0.0,0.0,0.0,0.0,0.0,0.0,0.0,0.0,0.0,0.0,0.0,0.0,0.0,0.0,0.0,0.0,0.0,0.0,0.0,0.0,0.0,0.0,0.0,0.0,0.0,0.0,0.0,0.0,0.0,0.0,0.0,0.0,0.0,0.0,0.0,0.0,0.0,0.0,0.0,0.0,0.0,0.0,0.0,0.0,0.0,0.0,0.0,0.0,0.0,0.0,0.0,0.0,0.0,0.0,0.0,0.0,0.0,0.0,0.0,0.0,0.0,0.0,0.0,2.5687,2.7304,2.7945,2.7643,2.7547,2.5773,0.0,0.0,0.0,0.0,0.0,0.0,0.0,0.0,0.0,0.0,0.0,0.0,0.0,0.0,0.0,0.0,0.0,0.0,0.0,0.0,0.0,0.0,0.0,0.0,0.0,0.0,0.0,0.0,0.0,0.0,0.0,0.0,0.0,0.0,0.0,0.0,0.0,0.0,0.0,0.0,0.0,0.0,0.0,0.0,0.0,0.0,0.0,0.0,0.0,0.0,0.0,0.0,0.0,0.0,0.0,0.0,0.0,0.0,0.0,0.0,0.0,0.0,0.0,0.0,0.0,0.0,0.0,0.0,0.0,0.0,0.0,0.0,0.0,0.0,0.0,0.0,0.0,0.0,0.0,0.0,0.0,0.0,0.0,0.0,0.0,0.0,0.0,0.0,0.0,0.0,0.0,0.0,0.0,0.0,0.0,0.0,0.0,0.0,0.0,0.0,0.0,0.0,0.0,0.0,0.0,0.0,0.0,0.0,0.0,2.5125,2.6159,2.7297,2.8344,2.5788,2.4065,0.0,0.0,0.0,0.0,0.0,0.0,0.0,0.0,0.0,0.0,0.0,0.0,0.0,0.0,0.0,0.0,0.0,0.0,0.0,0.0,0.0,0.0,0.0,0.0,0.0,0.0,0.0,0.0,0.0,0.0,0.0,0.0,0.0,0.0,0.0,0.0,0.0,0.0,0.0,0.0,0.0,0.0,0.0,0.0,0.0,0.0,0.0,0.0,0.0,0.0,0.0,0.0,0.0,0.0,0.0,0.0,0.0,0.0,0.0,0.0,0.0,0.0,0.0,0.0,0.0,0.0,0.0,0.0,0.0,0.0,0.0,0.0,0.0,0.0,0.0,0.0,0.0,0.0,0.0,0.0,0.0,0.0,0.0,0.0,0.0,0.0,0.0,0.0,0.0,0.0,0.0,0.0,0.0,0.0,0.0,0.0,0.0,0.0,0.0,0.0,0.0,0.0,0.0,0.0,0.0,0.0,0.0,0.0,0.0,2.6344,2.7116,2.8025,2.8944,2.6193,2.4395,2.3722,0.0,0.0,0.0,0.0,0.0,0.0,0.0,0.0,0.0,0.0,0.0,0.0,0.0,0.0,0.0,0.0,0.0,0.0,0.0,0.0,0.0,0.0,0.0,0.0,0.0,0.0,0.0,0.0,0.0,0.0,0.0,0.0,0.0,0.0,0.0,0.0,0.0,0.0,0.0,0.0,0.0,0.0,0.0,0.0,0.0,0.0,0.0,0.0,0.0,0.0,0.0,0.0,0.0,0.0,0.0,0.0,0.0,0.0,0.0,0.0,0.0,0.0,0.0,0.0,0.0,0.0,0.0,0.0,0.0,0.0,0.0,0.0,0.0,0.0,0.0,0.0,0.0,0.0,0.0,0.0,0.0,0.0,0.0,0.0,0.0,0.0,0.0,0.0,0.0,0.0,0.0,0.0,0.0,0.0,0.0,0.0,0.0,0.0,0.0,0.0,0.0,0.0,0.0,0.0,0.0,0.0,0.0,0.0,2.8867,2.9834,2.9998,2.9289,2.8225,2.6369,0.0,0.0,0.0,0.0,0.0,0.0,0.0,0.0,0.0,0.0,0.0,0.0,0.0,0.0,0.0,0.0,0.0,0.0,0.0,0.0,0.0,0.0,0.0,0.0,0.0,0.0,0.0,0.0,0.0,0.0,0.0,0.0,0.0,0.0,0.0,0.0,0.0,0.0,0.0,0.0,0.0,0.0,0.0,0.0,0.0,0.0,0.0,0.0,0.0,0.0,0.0,0.0,0.0,0.0,0.0,0.0,0.0,0.0,0.0,0.0,0.0,0.0,0.0,0.0,0.0,0.0,0.0,0.0,0.0,0.0,0.0,0.0,0.0,0.0,0.0,0.0,0.0,0.0,0.0,0.0,0.0,0.0,0.0,0.0,0.0,0.0,0.0,0.0,0.0,0.0,0.0,0.0,0.0,0.0,0.0,0.0,0.0,0.0,0.0,0.0,0.0,0.0,0.0,0.0,0.0,0.0,0.0,0.0,0.0,2.981,3.1424,3.1873,3.0981,2.7853,2.6364,0.0,0.0,0.0,0.0,0.0,0.0,0.0,0.0,0.0,0.0,0.0,0.0,0.0,0.0,0.0,0.0,0.0,0.0,0.0,0.0,0.0,0.0,0.0,0.0,0.0,0.0,0.0,0.0,0.0,0.0,0.0,0.0,0.0,0.0,0.0,0.0,0.0,0.0,0.0,0.0,0.0,0.0,0.0,0.0,0.0,0.0,0.0,0.0,0.0,0.0,0.0,0.0,0.0,0.0,0.0,0.0,0.0,0.0,0.0,0.0,0.0,0.0,0.0,0.0,0.0,0.0,0.0,0.0,0.0,0.0,0.0,0.0,0.0,0.0,0.0,0.0,0.0,0.0,0.0,0.0,0.0,0.0,0.0,0.0,0.0,0.0,0.0,0.0,0.0,0.0,0.0,0.0,0.0,0.0,0.0,0.0,0.0,0.0,0.0,0.0,0.0,0.0,0.0,0.0,0.0,0.0,0.0,0.0,2.92,3.1249,3.2441,3.2972,3.2824,2.9848,2.8043,0.0,0.0,0.0,0.0,0.0,0.0,0.0,0.0,0.0,0.0,0.0,0.0,0.0,0.0,0.0,0.0,0.0,0.0,0.0,0.0,0.0,0.0,0.0,0.0,0.0,0.0,0.0,0.0,0.0,0.0,0.0,0.0,0.0,0.0,0.0,0.0,0.0,0.0,0.0,0.0,0.0,0.0,0.0,0.0,0.0,0.0,0.0,0.0,0.0,0.0,0.0,0.0,0.0,0.0,0.0,0.0,0.0,0.0,0.0,0.0,0.0,0.0,0.0,0.0,0.0,0.0,0.0,0.0,0.0,0.0,0.0,0.0,0.0,0.0,0.0,0.0,0.0,0.0,0.0,0.0,0.0,0.0,0.0,0.0,0.0,0.0,0.0,0.0,0.0,0.0,0.0,0.0,0.0,0.0,0.0,0.0,0.0,0.0,0.0,0.0,0.0,0.0,0.0,0.0,0.0,0.0,0.0,0.0,3.0387,3.2875,3.3216,3.3707,3.4327,3.2762,3.0507,0.0,0.0,0.0,0.0,0.0,0.0,0.0,0.0,0.0,0.0,0.0,0.0,0.0,0.0,0.0,0.0,0.0,0.0,0.0,0.0,0.0,0.0,0.0,0.0,0.0,0.0,0.0,0.0,0.0,0.0,0.0,0.0,0.0,0.0,0.0,0.0,0.0,0.0,0.0,0.0,0.0,0.0,0.0,0.0,0.0,0.0,0.0,0.0,0.0,0.0,0.0,0.0,0.0,0.0,0.0,0.0,0.0,0.0,0.0,0.0,0.0,0.0,0.0,0.0,0.0,0.0,0.0,0.0,0.0,0.0,0.0,0.0,0.0,0.0,0.0,0.0,0.0,0.0,0.0,0.0,0.0,0.0,0.0,0.0,0.0,0.0,0.0,0.0,0.0,0.0,0.0,0.0,0.0,0.0,0.0,0.0,0.0,0.0,0.0,0.0,0.0,0.0,0.0,0.0,0.0,0.0,0.0,0.0,3.1929,3.3758,3.4685,3.4909,3.44,3.2227,3.104,0.0,0.0,0.0,0.0,0.0,0.0,0.0,0.0,0.0,0.0,0.0,0.0,0.0,0.0,0.0,0.0,0.0,0.0,0.0,0.0,0.0,0.0,0.0,0.0,0.0,0.0,0.0,0.0,0.0,0.0,0.0,0.0,0.0,0.0,0.0,0.0,0.0,0.0,0.0,0.0,0.0,0.0,0.0,0.0,0.0,0.0,0.0,0.0,2.9301,0.0,0.0,0.0,0.0,0.0,0.0,0.0,0.0,0.0,0.0,0.0,0.0,0.0,0.0,0.0,0.0,0.0,0.0,0.0,0.0,0.0,0.0,0.0,0.0,0.0,0.0,0.0,0.0,0.0,0.0,0.0,0.0,0.0,0.0,0.0,0.0,0.0,0.0,0.0,0.0,0.0,0.0,0.0,0.0,0.0,0.0,0.0,0.0,0.0,0.0,0.0,0.0,0.0,0.0,0.0,0.0,0.0,0.0,0.0,3.28,3.4113,3.5165,3.5471,3.4952,3.3063,3.1854,0.0,0.0,0.0,0.0,0.0,0.0,0.0,0.0,0.0,0.0,0.0,0.0,0.0,0.0,0.0,0.0,0.0,0.0,0.0,0.0,0.0,0.0,0.0,0.0,0.0,0.0,0.0,0.0,0.0,0.0,0.0,0.0,0.0,0.0,0.0,0.0,0.0,0.0,0.0,0.0,0.0,0.0,0.0,0.0,0.0,0.0,0.0,0.0,0.0,0.0,0.0,0.0,0.0,0.0,0.0,0.0,0.0,0.0,0.0,0.0,0.0,0.0,0.0,0.0,0.0,0.0,0.0,0.0,0.0,0.0,0.0,0.0,0.0,0.0,0.0,0.0,0.0,0.0,0.0,0.0,0.0,0.0,0.0,0.0,0.0,0.0,0.0,0.0,0.0,0.0,0.0,0.0,0.0,0.0,0.0,0.0,0.0,0.0,0.0,0.0,0.0,0.0,0.0,0.0,0.0,0.0,0.0,3.1456,3.348,3.4379,3.5389,3.5839,3.5689,3.4202,3.2715,0.0,0.0,0.0,0.0,0.0,0.0,0.0,0.0,0.0,0.0,0.0,0.0,0.0,0.0,0.0,0.0,0.0,0.0,0.0,0.0,0.0,0.0,0.0,0.0,0.0,0.0,0.0,0.0,0.0,0.0,0.0,0.0,0.0,0.0,0.0,0.0,0.0,0.0,0.0,2.619,2.7875,0.0,0.0,0.0,0.0,0.0,0.0,0.0,0.0,3.04,0.0,0.0,0.0,0.0,0.0,0.0,0.0,0.0,0.0,0.0,0.0,0.0,0.0,0.0,0.0,0.0,0.0,0.0,0.0,0.0,0.0,0.0,0.0,0.0,0.0,0.0,0.0,0.0,0.0,0.0,0.0,0.0,0.0,0.0,0.0,0.0,0.0,0.0,0.0,0.0,0.0,0.0,0.0,0.0,0.0,0.0,0.0,0.0,0.0,0.0,0.0,0.0,0.0,0.0,0.0,0.0,3.1032,3.2994,3.4378,3.5276,3.6259,3.6459,3.5689,3.4202,3.3261,3.2888,0.0,0.0,0.0,0.0,0.0,0.0,0.0,0.0,0.0,0.0,0.0,0.0,0.0,0.0,0.0,0.0,0.0,0.0,0.0,0.0,0.0,0.0,0.0,0.0,0.0,0.0,0.0,0.0,0.0,0.0,0.0,0.0,0.0,0.0,0.0,0.0,0.0,0.0,0.0,3.1053,3.2031,0.0,0.0,0.0,0.0,0.0,0.0,0.0,0.0,3.0455,0.0,0.0,0.0,0.0,0.0,0.0,0.0,0.0,0.0,0.0,0.0,0.0,0.0,0.0,0.0,0.0,0.0,0.0,0.0,0.0,0.0,0.0,0.0,0.0,0.0,0.0,0.0,0.0,0.0,0.0,0.0,0.0,0.0,0.0,0.0,0.0,0.0,0.0,0.0,0.0,0.0,0.0,0.0,0.0,0.0,0.0,0.0,0.0,0.0,0.0,0.0,0.0,0.0,0.0,0.0,3.166,3.3795,3.5303,3.6196,3.6745,3.6808,3.6408,3.4464,3.339,0.0,0.0,0.0,0.0,0.0,0.0,0.0,0.0,0.0,0.0,0.0,0.0,0.0,0.0,0.0,0.0,0.0,0.0,0.0,0.0,0.0,0.0,0.0,0.0,0.0,0.0,0.0,0.0,0.0,0.0,0.0,0.0,0.0,0.0,0.0,0.0,0.0,0.0,0.0,0.0,3.1621,3.1953,3.1581,0.0,0.0,0.0,0.0,0.0,0.0,3.0992,3.061,0.0,0.0,0.0,0.0,0.0,0.0,0.0,0.0,0.0,0.0,0.0,0.0,0.0,0.0,0.0,0.0,0.0,0.0,0.0,0.0,0.0,0.0,0.0,0.0,0.0,0.0,0.0,0.0,0.0,0.0,0.0,0.0,0.0,0.0,0.0,0.0,0.0,0.0,0.0,0.0,0.0,0.0,0.0,0.0,0.0,0.0,0.0,0.0,0.0,0.0,0.0,0.0,0.0,0.0,0.0,3.1742,3.4379,3.6106,3.6872,3.7117,3.7195,3.7065,3.4713,3.331,0.0,0.0,0.0,0.0,0.0,0.0,0.0,0.0,0.0,0.0,0.0,0.0,0.0,0.0,0.0,0.0,0.0,0.0,0.0,0.0,0.0,0.0,0.0,0.0,0.0,0.0,0.0,0.0,0.0,0.0,0.0,0.0,0.0,0.0,0.0,0.0,0.0,0.0,0.0,0.0,0.0,3.1992,3.2148,3.1828,0.0,0.0,0.0,0.0,3.2047,3.2107,0.0,0.0,0.0,0.0,0.0,0.0,0.0,0.0,0.0,0.0,0.0,0.0,0.0,0.0,0.0,0.0,0.0,0.0,0.0,0.0,0.0,0.0,0.0,0.0,0.0,0.0,0.0,0.0,0.0,0.0,0.0,0.0,0.0,0.0,0.0,0.0,0.0,0.0,0.0,0.0,0.0,0.0,0.0,0.0,0.0,0.0,0.0,0.0,0.0,0.0,0.0,0.0,0.0,0.0,0.0,0.0,3.1832,3.4931,3.6691,3.6927,3.7647,3.7755,3.7091,3.4686,3.3041,0.0,0.0,0.0,0.0,0.0,0.0,0.0,0.0,0.0,0.0,0.0,0.0,0.0,0.0,0.0,0.0,0.0,0.0,0.0,0.0,0.0,0.0,0.0,0.0,0.0,0.0,0.0,0.0,0.0,0.0,0.0,0.0,0.0,0.0,0.0,0.0,0.0,0.0,0.0,0.0,0.0,3.4605,3.2399,3.3339,3.3981,0.0,0.0,0.0,3.6305,3.6542,0.0,0.0,0.0,0.0,0.0,0.0,0.0,0.0,0.0,0.0,0.0,0.0,0.0,0.0,0.0,0.0,0.0,0.0,0.0,0.0,0.0,0.0,0.0,0.0,0.0,0.0,0.0,0.0,0.0,0.0,0.0,0.0,0.0,0.0,0.0,0.0,0.0,0.0,0.0,0.0,0.0,0.0,0.0,0.0,0.0,0.0,0.0,0.0,0.0,0.0,0.0,0.0,0.0,0.0,0.0,0.0,3.3297,3.6118,3.7666,3.7762,3.8132,3.7951,3.7168,3.4708,3.2993,0.0,0.0,0.0,0.0,0.0,0.0,0.0,0.0,0.0,0.0,0.0,0.0,0.0,0.0,0.0,0.0,0.0,0.0,0.0,0.0,0.0,0.0,0.0,0.0,0.0,0.0,0.0,0.0,0.0,0.0,0.0,0.0,0.0,0.0,0.0,0.0,0.0,0.0,0.0,0.0,0.0,0.0,3.4999,3.4857,0.0,0.0,0.0,3.6006,3.7762,0.0,0.0,0.0,0.0,0.0,0.0,0.0,0.0,0.0,0.0,0.0,0.0,0.0,0.0,0.0,0.0,0.0,0.0,0.0,0.0,0.0,0.0,0.0,0.0,0.0,0.0,0.0,0.0,0.0,0.0,0.0,0.0,0.0,0.0,0.0,0.0,0.0,0.0,0.0,0.0,0.0,0.0,0.0,0.0,0.0,0.0,0.0,0.0,0.0,0.0,0.0,0.0,0.0,0.0,0.0,0.0,0.0,3.4436,3.6971,3.8327,3.839,3.8399,3.8022,3.7213,3.474,0.0,0.0,0.0,0.0,0.0,0.0,0.0,0.0,0.0,0.0,0.0,0.0,0.0,0.0,0.0,0.0,0.0,0.0,0.0,0.0,0.0,0.0,0.0,0.0,0.0,0.0,0.0,0.0,0.0,0.0,0.0,0.0,0.0,0.0,0.0,0.0,0.0,0.0,0.0,0.0,0.0,0.0,3.4823,3.6988,3.6543,3.6815,0.0,0.0,3.7819,3.9312,3.8843,3.7224,0.0,0.0,0.0,0.0,0.0,0.0,0.0,0.0,0.0,0.0,0.0,0.0,0.0,0.0,0.0,0.0,0.0,0.0,0.0,0.0,0.0,0.0,0.0,0.0,0.0,0.0,0.0,0.0,0.0,0.0,0.0,0.0,0.0,0.0,0.0,0.0,0.0,0.0,0.0,0.0,0.0,0.0,0.0,0.0,0.0,0.0,0.0,0.0,0.0,0.0,0.0,0.0,0.0,0.0,0.0,3.4478,3.7012,3.8323,3.8383,3.8385,3.8045,3.7285,3.4766,3.2637,0.0,0.0,0.0,0.0,0.0,0.0,0.0,0.0,0.0,0.0,0.0,0.0,0.0,0.0,0.0,0.0,0.0,0.0,0.0,0.0,0.0,0.0,0.0,0.0,0.0,0.0,0.0,0.0,0.0,0.0,0.0,0.0,0.0,0.0,0.0,0.0,0.0,0.0,0.0,0.0,0.0,3.6083,3.7076,3.8505,4.0097,0.0,0.0,4.1098,4.1986,4.3373,4.2165,3.568,0.0,0.0,0.0,0.0,0.0,0.0,0.0,0.0,0.0,0.0,0.0,0.0,0.0,0.0,0.0,0.0,0.0,0.0,0.0,0.0,0.0,0.0,0.0,0.0,0.0,0.0,0.0,0.0,0.0,0.0,0.0,0.0,0.0,0.0,0.0,0.0,0.0,0.0,0.0,0.0,0.0,0.0,0.0,0.0,0.0,0.0,0.0,0.0,0.0,0.0,0.0,0.0,0.0,3.2822,3.5317,3.7375,3.8436,3.8458,3.8501,3.7888,3.6523,3.4473,3.2871,0.0,0.0,0.0,0.0,0.0,0.0,0.0,0.0,0.0,0.0,0.0,0.0,0.0,0.0,0.0,0.0,0.0,0.0,0.0,0.0,0.0,0.0,0.0,0.0,0.0,0.0,0.0,0.0,2.1285,2.1839,2.2672,0.0,0.0,0.0,0.0,0.0,0.0,0.0,0.0,0.0,0.0,3.8005,3.9351,4.0565,0.0,0.0,4.288,4.2943,4.3847,4.2731,4.0668,3.7549,3.4805,0.0,0.0,0.0,0.0,0.0,0.0,0.0,0.0,0.0,0.0,0.0,0.0,0.0,0.0,0.0,0.0,0.0,0.0,0.0,0.0,0.0,0.0,0.0,0.0,0.0,0.0,0.0,0.0,0.0,0.0,0.0,0.0,0.0,0.0,0.0,0.0,0.0,0.0,0.0,0.0,0.0,0.0,0.0,0.0,0.0,0.0,0.0,0.0,0.0,0.0,0.0,0.0,3.3098,3.5866,3.762,3.8632,3.8888,3.8709,3.8027,3.6797,3.4824,3.3398,0.0,0.0,0.0,0.0,0.0,0.0,0.0,0.0,0.0,0.0,0.0,0.0,0.0,0.0,0.0,0.0,0.0,0.0,0.0,0.0,0.0,0.0,0.0,0.0,0.0,0.0,0.0,0.0,2.2801,2.2975,2.3827,0.0,0.0,0.0,0.0,0.0,0.0,0.0,0.0,0.0,0.0,3.9402,4.1073,4.2041,4.2848,4.3509,4.315,4.3005,4.3676,4.1885,3.98,3.7987,0.0,0.0,0.0,0.0,0.0,0.0,0.0,0.0,0.0,0.0,0.0,0.0,0.0,0.0,0.0,0.0,0.0,0.0,0.0,0.0,0.0,0.0,0.0,0.0,0.0,0.0,0.0,0.0,0.0,0.0,0.0,0.0,0.0,0.0,0.0,0.0,0.0,0.0,0.0,0.0,0.0,0.0,0.0,0.0,0.0,0.0,0.0,0.0,0.0,0.0,0.0,0.0,0.0,0.0,3.5853,3.7629,3.893,3.97,3.9003,3.8594,3.8457,3.6035,3.4258,3.332,0.0,0.0,0.0,0.0,0.0,0.0,0.0,0.0,0.0,0.0,0.0,0.0,0.0,0.0,0.0,0.0,0.0,0.0,0.0,0.0,0.0,0.0,0.0,0.0,0.0,0.0,2.2926,2.2314,2.2167,0.0,0.0,0.0,0.0,0.0,0.0,0.0,0.0,0.0,0.0,3.8313,4.0101,4.1763,4.2734,4.3343,4.3417,4.2084,4.1041,4.1126,4.1579,4.0649,0.0,0.0,0.0,0.0,0.0,0.0,0.0,0.0,0.0,0.0,0.0,0.0,0.0,0.0,0.0,0.0,0.0,0.0,0.0,0.0,0.0,0.0,0.0,0.0,0.0,0.0,0.0,0.0,2.8283,0.0,0.0,0.0,0.0,0.0,0.0,0.0,0.0,0.0,0.0,0.0,3.427,3.3984,0.0,0.0,0.0,0.0,0.0,0.0,0.0,0.0,0.0,0.0,0.0,0.0,3.3644,3.5947,3.8208,3.9508,3.9785,3.9528,3.9109,3.8528,3.712,3.4884,3.1774,0.0,0.0,0.0,0.0,0.0,0.0,0.0,0.0,0.0,0.0,0.0,0.0,0.0,0.0,0.0,0.0,0.0,0.0,0.0,0.0,0.0,0.0,0.0,0.0,0.0,2.3379,0.0,0.0,0.0,0.0,0.0,0.0,0.0,0.0,0.0,0.0,0.0,3.4758,3.8085,4.0049,4.1583,4.2705,4.3608,4.4175,0.0,0.0,0.0,0.0,0.0,0.0,0.0,0.0,0.0,0.0,0.0,0.0,0.0,0.0,4.2246,3.5448,3.4004,3.3848,3.3827,0.0,0.0,0.0,0.0,0.0,0.0,0.0,0.0,0.0,0.0,0.0,0.0,0.0,0.0,0.0,0.0,3.0911,0.0,0.0,0.0,0.0,0.0,0.0,0.0,0.0,3.4539,3.5819,3.6354,3.6337,3.5762,0.0,3.5254,3.3499,0.0,0.0,0.0,0.0,0.0,0.0,0.0,0.0,3.4717,3.6443,3.8944,4.0234,4.0222,4.0211,3.9942,3.9372,3.7947,3.5598,3.2226,3.1003,2.9488,0.0,0.0,0.0,0.0,0.0,0.0,0.0,0.0,0.0,0.0,0.0,0.0,0.0,0.0,0.0,0.0,0.0,0.0,0.0,0.0,0.0,0.0,0.0,2.4606,0.0,0.0,0.0,0.0,0.0,0.0,0.0,0.0,0.0,3.259,3.49,3.7398,3.9907,4.1179,4.2201,4.3106,0.0,0.0,0.0,0.0,0.0,0.0,0.0,4.0861,4.2673,4.2038,4.16,4.2505,4.4785,4.6053,4.4577,0.0,0.0,3.9811,3.8417,3.8307,3.8642,3.9589,4.0272,4.0039,4.1521,4.2593,0.0,0.0,0.0,0.0,0.0,0.0,0.0,0.0,3.3633,3.3971,0.0,3.3696,0.0,0.0,0.0,0.0,0.0,0.0,0.0,0.0,3.7594,3.869,3.7323,3.7288,3.7253,3.7248,3.7237,3.633,3.4577,3.2138,0.0,0.0,0.0,0.0,0.0,0.0,3.5546,3.7255,3.9812,4.1095,4.1033,4.1025,4.1025,4.0889,3.8551,3.6445,3.471,3.3046,3.1742,3.0774,2.7528,0.0,0.0,0.0,0.0,0.0,0.0,0.0,0.0,0.0,0.0,0.0,0.0,0.0,0.0,0.0,0.0,0.0,0.0,0.0,0.0,2.5156,0.0,0.0,0.0,0.0,0.0,0.0,0.0,0.0,0.0,0.0,3.4456,3.6613,3.9083,4.1522,0.0,0.0,0.0,0.0,4.2984,4.3261,4.2527,4.2335,4.3151,4.3805,4.4292,4.445,0.0,0.0,4.4159,4.5792,4.6668,4.4174,4.5933,4.7685,4.8413,4.6223,4.4942,4.5718,4.4715,4.4176,4.4941,4.5741,4.6423,3.9392,0.0,0.0,0.0,0.0,3.6696,3.764,3.9529,3.8922,3.8095,3.7164,3.6882,0.0,0.0,0.0,0.0,0.0,0.0,3.6592,3.8472,3.9841,4.08,4.148,4.1552,4.1271,4.0653,4.0034,3.8887,3.7226,3.5857,3.378,3.1051,0.0,0.0,0.0,0.0,3.6302,3.803,4.052,4.1804,4.179,4.1785,4.1475,4.0805,3.8956,3.7451,3.6338,3.4701,3.2858,3.0888,2.9223,0.0,0.0,0.0,0.0,0.0,0.0,0.0,0.0,0.0,0.0,0.0,0.0,0.0,0.0,0.0,0.0,0.0,0.0,0.0,2.5216,2.5467,2.5784,0.0,0.0,0.0,0.0,0.0,0.0,0.0,0.0,0.0,3.749,3.8556,4.0291,0.0,0.0,4.238,4.2699,4.3781,4.4863,4.5694,0.0,0.0,0.0,4.497,4.4735,4.6023,4.7712,4.8844,4.8791,4.9371,4.9642,4.882,4.9357,4.9982,5.012,4.8344,4.6878,4.7031,4.7604,4.8223,4.8583,4.9294,4.9844,4.4225,4.1879,4.0603,4.0618,4.1387,4.0745,4.1634,4.3476,4.2186,4.1437,4.1041,4.0099,3.8446,3.6376,3.5406,0.0,0.0,0.0,3.8784,4.1065,4.1512,4.2254,4.3195,4.3266,4.303,4.2518,4.1989,4.1239,4.028,3.9402,3.7817,3.5492,0.0,0.0,3.4708,3.6099,3.7456,3.8801,4.097,4.2078,4.205,4.205,4.1464,4.0255,3.893,3.7845,3.6988,3.5687,3.4113,3.2301,3.1083,2.9396,0.0,0.0,0.0,0.0,0.0,0.0,0.0,0.0,0.0,0.0,0.0,2.3319,0.0,0.0,0.0,0.0,2.528,2.6874,2.755,2.7526,0.0,0.0,0.0,0.0,0.0,0.0,0.0,3.4898,3.8504,4.0806,4.0476,4.0587,4.1385,4.3152,4.2747,4.2708,4.3805,0.0,4.5693,4.7059,4.7328,4.7509,4.7836,4.7028,4.6814,4.8268,4.933,5.0228,5.0782,5.0898,5.089,5.0866,5.0893,5.0914,5.0966,4.9762,4.8852,4.8918,4.9737,5.0469,5.0583,5.1006,5.1363,4.7746,4.7556,4.4662,4.3948,4.4685,4.4355,4.4852,4.5789,4.4034,4.4054,4.5189,4.3102,4.1948,4.1437,3.9328,0.0,0.0,4.0427,4.1226,4.2082,4.2906,4.328,4.3261,4.3299,4.3322,4.337,4.3336,4.3324,4.3323,4.2491,4.1703,4.0849,3.786,3.6671,3.7273,3.813,3.8908,3.9644,4.131,4.211,4.1983,4.1963,4.1184,3.9599,3.8646,3.7776,3.6971,3.6123,3.5258,3.4357,3.2895,3.1255,2.9407,0.0,0.0,0.0,0.0,0.0,0.0,0.0,0.0,0.0,0.0,0.0,0.0,0.0,0.0,0.0,2.7329,0.0,3.061,3.0602,0.0,0.0,0.0,3.1887,3.3118,3.5107,3.6704,3.751,0.0,0.0,0.0,0.0,4.2281,4.3263,4.2641,4.2985,4.5464,4.5431,4.5818,4.7589,4.8094,4.8558,4.924,4.9327,4.9528,5.0334,5.0784,5.0771,5.0833,5.0866,5.0861,5.0801,5.0852,5.089,5.0898,5.0831,5.1024,5.106,5.1146,5.1203,5.1286,5.1341,5.1367,4.948,4.9428,4.8549,4.7634,4.6784,4.6675,4.6832,4.7043,4.6606,4.5916,4.5058,4.4499,4.3524,4.2231,4.1569,4.1802,4.2742,4.2927,4.348,4.4319,4.4632,4.4787,4.4787,4.4768,4.4872,4.4985,4.4355,4.4087,4.4094,4.3313,4.2832,4.2621,4.1685,4.0654,3.9588,4.038,4.0825,4.0874,4.2035,4.2326,4.1722,4.1694,4.1106,3.9898,3.8495,3.7647,3.7436,3.6176,3.502,3.407,3.3163,3.1863,2.999,2.8574,0.0,0.0,0.0,0.0,0.0,0.0,0.0,0.0,0.0,2.6119,2.3227,0.0,2.8018,0.0,2.9543,3.1038,3.127,3.1839,0.0,0.0,3.402,3.4916,3.9218,3.9777,4.0138,4.1,4.3087,4.3802,4.1959,4.2434,4.2812,4.2504,4.2645,4.3185,4.4079,4.5282,4.6557,4.8035,4.9008,4.9736,5.0046,5.0306,5.0384,5.0504,5.0624,5.0693,5.0565,5.0644,5.073,5.0731,5.074,5.0794,5.0893,5.0914,5.0988,5.1163,5.1211,5.1205,5.1242,5.1261,5.1275,4.9577,4.9544,4.9446,4.8897,4.815,4.8207,4.8418,4.8605,4.7969,4.7222,4.6385,4.5942,4.5293,4.4536,4.4424,4.4714,4.5174,4.4843,4.4969,4.5381,4.5121,4.5011,4.5074,4.5074,4.5188,4.5351,4.4959,4.4728,4.4681,4.4277,4.4008,4.3962,4.3758,4.3134,4.2123,4.1966,4.1871,4.1751,4.2232,4.2115,4.1367,4.1368,4.0737,3.94,3.8128,3.7128,3.6414,3.5277,3.4246,3.3393,3.2666,3.1789,3.0718,2.9174,2.7523,0.0,0.0,0.0,0.0,0.0,0.0,0.0,0.0,0.0,0.0,0.0,2.8727,0.0,0.0,0.0,3.4283,3.492,3.6217,3.8433,3.7898,3.8834,4.2516,4.2659,4.2677,4.3041,4.3794,4.3558,4.1754,4.1461,4.1302,4.0972,4.1116,4.1952,4.3684,4.5112,4.6433,4.7895,4.8968,4.969,4.9955,5.0166,5.0256,5.0186,5.0385,5.0532,5.0407,5.0563,5.0683,5.0683,5.0683,5.074,5.0836,5.0874,5.0944,5.1063,5.1165,5.1197,5.1215,5.1213,5.123,4.889,4.889,4.889,4.889,4.8909,4.9044,4.9446,4.9863,4.8585,4.8072,4.8093,4.7102,4.6739,4.693,4.6896,4.6915,4.6854,4.6191,4.5885,4.5848,4.5173,4.4913,4.5048,4.5048,4.5085,4.519,4.5309,4.5271,4.5049,4.5038,4.4943,4.4763,4.4637,4.4479,4.4261,4.3107,4.2459,4.2394,4.2184,4.1693,4.0995,4.0999,4.0216,3.8577,3.7583,3.6354,3.4879,3.4072,3.338,3.2786,3.2125,3.1687,3.1435,2.9275,2.7599,0.0,2.52,0.0,0.0,0.0,0.0,0.0,0.0,0.0,0.0,2.8574,2.9579,3.1112,3.4712,3.7242,3.7961,3.8571,3.9842,4.1948,4.2114,4.2567,4.396,4.4271,4.423,4.3924,4.2837,4.1978,4.1359,3.988,3.9003,3.9258,3.9146,4.0095,4.2934,4.4283,4.5446,4.7094,4.8179,4.8904,4.9228,4.9528,4.9692,4.9725,5.0081,5.034,5.034,5.0523,5.0683,5.0683,5.0683,5.0721,5.0784,5.085,5.0929,5.1009,5.1095,5.1206,5.1211,5.121,5.1217,4.889,4.889,4.889,4.889,4.8891,4.8767,4.8872,4.909,4.8824,4.8362,4.7725,4.6857,4.6485,4.6517,4.6403,4.642,4.6515,4.6355,4.6283,4.6291,4.6289,4.6319,4.6348,4.6348,4.6107,4.5676,4.569,4.5363,4.4688,4.4701,4.4688,4.4618,4.4438,4.4346,0.0,0.0,0.0,0.0,4.2214,4.1477,4.0715,4.0678,3.9845,3.8077,3.6609,0.0,3.4461,3.379,3.3353,3.3139,3.3167,0.0,0.0,0.0,0.0,0.0,0.0,0.0,0.0,0.0,0.0,0.0,3.1971,3.1279,2.8932,3.227,3.4776,3.5166,3.769,3.9294,3.9203,4.0477,4.1946,4.3394,4.3296,4.3587,4.4782,4.4392,4.3691,4.2877,4.204,4.0856,3.9161,3.8346,3.8032,3.8088,3.8076,3.8537,3.9762,4.1707,4.3467,4.5146,4.671,4.7905,4.8248,4.8698,4.9002,4.9212,4.9733,5.0106,5.0188,5.0459,5.0683,5.0683,5.0683,5.0721,5.0775,5.085,5.0921,5.1002,5.1114,5.1202,5.1206,5.1206,5.1211,4.8605,0.0,4.8421,4.8439,0.0,4.8326,4.8364,4.8605,4.8587,4.8384,4.7978,4.7535,4.735,4.7332,4.7279,4.726,4.7332,4.6924,4.6758,4.6741,4.6436,4.6349,4.6469,4.6469,4.6342,4.6094,4.5781,4.5387,4.4884,4.4501,4.4285,4.4192,4.3996,4.3921,4.3905,4.3732,4.3513,4.3259,4.2461,4.1694,4.0969,4.0556,3.9547,3.784,0.0,0.0,0.0,0.0,0.0,0.0,0.0,0.0,0.0,0.0,0.0,3.156,3.1534,3.177,3.2222,3.1928,3.2266,3.3525,3.4251,3.4026,3.2505,3.5143,3.7147,3.7911,4.0148,4.1594,4.161,4.2649,4.3608,4.4218,4.3629,4.3566,4.4387,4.3652,4.2352,4.098,4.0102,3.891,3.7112,3.6614,3.6553,3.6691,3.6844,3.7122,3.7769,3.9499,4.1439,4.3122,4.4284,4.5401,4.6239,4.6837,4.7573,4.8271,4.9064,4.965,5.005,5.0329,5.0593,5.0663,5.0683,5.0712,5.074,5.0821,5.0866,5.0925,5.1023,5.1127,5.119,5.1202,5.1202,4.8113,4.8111,4.7813,4.7854,4.8093,4.7875,4.7955,4.821,0.0,0.0,0.0,4.8324,4.8324,4.8324,4.8324,4.8324,4.8269,4.7608,4.7314,4.7278,4.6636,4.6415,4.6558,4.6577,4.6555,4.6488,4.5866,4.5419,4.5094,4.4308,4.3855,4.3718,4.3583,4.3479,4.3479,4.3479,4.3479,4.3461,4.2855,4.2187,4.1491,4.084,3.9641,3.7925,3.7091,3.5878,3.4247,3.3572,3.2988,3.2449,3.2635,3.2713,3.2601,3.3363,3.3851,3.3869,3.447,3.4937,3.5164,3.5164,3.5417,3.5932,3.6346,3.6744,3.7148,3.7833,3.8798,4.0246,4.2077,4.3215,4.3356,4.3723,4.4098,4.4268,4.3302,4.2876,4.3304,4.2243,4.0629,3.8824,3.7869,3.689,3.5582,3.5228,3.5157,3.5529,3.5847,3.6052,3.6553,3.8104,3.9899,4.1404,4.2274,4.2817,4.3804,4.4659,4.5552,4.6982,4.7942,4.8784,4.9542,4.9968,5.0214,5.0275,5.0453,5.0534,5.0575,5.0654,5.0764,5.0866,5.0944,5.0997,5.1108,5.1146,5.1153,4.7454,4.7414,4.7389,4.7389,4.7454,4.7671,4.7834,4.7895,4.8172,4.8306,4.8324,4.8324,4.8324,4.8324,4.8324,4.8324,4.8287,4.8177,4.8122,0.0,4.8012,4.7957,4.8014,4.7995,4.7646,4.6967,4.6231,4.5477,4.4743,4.3968,4.3565,4.3549,4.3515,4.3479,4.3479,4.3479,4.3479,4.3479,4.3386,4.2945,4.2173,4.2044,4.0887,3.8664,3.7798,3.657,3.4922,3.4865,3.4816,3.475,3.5659,3.5868,3.5147,3.5368,3.554,3.5559,3.5672,3.5994,3.6575,3.6601,3.7766,4.0235,4.0429,4.0515,4.0955,4.0956,4.1493,4.2802,4.2975,4.2795,4.2094,4.1729,4.1906,4.2511,4.2023,4.1382,4.0765,3.9852,3.8591,3.6784,3.6038,3.5573,3.4883,3.4714,3.4876,3.5362,3.5539,3.5716,3.6286,3.7636,3.9163,4.028,4.1111,4.1594,4.1967,4.2715,4.3812,4.5011,4.6101,4.711,4.8197,4.8735,4.9055,4.922,4.9537,4.9892,5.0104,5.0383,5.0538,5.0718,5.083,5.0914,5.0944,5.0963,5.1,4.7298,4.7276,4.7102,4.7143,4.7302,4.7475,4.7627,4.7793,4.7752,4.777,4.779,4.7953,4.7915,4.779,4.7953,4.8034,4.8015,4.8229,4.8324,4.8324,4.8324,4.8324,4.8324,4.8324,4.8008,4.7469,4.6873,4.6174,4.5411,4.4399,4.3889,4.3853,4.3629,4.3479,4.3479,4.3479,4.3479,4.3479,4.3479,4.3094,4.2323,4.2304,4.1552,4.0047,3.9221,3.823,3.7041,3.6654,3.6255,3.5814,3.635,3.6512,3.6127,3.6646,3.7169,3.7598,3.7635,3.815,3.9314,3.9263,3.9919,4.1537,4.0722,4.0546,4.1506,4.1098,4.1281,4.2391,4.2153,4.1903,4.1775,4.1151,4.0802,4.0857,3.9771,3.8748,3.8013,3.7277,3.6321,3.5106,3.4937,3.4763,3.4221,3.4428,3.4662,3.5004,3.5264,3.5651,3.6178,3.6785,3.7529,3.8364,3.895,3.9518,4.0111,4.0955,4.215,4.369,4.4712,4.5628,4.6642,4.7146,4.7419,4.7795,4.819,4.8653,4.9126,4.9606,4.9973,5.0399,5.0596,5.0699,5.083,5.0811,5.0824,4.7039,4.7012,4.669,4.676,4.7062,4.7039,4.724,4.7542,4.72,4.7039,4.7017,4.746,4.7542,4.7345,4.7648,4.7793,4.7854,4.8152,4.8324,4.8324,4.8324,4.8324,4.8324,4.8324,4.8113,4.7763,4.725,4.669,4.6038,4.4921,4.4261,4.4081,4.378,4.3594,4.341,4.348,4.348,4.3392,4.3462,4.3185,4.2598,4.2561,4.2176,4.1389,4.0763,4.0065,3.9276,3.8634,3.801,3.7441,3.7518,3.7566,3.7603,3.828,3.9073,3.9797,3.9737,4.0107,4.1108,4.1048,4.1123,4.154,4.0213,3.9861,4.0887,4.0281,4.0223,4.1183,4.0863,4.0607,4.0595,3.9959,3.9304,3.8742,3.7529,3.6539,3.5854,3.5311,3.4695,3.3988,3.4158,3.4274,3.4138,3.4327,3.4662,3.489,3.5198,3.5716,3.6195,3.6132,3.6258,3.6739,3.7121,3.7626,3.8501,3.9202,4.0426,4.2297,4.3209,4.4117,4.5005,4.5444,4.5688,4.627,4.6639,4.7146,4.7905,4.8509,4.9078,4.9657,5.008,5.0374,5.0421,5.0272,5.0354,4.6319,4.627,4.6038,4.6077,4.6382,4.6332,4.6518,4.6829,4.6537,4.6207,4.607,4.6908,4.7284,4.7345,4.7588,4.7733,4.7793,4.8132,4.8267,4.8267,4.8324,4.8305,4.8267,4.8267,4.8113,4.7702,4.7011,4.6463,4.6047,4.5228,4.4479,4.3856,4.3988,4.3796,4.3214,4.3376,4.3358,4.305,4.3357,4.3478,4.3404,4.3404,4.3002,4.2213,4.2121,4.1682,4.0857,4.0802,4.071,4.0671,4.0685,4.08,4.0815,4.1026,4.1505,4.218,4.1642,4.1111,4.0666,4.0456,4.0503,4.0627,3.9983,3.9665,4.0201,3.9156,3.9067,4.0176,3.9767,3.8828,3.7979,3.6968,3.6444,3.6471,3.5963,3.5404,3.4898,3.4691,3.4428,3.3899,3.3988,3.4022,3.4476,3.4629,3.4843,3.5264,3.5392,3.5634,3.5973,3.602,3.6084,3.6429,3.6585,3.6631,3.6986,3.7391,3.8747,4.0268,4.1177,4.2234,4.336,4.416,4.4639,4.4328,4.5129,4.5668,4.6324,4.7137,4.7923,4.8685,4.9267,4.9773,4.9547,4.9343,4.9423,4.5879,4.5752,4.5955,4.6144,4.6255,4.5895,4.5938,4.6207,4.5903,4.5692,4.5606,4.6003,4.6193,4.62,4.6531,4.6763,4.6941,4.7313,4.7563,4.7708,4.7708,4.7708,4.7708,4.7524,4.7291,4.6945,4.661,4.6196,4.5705,4.5234,4.4636,4.4009,4.4381,4.4444,4.4155,4.4256,4.404,4.3453,4.4022,4.4098,4.3647,4.3342,4.305,4.2758,4.2704,4.2445,4.1886,4.1809,4.1589,4.1167,4.116,4.1174,4.1192,4.122,4.1519,4.207,4.176,4.1218,4.0604,4.0105,4.0095,4.066,3.9605,3.9109,3.9452,3.8619,3.8356,3.8712,3.7866,3.6693,3.5773,3.5017,3.4618,3.4677,3.4591,3.4423,3.4172,3.4428,3.4495,3.4327,3.4606,3.4854,3.5052,3.5118,3.5231,3.5457,3.5489,3.5634,3.5925,3.5829,3.5861,3.6068,3.6052,3.621,3.6647,3.7222,3.8052,3.8962,3.9685,4.0564,4.1181,4.1831,4.2138,4.2116,4.3134,4.3887,4.4217,4.5497,4.6569,4.7489,4.8424,4.899,4.8933,4.8678,4.8553,4.5684,4.5598,4.5854,4.5988,4.591,4.5563,4.5537,4.5708,4.5424,4.5283,4.5283,4.5203,4.5177,4.5239,4.5665,4.6,4.622,4.6595,4.6868,4.7044,4.7066,4.7049,4.7044,4.6868,4.6572,4.6262,4.6233,4.5957,4.5433,4.5254,4.4802,4.4249,4.4564,4.4741,4.4585,4.4614,4.4353,4.3906,4.4471,4.4453,4.382,4.351,4.3368,4.334,4.334,4.3105,4.2655,4.2635,4.2359,4.1791,4.1772,4.1722,4.1637,4.162,4.1648,4.168,4.158,4.1186,4.0518,3.968,3.9517,4.0018,3.8991,3.8356,3.8294,3.7983,3.7526,3.701,3.6246,3.5544,3.5039,3.436,3.4094,3.4203,3.4283,3.4254,3.4308,3.4624,3.4872,3.489,3.5166,3.5489,3.5489,3.5457,3.5457,3.5489,3.5489,3.5569,3.5733,3.5524,3.5329,3.5559,3.5394,3.5686,3.6523,3.6846,3.7446,3.8177,3.8752,3.9081,3.936,4.0024,4.0531,4.1231,4.1812,4.2443,4.321,4.4276,4.5613,4.6615,4.7556,4.8145,4.7993,4.7801,4.7313,4.5803,4.5735,4.5546,4.531,4.5086,4.5283,4.5389,4.5372,4.5123,4.5032,4.4978,4.4793,4.4654,4.4737,4.5451,4.5875,4.595,4.6233,4.6401,4.6407,4.643,4.643,4.6448,4.643,4.6233,4.5875,4.5843,4.5683,4.5389,4.5372,4.4967,4.4267,4.4575,4.438,4.3962,4.4096,4.4069,4.4041,4.4414,4.4343,4.4013,4.4187,4.4274,4.4148,4.4138,4.3888,4.3554,4.3461,4.3424,4.3404,4.337,4.3265,4.2959,4.2886,4.2433,4.1654,4.1423,4.0993,4.0053,3.9075,3.8602,3.8617,3.8218,3.7579,3.7074,3.7307,3.6908,3.524,3.5668,3.5899,3.6104,3.5062,3.4675,3.515,3.5307,3.5305,3.5359,3.5353,3.5439,3.5424,3.5457,3.5489,3.5489,3.5489,3.5489,3.5489,3.5489,3.5537,3.5489,3.507,3.4776,3.4743,3.4776,3.4975,3.5816,3.6258,3.6816,3.7437,3.7919,3.8324,3.8999,3.9598,3.9961,4.0341,4.088,4.1549,4.2359,4.351,4.4939,4.6028,4.6892,4.7313,4.7086,4.6641,4.6227,4.5555,4.5503,4.5059,4.494,4.4995,4.494,4.4886,4.4869,4.4793,4.4737,4.4737,4.4643,4.4598,4.4626,4.4906,4.5142,4.5328,4.5468,4.5606,4.5759,4.5759,4.5759,4.5759,4.5606,4.5468,4.5328,4.5142,4.5015,4.4923,4.5059,4.5003,4.4833,4.5027,4.4991,4.4809,4.4858,4.4657,4.4257,4.4746,4.4774,4.4232,4.4879,4.5123,4.4782,4.4475,4.4554,4.5021,4.4839,4.4802,4.5003,4.4821,4.4671,4.4444,4.3447,4.2492,4.1763,4.0756,3.9728,3.8654,3.7923,3.7462,3.7308,3.7176,3.7165,3.7242,3.7417,3.7232,3.6675,3.631,3.6402,3.6235,3.5143,3.4391,3.4856,3.4966,3.5177,3.5481,3.5863,3.5998,3.5624,3.5489,3.5489,3.5504,3.5489,3.5489,3.5489,3.5489,3.5489,3.5392,3.4986,3.4562,3.4528,3.4327,3.4394,3.5255,3.5784,3.6255,3.6614,3.7049,3.7496,3.8117,3.9045,3.955,3.9676,4.0119,4.1007,4.19,4.29,4.4302,4.5373,4.6216,4.6264,4.6154,4.5825,4.5477,4.5203,4.5069,4.4748,4.4692,4.4814,4.4699,4.4598,4.4598,4.4598,4.4598,4.4598,4.4598,4.4598,4.4598,4.4598,4.4682,4.4875,4.4869,4.4978,4.514,4.514,4.5123,4.5096,4.4968,4.4886,4.4858,4.4682,4.4598,4.4598,4.4776,4.4858,4.4869,4.5042,4.514,4.514,4.5167,4.4858,4.4619,4.4999,4.5034,4.4734,4.5278,4.5626,4.5451,4.5082,4.5053,4.5564,4.5468,4.543,4.5547,4.545,4.5138,4.4489,4.2923,4.1631,4.0807,3.9419,3.8335,3.7623,3.7137,3.691,3.6942,3.6953,3.7078,3.7309,3.7491,3.7414,3.7046,3.6858,3.6581,3.6184,3.5266,3.4727,3.521,3.5412,3.5659,3.6066,3.6507,3.6447,3.6013,3.5863,3.5759,3.5549,3.5504,3.5489,3.5489,3.5489,3.5489,3.5424,3.4854,3.4428,3.448,3.3953,3.4007,3.4647,3.5255,3.5926,3.6366,3.6693,3.7015,3.7474,3.843,3.906,3.9139,3.9708,4.061,4.1549,4.248,4.351,4.4616,4.4942,4.5014,4.5013,4.5064,4.4773,4.4858,4.4654,4.4598,4.4598,4.4626,4.4598,4.4598,4.4598,4.4598,4.4598,4.4598,4.4598,4.4598,4.4598,4.4598,4.4598,4.4626,4.4654,4.4654,4.4665,4.4654,4.4654,4.4654,4.4637,4.4626,4.4626,4.4598,4.4598,4.4598,4.4626,4.4626,4.4626,4.4654,4.4709,4.4626,4.4682,4.4748,4.4872,4.4961,4.5096,4.5345,4.5372,4.5606,4.6021,4.5813,4.5433,4.5,4.5296,4.5429,4.5209,4.5317,4.4546,4.3116,4.1516,4.0043,3.9014,3.7657,3.7052,3.7048,3.681,3.6896,3.7148,3.7434,3.7074,3.6819,3.7106,3.6989,3.6203,3.6308,3.6415,3.5935,3.5795,3.5963,3.6488,3.6716,3.6975,3.7236,3.736,3.7195,3.6686,3.6525,3.6226,3.5729,3.5609,3.5624,3.5534,3.5579,3.5579,3.5454,3.4673,3.4192,3.4225,3.3919,3.3748,3.4211,3.4765,3.5561,3.6226,3.6507,3.6816,3.7244,3.8007,3.8792,3.9076,3.9898,4.0832,4.1789,4.2629,4.2921,4.3731,4.3773,4.3975,4.4049,4.414,4.41,4.4831,4.4598,4.4598,4.4598,4.4598,4.4598,4.4598,4.4598,4.4598,4.4598,4.4598,4.4598,4.4598,4.4598,4.4598,4.4598,4.4598,4.4598,4.4598,4.4598,4.4598,4.4598,4.4598,4.4598,4.4598,4.4598,4.4598,4.4598,4.4598,4.4598,4.4598,4.4598,4.4598,4.4598,4.4598,4.4598,4.4654,4.4709,4.472,4.4776,4.4858,4.5032,4.5213,4.5381,4.5477,4.5406,4.5271,4.5944,4.6408,4.6464,4.6204,4.5194,4.34,4.1444,4.0086,3.939,3.8117,3.7169,3.6816,3.6708,3.6532,3.6373,3.6296,3.6217,3.6071,3.6217,3.6177,3.571,3.5911,3.5871,3.587,3.6576,3.6907,3.6645,3.6771,3.7134,3.747,3.7464,3.7539,3.7659,3.703,3.6447,3.6252,3.6178,3.5998,3.5669,3.5878,3.6028,3.5478,3.4839,3.4192,3.4056,3.3693,3.3728,3.4413,3.5029,3.5642,3.6305,3.6647,3.6785,3.7153,3.7756,3.8493,3.9376,4.0198,4.0991,4.1949,4.2492,4.271,4.2941,4.3229,4.329,4.3246,4.3292,4.3353,4.4748,4.4598,4.4598,4.4598,4.4598,4.4598,4.4598,4.4598,4.4598,4.4598,4.4598,4.4598,4.4598,4.4598,4.4598,4.4598,4.4598,4.4598,4.4598,4.4598,4.4598,4.4598,4.4598,4.4598,4.4598,4.4598,4.4598,4.4598,4.4598,4.4598,4.4598,4.4598,4.4598,4.4598,4.4598,4.4598,4.4598,4.4598,4.4598,4.4598,4.4626,4.4748,4.4896,4.5022,4.515,4.531,4.5424,4.5802,4.62,4.6376,4.5808,4.4476,4.2651,4.0745,3.941,3.8561,3.7625,3.6702,3.6389,3.6269,3.6191,3.579,3.571,3.571,3.571,3.571,3.575,3.6031,3.6111,3.6151,3.6533,3.7299,3.7685,3.7391,3.7579,3.7766,3.8083,3.8153,3.8138,3.8197,3.7723,3.7165,3.6896,3.6806,3.6552,3.6118,3.6207,3.6237,3.5601,3.4971,3.4543,3.4274,3.4172,3.4394,3.4828,3.532,3.5787,3.6337,3.6862,3.6969,3.7152,3.7913,3.8697,3.9803,4.0719,4.1131,4.198,4.2013,4.2158,4.2412,4.2633,4.2459,4.2428,4.2726,4.2851,4.4632,4.4666,4.4682,4.4784,4.4835,4.4852,4.4902,4.4801,4.4716,4.4733,4.4716,4.4632,4.4598,4.4598,4.4598,4.4598,4.4598,4.4598,4.4598,4.4598,4.4598,4.4598,4.4598,4.4598,4.4598,4.4598,4.4598,4.4598,4.4598,4.4598,4.4598,4.4598,4.4598,4.4598,4.4598,4.4598,4.4598,4.4598,4.4598,4.4598,4.4598,4.4598,4.4692,4.494,4.4978,4.5042,4.5079,4.4695,4.4712,4.5045,4.417,4.2713,4.0894,3.9481,3.8243,3.7053,3.6151,3.5871,3.575,3.5831,3.579,3.571,3.571,3.575,3.5831,3.579,3.6031,3.6626,3.6665,3.6847,3.7429,3.8052,3.8375,3.8575,3.8802,3.9128,3.9328,3.932,3.9035,3.8601,3.8392,3.8167,3.7509,3.7419,3.703,3.6596,3.6432,3.6163,3.5648,3.5166,3.5052,3.4824,3.461,3.4843,3.5237,3.5849,3.6305,3.6569,3.703,3.7182,3.7431,3.818,3.9029,4.0135,4.1004,4.1416,4.1654,4.1753,4.1768,4.1916,4.1867,4.1654,4.1785,4.2174,4.2365,4.4908,4.5399,4.5415,4.572,4.6189,4.6194,4.6194,4.6126,4.5618,4.5415,4.5314,4.4835,4.4682,4.4615,4.4649,4.4598,4.4682,4.4666,4.4598,4.4598,4.4598,4.4598,4.4598,4.4598,4.4598,4.4598,4.4598,4.4598,4.4598,4.4598,4.4598,4.4598,4.4598,4.4598,4.4598,4.4598,4.4598,4.4598,4.4598,4.4598,4.4598,4.4598,4.4643,4.4682,4.4692,4.4508,4.4128,4.3054,4.2825,4.3462,4.2438,4.1286,4.0002,3.8671,3.7577,3.6769,3.6071,3.571,3.571,3.571,3.571,3.571,3.575,3.5911,3.6389,3.5991,3.6296,3.6964,3.7003,3.6964,3.7582,3.8165,3.8627,3.9083,3.9316,3.9388,3.9388,3.9388,3.9298,3.914,3.8706,3.8377,3.8153,3.7764,3.73,3.6776,3.6522,3.6327,3.5783,3.5392,3.5231,3.5103,3.5023,3.5237,3.5625,3.6321,3.6754,3.6923,3.7212,3.744,3.788,3.8587,3.9455,4.0435,4.1099,4.159,4.1621,4.1654,4.1588,4.1588,4.1687,4.172,4.1654,4.1851,4.1916,4.5466,4.616,4.616,4.6397,4.6769,4.6786,4.6786,4.6718,4.6363,4.6177,4.6058,4.5749,4.55,4.5546,4.5546,4.5546,4.5529,4.5546,4.5546,4.5466,4.5258,4.4953,4.4699,4.4598,4.4598,4.4598,4.4598,4.4598,4.4598,4.4598,4.4598,4.4598,4.4598,4.4598,4.4598,4.4598,4.4598,4.4598,4.4598,4.4598,4.4598,4.4598,4.4598,4.4542,4.4384,4.3814,4.2644,4.1464,4.1187,4.1435,4.0725,3.9637,3.848,3.7738,3.6911,3.635,3.5911,3.571,3.571,3.571,3.571,3.575,3.5911,3.627,3.6626,3.6494,3.6975,3.7772,3.762,3.781,3.8225,3.8686,3.901,3.9316,3.9388,3.9388,3.9388,3.9388,3.9388,3.9284,3.908,3.8811,3.8826,3.8437,3.7958,3.7449,3.709,3.6641,3.6103,3.5774,3.5502,3.5386,3.5457,3.5716,3.5958,3.6538,3.6968,3.7181,3.7743,3.7923,3.8412,3.9092,3.9977,4.0798,4.1288,4.1588,4.1588,4.1588,4.1588,4.1621,4.1753,4.1883,4.1883,4.1932,4.1916,4.6177,4.6887,4.6887,4.6955,4.7073,4.7039,4.7175,4.7056,4.6972,4.6921,4.687,4.6819,4.6507,4.6743,4.6321,4.6583,4.6494,4.6236,4.638,4.6148,4.5795,4.5274,4.4918,4.4643,4.4587,4.4598,4.4598,4.4598,4.4598,4.4598,4.4598,4.4598,4.4598,4.4598,4.4598,4.4598,4.4598,4.4598,4.4598,4.4598,4.457,4.4485,4.4412,4.4327,4.3697,4.266,4.125,4.0151,3.9722,3.973,3.9074,3.8036,3.676,3.661,3.6336,3.5911,3.575,3.571,3.575,3.579,3.5871,3.5965,3.6455,3.6822,3.7003,3.726,3.772,3.8538,3.8501,3.8664,3.9083,3.9301,3.9265,3.9316,3.9352,3.928,3.9316,3.9352,3.9388,3.9388,3.9358,3.9388,3.9373,3.9269,3.9005,3.7913,3.7494,3.6851,3.6432,3.6178,3.5938,3.5756,3.5926,3.6174,3.6428,3.6724,3.7075,3.7424,3.8242,3.8681,3.9108,3.9771,4.0609,4.1272,4.1494,4.1588,4.1588,4.1588,4.1621,4.172,4.1883,4.2142,4.2349,4.2429,4.246,4.6481,4.7682,4.7652,4.8003,4.8477,4.8528,4.848,4.8396,4.7872,4.7592,4.7534,4.706,4.6615,4.6249,4.6302,4.5967,4.5803,4.5772,4.5545,4.5512,4.5415,4.55,4.54,4.4971,4.4654,4.4671,4.4632,4.4632,4.4649,4.4682,4.4598,4.4615,4.4598,4.4598,4.4598,4.4598,4.4598,4.4598,4.457,4.457,4.4485,4.4167,4.3948,4.3831,4.2833,4.1691,4.0461,3.9179,3.8243,3.769,3.7425,3.7046,3.6425,3.6255,3.6163,3.5937,3.575,3.575,3.579,3.6191,3.6468,3.6547,3.7042,3.7606,3.8052,3.7772,3.8188,3.8797,3.8826,3.8863,3.928,3.8973,3.9046,3.9243,3.9046,3.8789,3.8789,3.9119,3.9316,3.9352,3.9316,3.9388,3.9358,3.8889,3.8611,3.8287,3.7749,3.7045,3.6776,3.6626,3.6342,3.6133,3.6255,3.6412,3.6365,3.677,3.7356,3.7895,3.8698,3.9313,3.974,4.023,4.0972,4.1351,4.1541,4.1588,4.1588,4.1687,4.172,4.1851,4.2077,4.2429,4.2711,4.2836,4.2929,4.709,4.8392,4.8426,4.8475,4.8623,4.8625,4.845,4.8208,4.786,4.7803,4.7893,4.7352,4.7045,4.7014,4.676,4.6486,4.6307,4.6225,4.6045,4.5881,4.5718,4.5683,4.5496,4.5255,4.5072,4.5486,4.5664,4.5512,4.5196,4.5043,4.497,4.4632,4.4598,4.4598,4.4598,4.4598,4.4598,4.4514,4.4355,4.4327,4.4457,4.386,4.3202,4.2754,4.1691,4.056,3.9286,3.8421,3.7434,3.6816,3.6724,3.6763,3.6543,3.6596,3.6663,3.6598,3.627,3.6375,3.6612,3.6652,3.6822,3.712,3.7696,3.8089,3.8478,3.8389,3.8723,3.9156,3.9156,3.9083,3.9352,3.9192,3.9156,3.9228,3.9119,3.8826,3.8627,3.8775,3.8958,3.8922,3.8649,3.8922,3.8905,3.8593,3.8737,3.8662,3.8297,3.7639,3.7569,3.7345,3.6776,3.657,3.6595,3.6585,3.6374,3.68,3.7669,3.8386,3.925,3.9787,4.0198,4.0688,4.1209,4.143,4.1588,4.1588,4.1621,4.172,4.1916,4.2206,4.246,4.2836,4.3113,4.3325,4.3386,4.742,4.8767,4.8767,4.8498,4.8113,4.8048,4.7869,4.7471,4.7404,4.7655,4.7951,4.7555,4.7457,4.7688,4.7357,4.7253,4.7051,4.6968,4.6442,4.6086,4.6021,4.5911,4.5636,4.5636,4.589,4.6791,4.6374,4.6001,4.5568,4.552,4.5064,4.466,4.4598,4.4598,4.4598,4.457,4.4514,4.4372,4.408,4.3935,4.4051,4.3339,4.2459,4.1412,4.0628,3.9465,3.8332,3.7601,3.7106,3.6348,3.6752,3.7049,3.7319,3.7256,3.7567,3.7529,3.7042,3.7042,3.726,3.7275,3.7327,3.7734,3.83,3.859,3.8775,3.8995,3.9228,3.9316,3.9316,3.9316,3.9388,3.9156,3.9156,3.9192,3.9192,3.8848,3.8389,3.824,3.8202,3.8315,3.815,3.83,3.8501,3.8465,3.8789,3.8994,3.8603,3.8351,3.8217,3.7848,3.7179,3.6478,3.6306,3.6119,3.5909,3.6827,3.7686,3.8607,3.955,4.0182,4.0593,4.1004,4.1367,4.1478,4.1588,4.1588,4.1654,4.1753,4.2045,4.246,4.2836,4.3096,4.3476,4.3831,4.3802,4.6337,4.7671,4.7671,4.7588,4.7538,4.7538,4.7455,4.7404,4.7303,4.7438,4.7505,4.7421,4.7134,4.6947,4.6809,4.6493,4.6278,4.6227,4.6127,4.5932,4.5936,4.5901,4.6136,4.6108,4.6545,4.675,4.6288,4.5474,4.5246,4.5033,4.5006,4.4671,4.4598,4.4598,4.4598,4.457,4.4384,4.408,4.3802,4.3684,4.3262,4.2459,4.1395,4.0228,3.9495,3.8591,3.7648,3.7078,3.6964,3.7299,3.7453,3.8023,3.836,3.7767,3.7501,3.7644,3.7582,3.7582,3.7758,3.8014,3.8165,3.8478,3.8863,3.9192,3.9243,3.9316,3.9388,3.9388,3.9388,3.9388,3.9373,3.9083,3.8738,3.859,3.8352,3.7848,3.7352,3.7197,3.7313,3.7505,3.7529,3.7644,3.791,3.8136,3.83,3.8502,3.8406,3.8426,3.8557,3.7956,3.7191,3.6475,3.5813,3.558,3.5296,3.6628,3.7729,3.8654,3.9566,4.0467,4.0877,4.1241,4.1494,4.1557,4.1588,4.1588,4.1654,4.1785,4.2045,4.2397,4.2851,4.3339,4.3638,4.3889,4.3964,4.5291,4.6291,4.6323,4.6338,4.6413,4.6445,4.6468,4.6547,4.6563,4.6738,4.6842,4.6703,4.6598,4.6493,4.6262,4.6044,4.588,4.5807,4.5807,4.5807,4.5807,4.59,4.6207,4.6207,4.6333,4.6333,4.5824,4.5568,4.5594,4.5526,4.5173,4.4792,4.4648,4.4598,4.4598,4.457,4.4281,4.3906,4.3565,4.3232,4.2678,4.1658,4.0389,3.9439,3.8509,3.7701,3.7193,3.7169,3.7299,3.7644,3.8188,3.8811,3.8958,3.8797,3.8271,3.8412,3.8225,3.8225,3.8375,3.8627,3.8604,3.8973,3.928,3.9388,3.9388,3.9388,3.9388,3.9388,3.9388,3.9388,3.9388,3.9046,3.901,3.8848,3.8389,3.7734,3.7275,3.69,3.6769,3.6755,3.6598,3.6872,3.7529,3.7682,3.7772,3.787,3.8068,3.8407,3.876,3.815,3.7346,3.6482,3.5774,3.543,3.5443,3.6652,3.7772,3.8642,3.9527,4.0411,4.0952,4.1201,4.1426,4.1588,4.1588,4.1588,4.172,4.1883,4.2109,4.2349,4.2774,4.3218,4.3638,4.3919,4.3919,4.4333,4.5,4.5,4.5063,4.5126,4.514,4.5314,4.5527,4.5591,4.5905,4.6333,4.6064,4.6064,4.6243,4.6044,4.5807,4.5807,4.5807,4.5807,4.5807,4.5807,4.5807,4.5807,4.5807,4.588,4.5956,4.5841,4.5911,4.5912,4.5831,4.5487,4.501,4.4707,4.4615,4.4592,4.4598,4.4241,4.3713,4.3325,4.2834,4.1788,4.0597,3.9465,3.862,3.7601,3.6936,3.6573,3.6769,3.7222,3.7682,3.8337,3.9083,3.9352,3.9388,3.9388,3.9316,3.8922,3.9046,3.9083,3.8995,3.8936,3.928,3.9352,3.9388,3.9388,3.9388,3.9388,3.9388,3.9243,3.9156,3.9119,3.9031,3.8885,3.8612,3.8188,3.7848,3.7106,3.6612,3.623,3.6031,3.575,3.6097,3.6872,3.7275,3.7313,3.7886,3.8088,3.8377,3.8664,3.83,3.7515,3.6519,3.5815,3.5389,3.5741,3.6867,3.7828,3.8632,3.9474,4.0313,4.0735,4.1044,4.1158,4.1225,4.1588,4.1621,4.1785,4.1916,4.2061,4.2318,4.2711,4.3052,4.3416,4.3549,4.3549,4.3278,4.3897,4.3881,4.3907,4.392,4.3936,4.4281,4.4812,4.4875,4.5223,4.5893,4.5844,4.5844,4.5916,4.588,4.5807,4.5807,4.5807,4.5807,4.5807,4.5807,4.5807,4.5807,4.5807,4.5807,4.5807,4.5807,4.5702,4.5711,4.5641,4.5408,4.5005,4.485,4.4767,4.454,4.4389,4.408,4.3339,4.3066,4.2013,4.0232,3.8977,3.7988,3.7309,3.6847,3.6533,3.6151,3.6336,3.6716,3.7644,3.781,3.8375,3.9156,3.9388,3.9388,3.9388,3.9337,3.9301,3.9352,3.9265,3.9192,3.9388,3.9388,3.9388,3.9388,3.9388,3.9373,3.9388,3.8973,3.8627,3.8538,3.815,3.7658,3.7429,3.7313,3.6808,3.6256,3.6336,3.5951,3.6071,3.5991,3.5951,3.6296,3.6626,3.6978,3.7582,3.8113,3.8427,3.8538,3.8188,3.7377,3.6316,3.5662,3.524,3.5574,3.677,3.7641,3.8477,3.9249,4.0034,4.0293,4.0466,4.0485,4.0638,4.1125,4.1555,4.1687,4.1818,4.1996,4.2158,4.2365,4.2711,4.3082,4.3157,4.3188,4.2236,4.2521,4.2521,4.2758,4.3121,4.3137,4.3516,4.4097,4.4559,4.4875,4.5238,4.5649,4.5807,4.5807,4.5807,4.5807,4.5807,4.5807,4.5807,4.5807,4.5807,4.5807,4.5807,4.5807,4.5807,4.5807,4.5807,4.5765,4.5642,4.5541,4.5386,4.518,4.4713,4.437,4.4284,4.3926,4.3358,4.2569,4.1657,4.0507,3.9224,3.804,3.7092,3.6705,3.6363,3.6191,3.631,3.6652,3.7197,3.8037,3.8352,3.8797,3.9265,3.9388,3.9388,3.9388,3.9388,3.9388,3.9388,3.9388,3.9388,3.9388,3.9388,3.9388,3.9388,3.9388,3.9192,3.8885,3.8679,3.8366,3.8037,3.7772,3.7529,3.7183,3.6744,3.6547,3.6151,3.5871,3.5831,3.6031,3.627,3.635,3.6429,3.6744,3.7289,3.7938,3.8389,3.8612,3.8538,3.8188,3.7163,3.5854,3.5377,3.5055,3.5545,3.6373,3.7229,3.7996,3.8572,3.9275,3.9632,3.9809,3.9879,4.0363,4.1039,4.1357,4.1522,4.1654,4.1801,4.1866,4.1931,4.2333,4.2711,4.2743,4.2851,4.1456,4.1489,4.1571,4.192,4.241,4.2426,4.2821,4.35,4.3959,4.4369,4.4859,4.5476,4.5807,4.5807,4.5807,4.5807,4.5807,4.5807,4.5807,4.5807,4.5807,4.5807,4.5807,4.5807,4.5807,4.5807,4.5807,4.5796,4.5762,4.5658,4.5568,4.5468,4.4951,4.4411,4.4,4.3577,4.2955,4.169,4.0163,3.9028,3.8161,3.6986,3.6362,3.6071,3.5951,3.6031,3.6533,3.7183,3.7848,3.8404,3.8752,3.9046,3.9352,3.9388,3.9388,3.9388,3.9388,3.9388,3.9388,3.9388,3.9388,3.9388,3.9388,3.9388,3.9388,3.9388,3.9156,3.8627,3.8277,3.7938,3.7505,3.7222,3.6911,3.6755,3.6573,3.6547,3.6403,3.5991,3.5911,3.631,3.6665,3.7134,3.7211,3.725,3.7672,3.8329,3.8664,3.8848,3.8612,3.83,3.7571,3.6413,3.5922,3.567,3.5916,3.6499,3.712,3.7419,3.7991,3.8413,3.8782,3.9167,3.9367,4.0015,4.0836,4.129,4.1522,4.1555,4.1621,4.1753,4.1883,4.2077,4.2302,4.2397,4.2726,4.1138,4.1171,4.1456,4.1603,4.1682,4.1667,4.2094,4.264,4.2819,4.3658,4.4733,4.5396,4.5728,4.5807,4.5807,4.5807,4.5807,4.5807,4.5807,4.5807,4.5807,4.5807,4.5807,4.5807,4.5771,4.5735,4.5698,4.5735,4.5719,4.5536,4.5524,4.5466,4.5028,4.4723,4.4091,4.3282,4.2082,4.0689,3.9052,3.7846,3.6982,3.5936,3.5236,3.5046,3.5521,3.603,3.611,3.713,3.8,3.859,3.8752,3.8973,3.9316,3.9388,3.9388,3.9388,3.9388,3.9388,3.9388,3.9388,3.9388,3.9388,3.9388,3.9388,3.9388,3.9388,3.9083,3.8501,3.8037,3.7467,3.6847,3.631,3.6217,3.6177,3.6137,3.6111,3.6031,3.5951,3.5951,3.6522,3.6978,3.7481,3.8052,3.8127,3.8165,3.8738,3.8936,3.9119,3.8811,3.8464,3.8165,3.7425,3.6877,3.6629,3.6579,3.6894,3.7017,3.6965,3.7228,3.7539,3.7805,3.8242,3.8767,3.9682,4.0462,4.099,4.1522,4.1687,4.1785,4.1785,4.1916,4.2206,4.2555,4.282,4.3157,4.073,4.0715,4.0867,4.0919,4.0935,4.0935,4.109,4.1454,4.2031,4.3264,4.4666,4.5033,4.5396,4.5697,4.5807,4.5807,4.5807,4.5807,4.5807,4.5807,4.5807,4.5807,4.5807,4.5735,4.5698,4.5499,4.5426,4.5262,4.5039,4.5077,4.502,4.4919,4.4672,4.4319,4.3642,4.2485,4.0949,3.9689,3.8289,3.719,3.661,3.5683,3.5003,3.4949,3.5507,3.6215,3.6674,3.7591,3.8337,3.8848,3.901,3.9156,3.9352,3.9388,3.9388,3.9388,3.9388,3.9388,3.9388,3.9388,3.9388,3.9388,3.9388,3.9388,3.9388,3.9388,3.8848,3.8277,3.7772,3.726,3.6217,3.5911,3.579,3.571,3.571,3.571,3.571,3.571,3.6111,3.6705,3.7289,3.781,3.8427,3.901,3.901,3.9104,3.9265,3.9316,3.901,3.8775,3.8464,3.8165,3.762,3.7313,3.7236,3.7095,3.6861,3.6769,3.6652,3.7067,3.7491,3.7644,3.8256,3.9233,4.0185,4.0836,4.139,4.1851,4.2013,4.2045,4.2206,4.2476,4.2805,4.3248,4.3565,4.0366,4.0331,4.0211,4.0316,4.0489,4.0489,4.0489,4.0616,4.1279,4.2587,4.424,4.4709,4.5286,4.5713,4.5807,4.5807,4.5807,4.5807,4.5807,4.5807,4.5807,4.5735,4.5646,4.5536,4.5389,4.5098,4.4986,4.4821,4.4312,4.4289,4.4021,4.3738,4.3594,4.329,4.2845,4.1205,3.9597,3.8543,3.7664,3.6702,3.6191,3.5764,3.5055,3.5233,3.594,3.6591,3.7173,3.7971,3.8848,3.9192,3.9352,3.9388,3.9388,3.9388,3.9388,3.9388,3.9388,3.9388,3.9388,3.9388,3.9388,3.9388,3.9388,3.9388,3.9388,3.9388,3.8958,3.8165,3.7734,3.7144,3.6057,3.5911,3.575,3.571,3.571,3.571,3.571,3.575,3.6336,3.6925,3.7467,3.7924,3.8501,3.9083,3.9243,3.9228,3.9301,3.9388,3.9265,3.9083,3.89,3.8627,3.8277,3.8037,3.7848,3.7352,3.694,3.712,3.7042,3.7197,3.7467,3.762,3.8211,3.9421,4.0266,4.0749,4.129,4.1818,4.2142,4.2349,4.2649,4.3052,4.3505,4.3919,4.3964,4.0011,3.9975,3.9589,3.9803,4.0281,4.0455,4.0486,4.0508,4.0751,4.1751,4.3426,4.4813,4.5593,4.5719,4.5698,4.5735,4.5771,4.5771,4.5735,4.5698,4.5573,4.5499,4.5284,4.5083,4.4783,4.4632,4.4312,4.3897,4.3491,4.3373,4.2921,4.2382,4.2181,4.2122,4.2216,4.0191,3.8589,3.7606,3.7039,3.622,3.5791,3.5718,3.5254,3.5544,3.644,3.7114,3.7419,3.8472,3.9228,3.9352,3.9388,3.9388,3.9388,3.9388,3.9388,3.9388,3.9388,3.9388,3.9388,3.9388,3.9352,3.9316,3.928,3.9388,3.9388,3.9352,3.9119,3.8329,3.7962,3.7376,3.6691,3.6151,3.5951,3.571,3.571,3.571,3.571,3.571,3.6256,3.6886,3.7352,3.7848,3.8464,3.8958,3.928,3.9388,3.9388,3.9388,3.9373,3.9301,3.9156,3.9046,3.8738,3.8649,3.8315,3.7443,3.7056,3.7275,3.739,3.7429,3.7696,3.8052,3.8797,3.9753,4.0316,4.0765,4.1323,4.1866,4.246,4.3082,4.3446,4.3831,4.4253,4.4468,4.4384,3.9373,3.901,3.8848,3.8723,3.873,3.9451,3.9994,4.0519,4.114,4.2138,4.325,4.4136,4.4777,4.5174,4.5426,4.5536,4.5698,4.5447,4.541,4.5373,4.5151,4.4949,4.4708,4.4297,4.3912,4.3452,4.3081,4.264,4.2029,4.2111,4.1988,4.1491,4.1057,4.0915,4.0613,3.9431,3.8252,3.7456,3.6661,3.5994,3.602,3.5719,3.5624,3.5884,3.6842,3.7331,3.7515,3.8745,3.9337,3.9388,3.9388,3.9388,3.9388,3.9388,3.9388,3.9388,3.9388,3.9388,3.9388,3.9352,3.9207,3.9083,3.9192,3.9388,3.9388,3.9388,3.9061,3.8679,3.8329,3.7658,3.6847,3.6587,3.6324,3.579,3.571,3.571,3.571,3.571,3.6031,3.6691,3.7236,3.8113,3.8848,3.9083,3.9316,3.946,3.946,3.946,3.946,3.9424,3.9316,3.9316,3.9192,3.9156,3.8811,3.8014,3.7711,3.8014,3.781,3.7529,3.7886,3.8441,3.8892,3.9615,4.0181,4.0783,4.1638,4.2507,4.3279,4.3889,4.408,4.4196,4.4412,4.4542,4.4542,3.8738,3.8202,3.8202,3.7962,3.7758,3.8649,3.9579,4.0524,4.1692,4.2711,4.328,4.369,4.4269,4.4871,4.5024,4.5077,4.5352,4.5151,4.4986,4.4896,4.4465,4.4197,4.3834,4.3334,4.2801,4.226,4.1767,4.1225,4.0788,4.0745,4.0617,4.046,4.0187,3.9877,3.9446,3.86,3.7951,3.7218,3.6511,3.5899,3.5967,3.5953,3.5926,3.6429,3.7028,3.7565,3.7967,3.8634,3.9388,3.9388,3.9388,3.9388,3.9388,3.9388,3.9388,3.9388,3.9388,3.9316,3.9119,3.9352,3.9083,3.8642,3.9068,3.9337,3.9388,3.9388,3.9243,3.8936,3.8679,3.7976,3.7236,3.7017,3.6468,3.5951,3.571,3.571,3.571,3.571,3.579,3.6455,3.7236,3.8188,3.9104,3.9228,3.9388,3.946,3.9532,3.9532,3.9568,3.9496,3.946,3.9496,3.9424,3.9316,3.9083,3.8664,3.8553,3.8789,3.8427,3.7962,3.8352,3.8936,3.9184,3.9478,4.013,4.1005,4.2238,4.3188,4.3743,4.4167,4.4412,4.4514,4.4598,4.4598,4.4598,3.8165,3.7644,3.7567,3.7529,3.762,3.8237,3.9254,4.0502,4.2161,4.2842,4.294,4.3899,4.4281,4.4426,4.4541,4.4663,4.461,4.4534,4.4442,4.4197,4.3624,4.3254,4.2721,4.2097,4.1601,4.1141,4.0632,3.9942,3.959,3.9692,3.9574,3.9404,3.9366,3.8992,3.8474,3.7873,3.7476,3.6985,3.6375,3.594,3.6022,3.6184,3.6185,3.6577,3.7202,3.7703,3.8144,3.8701,3.9192,3.9352,3.9388,3.9388,3.9388,3.9388,3.9388,3.9388,3.9388,3.9119,3.8936,3.9228,3.9156,3.8826,3.9119,3.9316,3.9388,3.9388,3.9316,3.9171,3.8936,3.8277,3.7696,3.712,3.6547,3.6111,3.575,3.571,3.571,3.571,3.571,3.6217,3.7067,3.7985,3.9031,3.9388,3.9388,3.946,3.9532,3.9711,3.9711,3.964,3.964,3.9625,3.9568,3.9424,3.9156,3.8936,3.8752,3.8826,3.8848,3.8575,3.901,3.9243,3.9394,3.9702,4.025,4.1192,4.2491,4.3386,4.4023,4.4355,4.457,4.4598,4.4598,4.4598,4.4598,3.8127,3.7567,3.7144,3.6691,3.651,3.7912,3.9282,4.0479,4.1475,4.1874,4.1927,4.2704,4.3251,4.348,4.3953,4.4297,4.4174,4.3834,4.3467,4.3056,4.2519,4.2029,4.1491,4.0859,4.0317,3.9812,3.9241,3.8635,3.8469,3.8599,3.8807,3.8678,3.8681,3.8315,3.7729,3.7147,3.6999,3.6687,3.6049,3.6008,3.6008,3.6117,3.6293,3.6833,3.6986,3.7526,3.8199,3.8516,3.8973,3.9337,3.9388,3.9388,3.9388,3.9388,3.9388,3.9388,3.9388,3.9316,3.9192,3.9301,3.9316,3.9119,3.9301,3.9352,3.9388,3.9388,3.9388,3.928,3.9156,3.8649,3.8037,3.7467,3.6847,3.6375,3.6031,3.5871,3.5871,3.5764,3.5804,3.6336,3.7144,3.8075,3.9119,3.9388,3.9388,3.9424,3.9532,3.9747,3.9818,3.9711,3.9747,3.9732,3.9589,3.9424,3.9388,3.9192,3.8973,3.8789,3.8885,3.8922,3.8936,3.9119,3.9445,3.9985,4.0615,4.164,4.2803,4.3565,4.4138,4.4384,4.4598,4.4598,4.4598,4.4598,4.4598,3.8165,3.7582,3.7236,3.6925,3.6982,3.7802,3.8897,4.0025,4.098,4.1489,4.1796,4.1946,4.2406,4.3126,4.3316,4.3398,4.3497,4.3046,4.2629,4.2029,4.1323,4.1085,4.0546,3.9812,3.9163,3.8617,3.8039,3.7488,3.7409,3.7647,3.7836,3.8038,3.807,3.7691,3.7174,3.6822,3.651,3.6239,3.5981,3.5995,3.5967,3.5927,3.6319,3.6642,3.6579,3.7293,3.8052,3.8277,3.8811,3.9301,3.9388,3.9388,3.9388,3.9388,3.9388,3.9388,3.9388,3.9388,3.9352,3.9352,3.9388,3.9388,3.9388,3.9388,3.9388,3.9388,3.9388,3.9352,3.9265,3.9083,3.8464,3.7848,3.7236,3.6612,3.6375,3.6151,3.5991,3.5844,3.6151,3.6612,3.7376,3.8337,3.8958,3.9228,3.9424,3.946,3.9532,3.9676,3.9711,3.9604,3.9711,3.9818,3.9604,3.9388,3.9388,3.9388,3.9207,3.9046,3.9156,3.9156,3.8973,3.9119,3.9553,4.0285,4.1044,4.2013,4.2912,4.3608,4.4167,4.4412,4.4598,4.4598,4.4598,4.4598,4.4598,3.8202,3.7682,3.7644,3.7848,3.8352,3.7967,3.8381,3.9457,4.0636,4.1542,4.1826,4.1632,4.2028,4.2689,4.2707,4.2481,4.2423,4.2094,4.1556,4.1155,4.0532,4.0159,3.9745,3.9067,3.8366,3.774,3.7213,3.6812,3.6498,3.6787,3.7287,3.7445,3.7418,3.7092,3.6592,3.6469,3.6212,3.5913,3.5805,3.5791,3.5764,3.5723,3.571,3.5871,3.631,3.6925,3.7582,3.8165,3.8738,3.9156,3.9388,3.9388,3.9538,3.9553,3.9553,3.9448,3.9478,3.9388,3.9388,3.9388,3.9388,3.9388,3.9388,3.9388,3.9388,3.9388,3.9388,3.9388,3.9352,3.9046,3.8501,3.824,3.7772,3.726,3.6911,3.6769,3.6691,3.6612,3.6808,3.7222,3.781,3.8664,3.9119,3.9388,3.9388,3.946,3.9532,3.964,3.9604,3.9496,3.9604,3.9783,3.9604,3.9388,3.9388,3.9388,3.9388,3.9352,3.9373,3.9337,3.9192,3.9409,3.9732,4.0493,4.1309,4.2013,4.2803,4.3519,4.4109,4.444,4.4598,4.4598,4.4598,4.4598,4.4598,3.8404,3.824,3.781,3.7962,3.8441,3.8352,3.8664,3.9403,3.9709,3.9964,4.0262,4.098,4.1534,4.1808,4.2016,4.1833,4.1528,4.1052,4.0464,4.0109,3.9646,3.939,3.8899,3.8307,3.7607,3.7069,3.6643,3.641,3.6501,3.6654,3.6751,3.6793,3.6809,3.6524,3.6062,3.6035,3.5981,3.5832,3.5927,3.5927,3.5913,3.5778,3.571,3.5777,3.6058,3.6652,3.7222,3.7734,3.8501,3.9156,3.9352,3.9679,4.0113,4.0127,4.0142,4.0083,3.9679,3.9448,3.9388,3.9388,3.9388,3.9388,3.9388,3.9388,3.9388,3.9388,3.9388,3.9388,3.928,3.8973,3.8738,3.8553,3.8404,3.7924,3.7491,3.7453,3.739,3.7414,3.7491,3.7886,3.8366,3.8826,3.9243,3.9388,3.9388,3.9424,3.9424,3.9496,3.9496,3.9424,3.9496,3.964,3.9517,3.9409,3.9388,3.9388,3.9388,3.9388,3.9388,3.9388,3.9424,3.9732,4.0051,4.0749,4.1458,4.2142,4.2772,4.3429,4.3948,4.4412,4.4598,4.4598,4.4598,4.4598,4.4598,3.8752,3.8404,3.7544,3.7544,3.8014,3.7825,3.8052,3.8538,3.8598,3.8612,3.8745,3.9653,4.0425,4.0689,4.081,4.0893,4.0476,4.0126,3.984,3.9449,3.904,3.8785,3.8263,3.7678,3.701,3.6478,3.5979,3.5857,3.6364,3.6324,3.6209,3.6252,3.6225,3.613,3.5751,3.5927,3.6117,3.6144,3.632,3.6415,3.632,3.6117,3.5967,3.5954,3.6102,3.6605,3.7144,3.7725,3.8541,3.9616,4.0304,4.0721,4.0984,4.0818,4.0676,4.0392,3.9974,3.9388,3.9388,3.9388,3.9388,3.9388,3.9388,3.9388,3.9388,3.9388,3.9388,3.9388,3.9388,3.9119,3.9119,3.8973,3.8958,3.8649,3.8188,3.7924,3.7848,3.781,3.7962,3.8202,3.8664,3.9083,3.9388,3.9388,3.9388,3.9424,3.9424,3.9409,3.9409,3.9424,3.9496,3.9568,3.9517,3.9445,3.9388,3.9388,3.9388,3.9388,3.946,3.9532,3.9676,4.0016,4.042,4.1055,4.1638,4.2174,4.2803,4.3459,4.3993,4.4457,4.457,4.4598,4.4598,4.4598,4.4598,3.8885,3.824,3.7289,3.712,3.7491,3.7081,3.7159,3.7606,3.7644,3.7715,3.7906,3.8292,3.915,3.9567,3.9337,3.9276,3.9271,3.931,3.9227,3.8913,3.8616,3.8233,3.7806,3.7319,3.671,3.6186,3.577,3.5728,3.593,3.6113,3.6251,3.5913,3.59,3.5967,3.6103,3.6375,3.6727,3.6781,3.7011,3.7404,3.7079,3.655,3.651,3.6402,3.6457,3.6704,3.7477,3.8232,3.9069,4.0107,4.1346,4.1661,4.1659,4.1364,4.1082,4.0752,3.9914,3.9535,3.9388,3.9388,3.9388,3.9388,3.9388,3.9388,3.9388,3.946,3.946,3.9496,3.9496,3.946,3.9424,3.9373,3.9337,3.9322,3.8833,3.8464,3.8389,3.8315,3.8478,3.8642,3.8936,3.9352,3.9269,3.9305,3.9305,3.932,3.9334,3.9364,3.9379,3.9445,3.9532,3.964,3.9711,3.9604,3.9604,3.9532,3.9604,3.9625,3.9696,3.9818,3.996,4.0366,4.0799,4.129,4.1867,4.2396,4.2927,4.3549,4.4051,4.4514,4.457,4.4598,4.4598,4.4598,4.4598,3.8315,3.7772,3.7491,3.7505,3.7582,3.7429,3.7505,3.7567,3.7596,3.7853,3.8015,3.7882,3.8425,3.9685,3.9462,3.9313,3.9102,3.8913,3.83,3.7853,3.8342,3.7826,3.7404,3.7342,3.6711,3.6304,3.6074,3.6102,3.6247,3.6738,3.6848,3.6483,3.6943,3.7052,3.7106,3.7296,3.7309,3.7404,3.7526,3.7824,3.8,3.7607,3.7296,3.7424,3.7772,3.8346,3.9031,3.9677,4.0371,4.1264,4.2123,4.2356,4.2121,4.1808,4.1459,4.0804,3.9986,3.9535,3.9388,3.9388,3.9388,3.9388,3.9424,3.9424,3.9532,3.9747,3.9747,3.9818,3.9818,3.9747,3.9696,3.9553,3.9517,3.9589,3.9358,3.9192,3.9046,3.901,3.9083,3.9156,3.9265,3.9221,3.8912,3.8932,3.8938,3.8938,3.8887,3.8977,3.9544,3.9589,3.9604,3.9818,3.9996,4.0121,4.0226,3.9945,3.991,3.9945,4.0036,4.0266,4.0509,4.0765,4.1205,4.1835,4.2254,4.2726,4.3248,4.3726,4.408,4.4485,4.4542,4.4598,4.4598,4.4598,4.4626]}]]